<?xml version="1.0" encoding="UTF-8" standalone="no" ?>
<gpx xmlns="http://www.topografix.com/GPX/1/1" xmlns:xsi="http://www.w3.org/2001/XMLSchema-instance" xsi:schemaLocation="http://www.topografix.com/GPX/1/1 http://www.topografix.com/GPX/1/1/gpx.xsd" version="1.1" creator="VisuGPX - https://www.visugpx.com">
  <metadata>
    <name>Grand Galbert - Plateau du Taillefer</name>
    <desc><![CDATA[Rando familiale avec de beaux points de vue]]></desc>
  </metadata>
  <trk>
    <name><![CDATA[Grand Galbert - Plateau du Taillefer]]></name>
    <trkseg>
      <trkpt lat="45.05369" lon="5.89644">
        <ele>1644.95</ele>
        <time>2018-09-02T08:36:38Z</time>
      </trkpt>
      <trkpt lat="45.0537" lon="5.89645">
        <ele>1647.84</ele>
        <time>2018-09-02T08:36:41Z</time>
      </trkpt>
      <trkpt lat="45.05373" lon="5.89649">
        <ele>1652.16</ele>
        <time>2018-09-02T08:36:46Z</time>
      </trkpt>
      <trkpt lat="45.05374" lon="5.89649">
        <ele>1656.01</ele>
        <time>2018-09-02T08:36:51Z</time>
      </trkpt>
      <trkpt lat="45.05374" lon="5.89648">
        <ele>1656.49</ele>
        <time>2018-09-02T08:36:52Z</time>
      </trkpt>
      <trkpt lat="45.05373" lon="5.89647">
        <ele>1658.89</ele>
        <time>2018-09-02T08:36:56Z</time>
      </trkpt>
      <trkpt lat="45.05372" lon="5.89648">
        <ele>1662.74</ele>
        <time>2018-09-02T08:37:02Z</time>
      </trkpt>
      <trkpt lat="45.05371" lon="5.89651">
        <ele>1666.1</ele>
        <time>2018-09-02T08:37:09Z</time>
      </trkpt>
      <trkpt lat="45.05371" lon="5.89652">
        <ele>1666.1</ele>
        <time>2018-09-02T08:37:10Z</time>
      </trkpt>
      <trkpt lat="45.05372" lon="5.89653">
        <ele>1669.47</ele>
        <time>2018-09-02T08:37:17Z</time>
      </trkpt>
      <trkpt lat="45.05373" lon="5.89651">
        <ele>1672.35</ele>
        <time>2018-09-02T08:37:24Z</time>
      </trkpt>
      <trkpt lat="45.05372" lon="5.89652">
        <ele>1675.72</ele>
        <time>2018-09-02T08:37:36Z</time>
      </trkpt>
      <trkpt lat="45.05371" lon="5.89654">
        <ele>1679.08</ele>
        <time>2018-09-02T08:37:50Z</time>
      </trkpt>
      <trkpt lat="45.05366" lon="5.89648">
        <ele>1679.08</ele>
        <time>2018-09-02T08:38:27Z</time>
      </trkpt>
      <trkpt lat="45.05369" lon="5.89641">
        <ele>1679.08</ele>
        <time>2018-09-02T08:38:58Z</time>
      </trkpt>
      <trkpt lat="45.05365" lon="5.89638">
        <ele>1679.08</ele>
        <time>2018-09-02T08:39:28Z</time>
      </trkpt>
      <trkpt lat="45.05367" lon="5.89638">
        <ele>1678.6</ele>
        <time>2018-09-02T08:40:04Z</time>
      </trkpt>
      <trkpt lat="45.05372" lon="5.89642">
        <ele>1679.08</ele>
        <time>2018-09-02T08:40:16Z</time>
      </trkpt>
      <trkpt lat="45.05376" lon="5.89643">
        <ele>1679.08</ele>
        <time>2018-09-02T08:40:29Z</time>
      </trkpt>
      <trkpt lat="45.05376" lon="5.8964">
        <ele>1679.08</ele>
        <time>2018-09-02T08:40:42Z</time>
      </trkpt>
      <trkpt lat="45.05374" lon="5.8964">
        <ele>1678.6</ele>
        <time>2018-09-02T08:40:58Z</time>
      </trkpt>
      <trkpt lat="45.05375" lon="5.89637">
        <ele>1678.6</ele>
        <time>2018-09-02T08:41:18Z</time>
      </trkpt>
      <trkpt lat="45.05372" lon="5.89638">
        <ele>1679.08</ele>
        <time>2018-09-02T08:41:36Z</time>
      </trkpt>
      <trkpt lat="45.05375" lon="5.89652">
        <ele>1678.6</ele>
        <time>2018-09-02T08:41:49Z</time>
      </trkpt>
      <trkpt lat="45.05372" lon="5.89625">
        <ele>1678.6</ele>
        <time>2018-09-02T08:42:04Z</time>
      </trkpt>
      <trkpt lat="45.05377" lon="5.89646">
        <ele>1678.6</ele>
        <time>2018-09-02T08:42:23Z</time>
      </trkpt>
      <trkpt lat="45.0537" lon="5.89667">
        <ele>1677.64</ele>
        <time>2018-09-02T08:42:35Z</time>
      </trkpt>
      <trkpt lat="45.05369" lon="5.8968">
        <ele>1677.16</ele>
        <time>2018-09-02T08:42:44Z</time>
      </trkpt>
      <trkpt lat="45.05363" lon="5.89682">
        <ele>1676.68</ele>
        <time>2018-09-02T08:42:52Z</time>
      </trkpt>
      <trkpt lat="45.0535" lon="5.89697">
        <ele>1676.2</ele>
        <time>2018-09-02T08:43:07Z</time>
      </trkpt>
      <trkpt lat="45.05342" lon="5.89717">
        <ele>1675.23</ele>
        <time>2018-09-02T08:43:22Z</time>
      </trkpt>
      <trkpt lat="45.05333" lon="5.89735">
        <ele>1673.79</ele>
        <time>2018-09-02T08:43:37Z</time>
      </trkpt>
      <trkpt lat="45.05314" lon="5.8975">
        <ele>1672.83</ele>
        <time>2018-09-02T08:43:54Z</time>
      </trkpt>
      <trkpt lat="45.05295" lon="5.89769">
        <ele>1672.35</ele>
        <time>2018-09-02T08:44:11Z</time>
      </trkpt>
      <trkpt lat="45.05296" lon="5.89795">
        <ele>1670.91</ele>
        <time>2018-09-02T08:44:25Z</time>
      </trkpt>
      <trkpt lat="45.053" lon="5.89818">
        <ele>1669.95</ele>
        <time>2018-09-02T08:44:40Z</time>
      </trkpt>
      <trkpt lat="45.05307" lon="5.89833">
        <ele>1669.95</ele>
        <time>2018-09-02T08:44:54Z</time>
      </trkpt>
      <trkpt lat="45.05312" lon="5.89847">
        <ele>1668.99</ele>
        <time>2018-09-02T08:45:04Z</time>
      </trkpt>
      <trkpt lat="45.05312" lon="5.89869">
        <ele>1668.99</ele>
        <time>2018-09-02T08:45:19Z</time>
      </trkpt>
      <trkpt lat="45.05311" lon="5.89871">
        <ele>1668.02</ele>
        <time>2018-09-02T08:45:21Z</time>
      </trkpt>
      <trkpt lat="45.0531" lon="5.89874">
        <ele>1668.51</ele>
        <time>2018-09-02T08:45:23Z</time>
      </trkpt>
      <trkpt lat="45.053" lon="5.89896">
        <ele>1668.02</ele>
        <time>2018-09-02T08:45:38Z</time>
      </trkpt>
      <trkpt lat="45.05304" lon="5.89904">
        <ele>1668.02</ele>
        <time>2018-09-02T08:45:54Z</time>
      </trkpt>
      <trkpt lat="45.05314" lon="5.89921">
        <ele>1667.54</ele>
        <time>2018-09-02T08:46:08Z</time>
      </trkpt>
      <trkpt lat="45.05316" lon="5.89936">
        <ele>1667.06</ele>
        <time>2018-09-02T08:46:21Z</time>
      </trkpt>
      <trkpt lat="45.05322" lon="5.89962">
        <ele>1665.14</ele>
        <time>2018-09-02T08:46:39Z</time>
      </trkpt>
      <trkpt lat="45.05324" lon="5.89981">
        <ele>1664.66</ele>
        <time>2018-09-02T08:46:54Z</time>
      </trkpt>
      <trkpt lat="45.05324" lon="5.89995">
        <ele>1663.7</ele>
        <time>2018-09-02T08:47:04Z</time>
      </trkpt>
      <trkpt lat="45.05322" lon="5.90006">
        <ele>1663.22</ele>
        <time>2018-09-02T08:47:12Z</time>
      </trkpt>
      <trkpt lat="45.05316" lon="5.90034">
        <ele>1659.85</ele>
        <time>2018-09-02T08:47:30Z</time>
      </trkpt>
      <trkpt lat="45.05304" lon="5.90057">
        <ele>1656.97</ele>
        <time>2018-09-02T08:47:46Z</time>
      </trkpt>
      <trkpt lat="45.05297" lon="5.9007">
        <ele>1655.53</ele>
        <time>2018-09-02T08:47:56Z</time>
      </trkpt>
      <trkpt lat="45.05296" lon="5.90085">
        <ele>1655.05</ele>
        <time>2018-09-02T08:48:04Z</time>
      </trkpt>
      <trkpt lat="45.05298" lon="5.90093">
        <ele>1654.57</ele>
        <time>2018-09-02T08:48:09Z</time>
      </trkpt>
      <trkpt lat="45.05306" lon="5.90122">
        <ele>1653.12</ele>
        <time>2018-09-02T08:48:26Z</time>
      </trkpt>
      <trkpt lat="45.05311" lon="5.9014">
        <ele>1652.64</ele>
        <time>2018-09-02T08:48:39Z</time>
      </trkpt>
      <trkpt lat="45.05312" lon="5.90164">
        <ele>1652.64</ele>
        <time>2018-09-02T08:48:53Z</time>
      </trkpt>
      <trkpt lat="45.05307" lon="5.90188">
        <ele>1650.72</ele>
        <time>2018-09-02T08:49:09Z</time>
      </trkpt>
      <trkpt lat="45.05314" lon="5.90206">
        <ele>1651.2</ele>
        <time>2018-09-02T08:49:23Z</time>
      </trkpt>
      <trkpt lat="45.05316" lon="5.90226">
        <ele>1652.16</ele>
        <time>2018-09-02T08:49:35Z</time>
      </trkpt>
      <trkpt lat="45.05316" lon="5.90242">
        <ele>1652.64</ele>
        <time>2018-09-02T08:49:47Z</time>
      </trkpt>
      <trkpt lat="45.05321" lon="5.90256">
        <ele>1653.6</ele>
        <time>2018-09-02T08:50:00Z</time>
      </trkpt>
      <trkpt lat="45.05322" lon="5.90258">
        <ele>1654.09</ele>
        <time>2018-09-02T08:50:01Z</time>
      </trkpt>
      <trkpt lat="45.05324" lon="5.90283">
        <ele>1654.09</ele>
        <time>2018-09-02T08:50:15Z</time>
      </trkpt>
      <trkpt lat="45.05324" lon="5.90304">
        <ele>1653.6</ele>
        <time>2018-09-02T08:50:29Z</time>
      </trkpt>
      <trkpt lat="45.05329" lon="5.90325">
        <ele>1654.57</ele>
        <time>2018-09-02T08:50:43Z</time>
      </trkpt>
      <trkpt lat="45.0533" lon="5.90348">
        <ele>1655.53</ele>
        <time>2018-09-02T08:50:55Z</time>
      </trkpt>
      <trkpt lat="45.05334" lon="5.90367">
        <ele>1656.01</ele>
        <time>2018-09-02T08:51:06Z</time>
      </trkpt>
      <trkpt lat="45.05336" lon="5.90378">
        <ele>1656.01</ele>
        <time>2018-09-02T08:51:14Z</time>
      </trkpt>
      <trkpt lat="45.05343" lon="5.90398">
        <ele>1656.01</ele>
        <time>2018-09-02T08:51:28Z</time>
      </trkpt>
      <trkpt lat="45.05344" lon="5.90421">
        <ele>1657.93</ele>
        <time>2018-09-02T08:51:42Z</time>
      </trkpt>
      <trkpt lat="45.05344" lon="5.90426">
        <ele>1657.93</ele>
        <time>2018-09-02T08:51:46Z</time>
      </trkpt>
      <trkpt lat="45.05347" lon="5.90448">
        <ele>1659.85</ele>
        <time>2018-09-02T08:52:01Z</time>
      </trkpt>
      <trkpt lat="45.05351" lon="5.9046">
        <ele>1659.85</ele>
        <time>2018-09-02T08:52:11Z</time>
      </trkpt>
      <trkpt lat="45.05358" lon="5.90478">
        <ele>1660.33</ele>
        <time>2018-09-02T08:52:22Z</time>
      </trkpt>
      <trkpt lat="45.05363" lon="5.9049">
        <ele>1660.33</ele>
        <time>2018-09-02T08:52:31Z</time>
      </trkpt>
      <trkpt lat="45.05374" lon="5.90509">
        <ele>1660.33</ele>
        <time>2018-09-02T08:52:46Z</time>
      </trkpt>
      <trkpt lat="45.05374" lon="5.9051">
        <ele>1659.85</ele>
        <time>2018-09-02T08:52:47Z</time>
      </trkpt>
      <trkpt lat="45.05378" lon="5.90517">
        <ele>1660.81</ele>
        <time>2018-09-02T08:52:55Z</time>
      </trkpt>
      <trkpt lat="45.05379" lon="5.90533">
        <ele>1662.26</ele>
        <time>2018-09-02T08:53:08Z</time>
      </trkpt>
      <trkpt lat="45.05379" lon="5.90536">
        <ele>1662.26</ele>
        <time>2018-09-02T08:53:10Z</time>
      </trkpt>
      <trkpt lat="45.05378" lon="5.90542">
        <ele>1662.74</ele>
        <time>2018-09-02T08:53:14Z</time>
      </trkpt>
      <trkpt lat="45.05381" lon="5.90563">
        <ele>1663.22</ele>
        <time>2018-09-02T08:53:28Z</time>
      </trkpt>
      <trkpt lat="45.0538" lon="5.90583">
        <ele>1664.18</ele>
        <time>2018-09-02T08:53:39Z</time>
      </trkpt>
      <trkpt lat="45.05378" lon="5.9061">
        <ele>1665.14</ele>
        <time>2018-09-02T08:53:55Z</time>
      </trkpt>
      <trkpt lat="45.05384" lon="5.90629">
        <ele>1666.1</ele>
        <time>2018-09-02T08:54:09Z</time>
      </trkpt>
      <trkpt lat="45.0539" lon="5.90636">
        <ele>1665.62</ele>
        <time>2018-09-02T08:54:22Z</time>
      </trkpt>
      <trkpt lat="45.05391" lon="5.90641">
        <ele>1665.62</ele>
        <time>2018-09-02T08:54:50Z</time>
      </trkpt>
      <trkpt lat="45.05388" lon="5.90641">
        <ele>1665.62</ele>
        <time>2018-09-02T08:55:33Z</time>
      </trkpt>
      <trkpt lat="45.05387" lon="5.9063">
        <ele>1666.1</ele>
        <time>2018-09-02T08:55:54Z</time>
      </trkpt>
      <trkpt lat="45.05389" lon="5.90637">
        <ele>1665.62</ele>
        <time>2018-09-02T08:56:12Z</time>
      </trkpt>
      <trkpt lat="45.05391" lon="5.90639">
        <ele>1666.1</ele>
        <time>2018-09-02T08:56:14Z</time>
      </trkpt>
      <trkpt lat="45.05403" lon="5.9065">
        <ele>1668.51</ele>
        <time>2018-09-02T08:56:27Z</time>
      </trkpt>
      <trkpt lat="45.0541" lon="5.90679">
        <ele>1669.95</ele>
        <time>2018-09-02T08:56:42Z</time>
      </trkpt>
      <trkpt lat="45.05415" lon="5.90701">
        <ele>1669.95</ele>
        <time>2018-09-02T08:56:55Z</time>
      </trkpt>
      <trkpt lat="45.05419" lon="5.90718">
        <ele>1671.87</ele>
        <time>2018-09-02T08:57:07Z</time>
      </trkpt>
      <trkpt lat="45.05426" lon="5.90731">
        <ele>1672.35</ele>
        <time>2018-09-02T08:57:21Z</time>
      </trkpt>
      <trkpt lat="45.05427" lon="5.90732">
        <ele>1672.35</ele>
        <time>2018-09-02T08:57:22Z</time>
      </trkpt>
      <trkpt lat="45.05427" lon="5.90735">
        <ele>1672.83</ele>
        <time>2018-09-02T08:57:24Z</time>
      </trkpt>
      <trkpt lat="45.05434" lon="5.90753">
        <ele>1673.31</ele>
        <time>2018-09-02T08:57:37Z</time>
      </trkpt>
      <trkpt lat="45.0544" lon="5.90769">
        <ele>1675.23</ele>
        <time>2018-09-02T08:57:50Z</time>
      </trkpt>
      <trkpt lat="45.05448" lon="5.90786">
        <ele>1677.16</ele>
        <time>2018-09-02T08:58:05Z</time>
      </trkpt>
      <trkpt lat="45.05455" lon="5.90803">
        <ele>1679.08</ele>
        <time>2018-09-02T08:58:19Z</time>
      </trkpt>
      <trkpt lat="45.05465" lon="5.90814">
        <ele>1681</ele>
        <time>2018-09-02T08:58:33Z</time>
      </trkpt>
      <trkpt lat="45.05473" lon="5.90831">
        <ele>1682.44</ele>
        <time>2018-09-02T08:58:47Z</time>
      </trkpt>
      <trkpt lat="45.05479" lon="5.9084">
        <ele>1683.41</ele>
        <time>2018-09-02T08:58:56Z</time>
      </trkpt>
      <trkpt lat="45.05494" lon="5.90841">
        <ele>1684.37</ele>
        <time>2018-09-02T08:59:10Z</time>
      </trkpt>
      <trkpt lat="45.05505" lon="5.90837">
        <ele>1684.85</ele>
        <time>2018-09-02T08:59:24Z</time>
      </trkpt>
      <trkpt lat="45.05521" lon="5.9083">
        <ele>1685.81</ele>
        <time>2018-09-02T08:59:38Z</time>
      </trkpt>
      <trkpt lat="45.05534" lon="5.90822">
        <ele>1688.21</ele>
        <time>2018-09-02T08:59:53Z</time>
      </trkpt>
      <trkpt lat="45.05539" lon="5.90815">
        <ele>1688.69</ele>
        <time>2018-09-02T08:59:58Z</time>
      </trkpt>
      <trkpt lat="45.0555" lon="5.9081">
        <ele>1689.65</ele>
        <time>2018-09-02T09:00:08Z</time>
      </trkpt>
      <trkpt lat="45.05569" lon="5.90803">
        <ele>1690.14</ele>
        <time>2018-09-02T09:00:25Z</time>
      </trkpt>
      <trkpt lat="45.05583" lon="5.90792">
        <ele>1691.58</ele>
        <time>2018-09-02T09:00:40Z</time>
      </trkpt>
      <trkpt lat="45.05582" lon="5.90788">
        <ele>1691.58</ele>
        <time>2018-09-02T09:00:58Z</time>
      </trkpt>
      <trkpt lat="45.05594" lon="5.90786">
        <ele>1692.54</ele>
        <time>2018-09-02T09:01:12Z</time>
      </trkpt>
      <trkpt lat="45.05587" lon="5.90783">
        <ele>1692.06</ele>
        <time>2018-09-02T09:01:27Z</time>
      </trkpt>
      <trkpt lat="45.05597" lon="5.90778">
        <ele>1693.5</ele>
        <time>2018-09-02T09:01:43Z</time>
      </trkpt>
      <trkpt lat="45.05604" lon="5.90774">
        <ele>1694.46</ele>
        <time>2018-09-02T09:01:51Z</time>
      </trkpt>
      <trkpt lat="45.05615" lon="5.90759">
        <ele>1694.94</ele>
        <time>2018-09-02T09:02:03Z</time>
      </trkpt>
      <trkpt lat="45.05621" lon="5.90754">
        <ele>1694.94</ele>
        <time>2018-09-02T09:02:07Z</time>
      </trkpt>
      <trkpt lat="45.05633" lon="5.90733">
        <ele>1696.38</ele>
        <time>2018-09-02T09:02:22Z</time>
      </trkpt>
      <trkpt lat="45.05643" lon="5.9072">
        <ele>1697.83</ele>
        <time>2018-09-02T09:02:35Z</time>
      </trkpt>
      <trkpt lat="45.05651" lon="5.90702">
        <ele>1699.27</ele>
        <time>2018-09-02T09:02:49Z</time>
      </trkpt>
      <trkpt lat="45.0566" lon="5.90686">
        <ele>1701.19</ele>
        <time>2018-09-02T09:03:04Z</time>
      </trkpt>
      <trkpt lat="45.05666" lon="5.90684">
        <ele>1701.67</ele>
        <time>2018-09-02T09:03:13Z</time>
      </trkpt>
      <trkpt lat="45.05677" lon="5.90702">
        <ele>1703.11</ele>
        <time>2018-09-02T09:03:31Z</time>
      </trkpt>
      <trkpt lat="45.05682" lon="5.90716">
        <ele>1704.07</ele>
        <time>2018-09-02T09:03:42Z</time>
      </trkpt>
      <trkpt lat="45.05685" lon="5.90723">
        <ele>1704.55</ele>
        <time>2018-09-02T09:03:54Z</time>
      </trkpt>
      <trkpt lat="45.05698" lon="5.90732">
        <ele>1705.04</ele>
        <time>2018-09-02T09:04:09Z</time>
      </trkpt>
      <trkpt lat="45.05699" lon="5.90734">
        <ele>1705.04</ele>
        <time>2018-09-02T09:04:11Z</time>
      </trkpt>
      <trkpt lat="45.0571" lon="5.90743">
        <ele>1705.04</ele>
        <time>2018-09-02T09:04:27Z</time>
      </trkpt>
      <trkpt lat="45.05716" lon="5.90751">
        <ele>1705.04</ele>
        <time>2018-09-02T09:04:41Z</time>
      </trkpt>
      <trkpt lat="45.05723" lon="5.90767">
        <ele>1705.52</ele>
        <time>2018-09-02T09:04:55Z</time>
      </trkpt>
      <trkpt lat="45.0573" lon="5.90778">
        <ele>1706.96</ele>
        <time>2018-09-02T09:05:07Z</time>
      </trkpt>
      <trkpt lat="45.05741" lon="5.90794">
        <ele>1707.44</ele>
        <time>2018-09-02T09:05:21Z</time>
      </trkpt>
      <trkpt lat="45.05753" lon="5.90811">
        <ele>1708.4</ele>
        <time>2018-09-02T09:05:36Z</time>
      </trkpt>
      <trkpt lat="45.05762" lon="5.9083">
        <ele>1709.84</ele>
        <time>2018-09-02T09:05:51Z</time>
      </trkpt>
      <trkpt lat="45.05769" lon="5.9085">
        <ele>1711.28</ele>
        <time>2018-09-02T09:06:07Z</time>
      </trkpt>
      <trkpt lat="45.05778" lon="5.90869">
        <ele>1711.76</ele>
        <time>2018-09-02T09:06:23Z</time>
      </trkpt>
      <trkpt lat="45.05787" lon="5.90879">
        <ele>1712.73</ele>
        <time>2018-09-02T09:06:35Z</time>
      </trkpt>
      <trkpt lat="45.05801" lon="5.90892">
        <ele>1714.17</ele>
        <time>2018-09-02T09:06:49Z</time>
      </trkpt>
      <trkpt lat="45.05816" lon="5.90907">
        <ele>1715.61</ele>
        <time>2018-09-02T09:07:04Z</time>
      </trkpt>
      <trkpt lat="45.05824" lon="5.90921">
        <ele>1716.09</ele>
        <time>2018-09-02T09:07:17Z</time>
      </trkpt>
      <trkpt lat="45.05831" lon="5.90938">
        <ele>1717.05</ele>
        <time>2018-09-02T09:07:32Z</time>
      </trkpt>
      <trkpt lat="45.05839" lon="5.90959">
        <ele>1717.53</ele>
        <time>2018-09-02T09:07:46Z</time>
      </trkpt>
      <trkpt lat="45.05851" lon="5.90976">
        <ele>1718.97</ele>
        <time>2018-09-02T09:08:00Z</time>
      </trkpt>
      <trkpt lat="45.0586" lon="5.90989">
        <ele>1719.46</ele>
        <time>2018-09-02T09:08:11Z</time>
      </trkpt>
      <trkpt lat="45.0587" lon="5.90995">
        <ele>1720.9</ele>
        <time>2018-09-02T09:08:25Z</time>
      </trkpt>
      <trkpt lat="45.05889" lon="5.91008">
        <ele>1722.34</ele>
        <time>2018-09-02T09:08:42Z</time>
      </trkpt>
      <trkpt lat="45.05893" lon="5.9102">
        <ele>1723.3</ele>
        <time>2018-09-02T09:08:59Z</time>
      </trkpt>
      <trkpt lat="45.05889" lon="5.9103">
        <ele>1724.74</ele>
        <time>2018-09-02T09:09:10Z</time>
      </trkpt>
      <trkpt lat="45.05886" lon="5.91045">
        <ele>1725.7</ele>
        <time>2018-09-02T09:09:23Z</time>
      </trkpt>
      <trkpt lat="45.05889" lon="5.91067">
        <ele>1726.67</ele>
        <time>2018-09-02T09:09:36Z</time>
      </trkpt>
      <trkpt lat="45.05889" lon="5.91075">
        <ele>1727.63</ele>
        <time>2018-09-02T09:09:40Z</time>
      </trkpt>
      <trkpt lat="45.05896" lon="5.91091">
        <ele>1728.59</ele>
        <time>2018-09-02T09:09:52Z</time>
      </trkpt>
      <trkpt lat="45.05905" lon="5.91109">
        <ele>1729.55</ele>
        <time>2018-09-02T09:10:06Z</time>
      </trkpt>
      <trkpt lat="45.05915" lon="5.9112">
        <ele>1730.51</ele>
        <time>2018-09-02T09:10:19Z</time>
      </trkpt>
      <trkpt lat="45.05922" lon="5.91133">
        <ele>1730.99</ele>
        <time>2018-09-02T09:10:31Z</time>
      </trkpt>
      <trkpt lat="45.05927" lon="5.91143">
        <ele>1732.91</ele>
        <time>2018-09-02T09:10:43Z</time>
      </trkpt>
      <trkpt lat="45.05934" lon="5.9116">
        <ele>1734.36</ele>
        <time>2018-09-02T09:11:01Z</time>
      </trkpt>
      <trkpt lat="45.05947" lon="5.91179">
        <ele>1735.8</ele>
        <time>2018-09-02T09:11:15Z</time>
      </trkpt>
      <trkpt lat="45.05955" lon="5.91194">
        <ele>1736.28</ele>
        <time>2018-09-02T09:11:29Z</time>
      </trkpt>
      <trkpt lat="45.05959" lon="5.91212">
        <ele>1736.76</ele>
        <time>2018-09-02T09:11:44Z</time>
      </trkpt>
      <trkpt lat="45.05957" lon="5.9123">
        <ele>1736.28</ele>
        <time>2018-09-02T09:11:57Z</time>
      </trkpt>
      <trkpt lat="45.05957" lon="5.91252">
        <ele>1738.2</ele>
        <time>2018-09-02T09:12:12Z</time>
      </trkpt>
      <trkpt lat="45.05959" lon="5.9127">
        <ele>1740.12</ele>
        <time>2018-09-02T09:12:26Z</time>
      </trkpt>
      <trkpt lat="45.05959" lon="5.91279">
        <ele>1741.57</ele>
        <time>2018-09-02T09:12:33Z</time>
      </trkpt>
      <trkpt lat="45.05953" lon="5.91296">
        <ele>1742.53</ele>
        <time>2018-09-02T09:12:45Z</time>
      </trkpt>
      <trkpt lat="45.05953" lon="5.91297">
        <ele>1742.05</ele>
        <time>2018-09-02T09:12:46Z</time>
      </trkpt>
      <trkpt lat="45.05952" lon="5.91313">
        <ele>1743.49</ele>
        <time>2018-09-02T09:12:59Z</time>
      </trkpt>
      <trkpt lat="45.05949" lon="5.91332">
        <ele>1744.45</ele>
        <time>2018-09-02T09:13:13Z</time>
      </trkpt>
      <trkpt lat="45.05946" lon="5.91346">
        <ele>1745.89</ele>
        <time>2018-09-02T09:13:24Z</time>
      </trkpt>
      <trkpt lat="45.05951" lon="5.91361">
        <ele>1746.85</ele>
        <time>2018-09-02T09:13:35Z</time>
      </trkpt>
      <trkpt lat="45.0595" lon="5.91381">
        <ele>1748.29</ele>
        <time>2018-09-02T09:13:48Z</time>
      </trkpt>
      <trkpt lat="45.05952" lon="5.91397">
        <ele>1750.22</ele>
        <time>2018-09-02T09:14:03Z</time>
      </trkpt>
      <trkpt lat="45.05954" lon="5.91416">
        <ele>1751.18</ele>
        <time>2018-09-02T09:14:16Z</time>
      </trkpt>
      <trkpt lat="45.05954" lon="5.91431">
        <ele>1751.66</ele>
        <time>2018-09-02T09:14:29Z</time>
      </trkpt>
      <trkpt lat="45.05952" lon="5.91455">
        <ele>1752.14</ele>
        <time>2018-09-02T09:14:42Z</time>
      </trkpt>
      <trkpt lat="45.05952" lon="5.9146">
        <ele>1751.66</ele>
        <time>2018-09-02T09:14:46Z</time>
      </trkpt>
      <trkpt lat="45.05953" lon="5.91467">
        <ele>1751.66</ele>
        <time>2018-09-02T09:14:50Z</time>
      </trkpt>
      <trkpt lat="45.05954" lon="5.91472">
        <ele>1751.66</ele>
        <time>2018-09-02T09:14:54Z</time>
      </trkpt>
      <trkpt lat="45.05959" lon="5.91492">
        <ele>1754.06</ele>
        <time>2018-09-02T09:15:10Z</time>
      </trkpt>
      <trkpt lat="45.05964" lon="5.91507">
        <ele>1754.54</ele>
        <time>2018-09-02T09:15:22Z</time>
      </trkpt>
      <trkpt lat="45.05964" lon="5.91521">
        <ele>1755.02</ele>
        <time>2018-09-02T09:15:32Z</time>
      </trkpt>
      <trkpt lat="45.05965" lon="5.9153">
        <ele>1755.99</ele>
        <time>2018-09-02T09:15:38Z</time>
      </trkpt>
      <trkpt lat="45.05968" lon="5.9155">
        <ele>1758.39</ele>
        <time>2018-09-02T09:15:53Z</time>
      </trkpt>
      <trkpt lat="45.0597" lon="5.91565">
        <ele>1759.35</ele>
        <time>2018-09-02T09:16:07Z</time>
      </trkpt>
      <trkpt lat="45.05973" lon="5.91585">
        <ele>1760.31</ele>
        <time>2018-09-02T09:16:21Z</time>
      </trkpt>
      <trkpt lat="45.05973" lon="5.91604">
        <ele>1761.27</ele>
        <time>2018-09-02T09:16:34Z</time>
      </trkpt>
      <trkpt lat="45.05975" lon="5.9162">
        <ele>1761.75</ele>
        <time>2018-09-02T09:16:45Z</time>
      </trkpt>
      <trkpt lat="45.05975" lon="5.91638">
        <ele>1762.71</ele>
        <time>2018-09-02T09:16:57Z</time>
      </trkpt>
      <trkpt lat="45.05976" lon="5.91653">
        <ele>1764.16</ele>
        <time>2018-09-02T09:17:10Z</time>
      </trkpt>
      <trkpt lat="45.05978" lon="5.91672">
        <ele>1767.04</ele>
        <time>2018-09-02T09:17:25Z</time>
      </trkpt>
      <trkpt lat="45.05979" lon="5.91684">
        <ele>1768</ele>
        <time>2018-09-02T09:17:38Z</time>
      </trkpt>
      <trkpt lat="45.05982" lon="5.91694">
        <ele>1771.37</ele>
        <time>2018-09-02T09:17:49Z</time>
      </trkpt>
      <trkpt lat="45.05984" lon="5.91707">
        <ele>1772.81</ele>
        <time>2018-09-02T09:18:01Z</time>
      </trkpt>
      <trkpt lat="45.05987" lon="5.91707">
        <ele>1772.33</ele>
        <time>2018-09-02T09:18:18Z</time>
      </trkpt>
      <trkpt lat="45.05987" lon="5.91708">
        <ele>1772.81</ele>
        <time>2018-09-02T09:18:50Z</time>
      </trkpt>
      <trkpt lat="45.0598" lon="5.91708">
        <ele>1773.29</ele>
        <time>2018-09-02T09:19:07Z</time>
      </trkpt>
      <trkpt lat="45.05979" lon="5.91709">
        <ele>1773.29</ele>
        <time>2018-09-02T09:19:27Z</time>
      </trkpt>
      <trkpt lat="45.05984" lon="5.91717">
        <ele>1773.29</ele>
        <time>2018-09-02T09:19:49Z</time>
      </trkpt>
      <trkpt lat="45.05984" lon="5.91728">
        <ele>1774.25</ele>
        <time>2018-09-02T09:20:04Z</time>
      </trkpt>
      <trkpt lat="45.05984" lon="5.91743">
        <ele>1776.17</ele>
        <time>2018-09-02T09:20:20Z</time>
      </trkpt>
      <trkpt lat="45.05984" lon="5.91754">
        <ele>1778.1</ele>
        <time>2018-09-02T09:20:32Z</time>
      </trkpt>
      <trkpt lat="45.05985" lon="5.91765">
        <ele>1780.02</ele>
        <time>2018-09-02T09:20:45Z</time>
      </trkpt>
      <trkpt lat="45.05985" lon="5.91778">
        <ele>1782.42</ele>
        <time>2018-09-02T09:21:02Z</time>
      </trkpt>
      <trkpt lat="45.05983" lon="5.91787">
        <ele>1783.86</ele>
        <time>2018-09-02T09:21:13Z</time>
      </trkpt>
      <trkpt lat="45.05983" lon="5.91797">
        <ele>1785.31</ele>
        <time>2018-09-02T09:21:22Z</time>
      </trkpt>
      <trkpt lat="45.05982" lon="5.91814">
        <ele>1787.23</ele>
        <time>2018-09-02T09:21:36Z</time>
      </trkpt>
      <trkpt lat="45.05982" lon="5.91827">
        <ele>1789.15</ele>
        <time>2018-09-02T09:21:49Z</time>
      </trkpt>
      <trkpt lat="45.0598" lon="5.91834">
        <ele>1791.07</ele>
        <time>2018-09-02T09:22:02Z</time>
      </trkpt>
      <trkpt lat="45.0598" lon="5.91847">
        <ele>1794.44</ele>
        <time>2018-09-02T09:22:17Z</time>
      </trkpt>
      <trkpt lat="45.05978" lon="5.91861">
        <ele>1796.36</ele>
        <time>2018-09-02T09:22:33Z</time>
      </trkpt>
      <trkpt lat="45.05978" lon="5.91876">
        <ele>1798.76</ele>
        <time>2018-09-02T09:22:47Z</time>
      </trkpt>
      <trkpt lat="45.05981" lon="5.91889">
        <ele>1800.69</ele>
        <time>2018-09-02T09:23:01Z</time>
      </trkpt>
      <trkpt lat="45.05989" lon="5.919">
        <ele>1802.61</ele>
        <time>2018-09-02T09:23:15Z</time>
      </trkpt>
      <trkpt lat="45.05999" lon="5.91895">
        <ele>1805.97</ele>
        <time>2018-09-02T09:23:28Z</time>
      </trkpt>
      <trkpt lat="45.06007" lon="5.91895">
        <ele>1807.42</ele>
        <time>2018-09-02T09:23:39Z</time>
      </trkpt>
      <trkpt lat="45.06018" lon="5.91892">
        <ele>1809.82</ele>
        <time>2018-09-02T09:23:55Z</time>
      </trkpt>
      <trkpt lat="45.0603" lon="5.91873">
        <ele>1811.26</ele>
        <time>2018-09-02T09:24:10Z</time>
      </trkpt>
      <trkpt lat="45.06035" lon="5.91855">
        <ele>1812.7</ele>
        <time>2018-09-02T09:24:26Z</time>
      </trkpt>
      <trkpt lat="45.06039" lon="5.9184">
        <ele>1814.15</ele>
        <time>2018-09-02T09:24:40Z</time>
      </trkpt>
      <trkpt lat="45.06047" lon="5.91821">
        <ele>1815.11</ele>
        <time>2018-09-02T09:24:55Z</time>
      </trkpt>
      <trkpt lat="45.06049" lon="5.91801">
        <ele>1816.55</ele>
        <time>2018-09-02T09:25:10Z</time>
      </trkpt>
      <trkpt lat="45.0606" lon="5.91784">
        <ele>1818.95</ele>
        <time>2018-09-02T09:25:29Z</time>
      </trkpt>
      <trkpt lat="45.06067" lon="5.91775">
        <ele>1821.35</ele>
        <time>2018-09-02T09:25:44Z</time>
      </trkpt>
      <trkpt lat="45.06068" lon="5.91774">
        <ele>1821.84</ele>
        <time>2018-09-02T09:25:45Z</time>
      </trkpt>
      <trkpt lat="45.06081" lon="5.91767">
        <ele>1822.32</ele>
        <time>2018-09-02T09:26:01Z</time>
      </trkpt>
      <trkpt lat="45.06092" lon="5.9176">
        <ele>1821.84</ele>
        <time>2018-09-02T09:26:17Z</time>
      </trkpt>
      <trkpt lat="45.06093" lon="5.91759">
        <ele>1821.35</ele>
        <time>2018-09-02T09:26:18Z</time>
      </trkpt>
      <trkpt lat="45.06097" lon="5.91738">
        <ele>1822.32</ele>
        <time>2018-09-02T09:26:34Z</time>
      </trkpt>
      <trkpt lat="45.061" lon="5.91717">
        <ele>1822.8</ele>
        <time>2018-09-02T09:26:48Z</time>
      </trkpt>
      <trkpt lat="45.06105" lon="5.91709">
        <ele>1822.8</ele>
        <time>2018-09-02T09:26:55Z</time>
      </trkpt>
      <trkpt lat="45.06108" lon="5.91701">
        <ele>1822.32</ele>
        <time>2018-09-02T09:27:00Z</time>
      </trkpt>
      <trkpt lat="45.06108" lon="5.91674">
        <ele>1821.84</ele>
        <time>2018-09-02T09:27:17Z</time>
      </trkpt>
      <trkpt lat="45.06106" lon="5.91676">
        <ele>1821.84</ele>
        <time>2018-09-02T09:27:36Z</time>
      </trkpt>
      <trkpt lat="45.06109" lon="5.91673">
        <ele>1821.35</ele>
        <time>2018-09-02T09:28:01Z</time>
      </trkpt>
      <trkpt lat="45.0611" lon="5.91669">
        <ele>1821.84</ele>
        <time>2018-09-02T09:28:27Z</time>
      </trkpt>
      <trkpt lat="45.06111" lon="5.91653">
        <ele>1821.35</ele>
        <time>2018-09-02T09:28:42Z</time>
      </trkpt>
      <trkpt lat="45.06112" lon="5.91647">
        <ele>1820.87</ele>
        <time>2018-09-02T09:28:46Z</time>
      </trkpt>
      <trkpt lat="45.06113" lon="5.91643">
        <ele>1821.35</ele>
        <time>2018-09-02T09:28:49Z</time>
      </trkpt>
      <trkpt lat="45.06119" lon="5.9162">
        <ele>1820.39</ele>
        <time>2018-09-02T09:29:04Z</time>
      </trkpt>
      <trkpt lat="45.06123" lon="5.91603">
        <ele>1818.95</ele>
        <time>2018-09-02T09:29:15Z</time>
      </trkpt>
      <trkpt lat="45.06124" lon="5.91595">
        <ele>1818.47</ele>
        <time>2018-09-02T09:29:19Z</time>
      </trkpt>
      <trkpt lat="45.06128" lon="5.91567">
        <ele>1818.47</ele>
        <time>2018-09-02T09:29:37Z</time>
      </trkpt>
      <trkpt lat="45.06136" lon="5.91545">
        <ele>1818.95</ele>
        <time>2018-09-02T09:29:51Z</time>
      </trkpt>
      <trkpt lat="45.06145" lon="5.91523">
        <ele>1819.91</ele>
        <time>2018-09-02T09:30:06Z</time>
      </trkpt>
      <trkpt lat="45.06155" lon="5.91505">
        <ele>1821.84</ele>
        <time>2018-09-02T09:30:23Z</time>
      </trkpt>
      <trkpt lat="45.06165" lon="5.91485">
        <ele>1822.8</ele>
        <time>2018-09-02T09:30:39Z</time>
      </trkpt>
      <trkpt lat="45.06166" lon="5.91459">
        <ele>1823.76</ele>
        <time>2018-09-02T09:30:54Z</time>
      </trkpt>
      <trkpt lat="45.06171" lon="5.91445">
        <ele>1824.24</ele>
        <time>2018-09-02T09:31:04Z</time>
      </trkpt>
      <trkpt lat="45.06179" lon="5.91433">
        <ele>1826.16</ele>
        <time>2018-09-02T09:31:18Z</time>
      </trkpt>
      <trkpt lat="45.06186" lon="5.91435">
        <ele>1828.56</ele>
        <time>2018-09-02T09:31:34Z</time>
      </trkpt>
      <trkpt lat="45.0619" lon="5.91441">
        <ele>1830.01</ele>
        <time>2018-09-02T09:31:47Z</time>
      </trkpt>
      <trkpt lat="45.06198" lon="5.91457">
        <ele>1831.93</ele>
        <time>2018-09-02T09:31:59Z</time>
      </trkpt>
      <trkpt lat="45.06202" lon="5.91471">
        <ele>1833.37</ele>
        <time>2018-09-02T09:32:12Z</time>
      </trkpt>
      <trkpt lat="45.06207" lon="5.91486">
        <ele>1834.33</ele>
        <time>2018-09-02T09:32:25Z</time>
      </trkpt>
      <trkpt lat="45.06201" lon="5.91506">
        <ele>1834.81</ele>
        <time>2018-09-02T09:32:39Z</time>
      </trkpt>
      <trkpt lat="45.06206" lon="5.91525">
        <ele>1835.77</ele>
        <time>2018-09-02T09:32:51Z</time>
      </trkpt>
      <trkpt lat="45.0621" lon="5.91539">
        <ele>1836.26</ele>
        <time>2018-09-02T09:32:59Z</time>
      </trkpt>
      <trkpt lat="45.06211" lon="5.9155">
        <ele>1836.74</ele>
        <time>2018-09-02T09:33:07Z</time>
      </trkpt>
      <trkpt lat="45.06213" lon="5.91566">
        <ele>1836.74</ele>
        <time>2018-09-02T09:33:18Z</time>
      </trkpt>
      <trkpt lat="45.06215" lon="5.91586">
        <ele>1839.14</ele>
        <time>2018-09-02T09:33:34Z</time>
      </trkpt>
      <trkpt lat="45.06216" lon="5.91601">
        <ele>1839.62</ele>
        <time>2018-09-02T09:33:44Z</time>
      </trkpt>
      <trkpt lat="45.0622" lon="5.91619">
        <ele>1840.58</ele>
        <time>2018-09-02T09:33:59Z</time>
      </trkpt>
      <trkpt lat="45.06212" lon="5.91639">
        <ele>1842.02</ele>
        <time>2018-09-02T09:34:13Z</time>
      </trkpt>
      <trkpt lat="45.06212" lon="5.91658">
        <ele>1842.98</ele>
        <time>2018-09-02T09:34:28Z</time>
      </trkpt>
      <trkpt lat="45.06211" lon="5.91678">
        <ele>1844.91</ele>
        <time>2018-09-02T09:34:43Z</time>
      </trkpt>
      <trkpt lat="45.0621" lon="5.91686">
        <ele>1845.39</ele>
        <time>2018-09-02T09:34:49Z</time>
      </trkpt>
      <trkpt lat="45.06208" lon="5.91705">
        <ele>1846.83</ele>
        <time>2018-09-02T09:35:03Z</time>
      </trkpt>
      <trkpt lat="45.06215" lon="5.91724">
        <ele>1849.23</ele>
        <time>2018-09-02T09:35:18Z</time>
      </trkpt>
      <trkpt lat="45.06221" lon="5.91738">
        <ele>1850.68</ele>
        <time>2018-09-02T09:35:31Z</time>
      </trkpt>
      <trkpt lat="45.0623" lon="5.91762">
        <ele>1852.6</ele>
        <time>2018-09-02T09:35:47Z</time>
      </trkpt>
      <trkpt lat="45.06237" lon="5.91778">
        <ele>1854.04</ele>
        <time>2018-09-02T09:36:01Z</time>
      </trkpt>
      <trkpt lat="45.06242" lon="5.91783">
        <ele>1855.48</ele>
        <time>2018-09-02T09:36:09Z</time>
      </trkpt>
      <trkpt lat="45.06257" lon="5.91788">
        <ele>1856.92</ele>
        <time>2018-09-02T09:36:23Z</time>
      </trkpt>
      <trkpt lat="45.06264" lon="5.91797">
        <ele>1858.37</ele>
        <time>2018-09-02T09:36:34Z</time>
      </trkpt>
      <trkpt lat="45.06267" lon="5.918">
        <ele>1858.85</ele>
        <time>2018-09-02T09:36:37Z</time>
      </trkpt>
      <trkpt lat="45.06278" lon="5.91809">
        <ele>1859.81</ele>
        <time>2018-09-02T09:36:50Z</time>
      </trkpt>
      <trkpt lat="45.06279" lon="5.91812">
        <ele>1859.81</ele>
        <time>2018-09-02T09:36:52Z</time>
      </trkpt>
      <trkpt lat="45.06291" lon="5.91826">
        <ele>1861.25</ele>
        <time>2018-09-02T09:37:06Z</time>
      </trkpt>
      <trkpt lat="45.06293" lon="5.91829">
        <ele>1861.73</ele>
        <time>2018-09-02T09:37:09Z</time>
      </trkpt>
      <trkpt lat="45.06294" lon="5.91832">
        <ele>1862.21</ele>
        <time>2018-09-02T09:37:11Z</time>
      </trkpt>
      <trkpt lat="45.06297" lon="5.91837">
        <ele>1862.21</ele>
        <time>2018-09-02T09:37:15Z</time>
      </trkpt>
      <trkpt lat="45.06309" lon="5.91849">
        <ele>1863.65</ele>
        <time>2018-09-02T09:37:29Z</time>
      </trkpt>
      <trkpt lat="45.0632" lon="5.91861">
        <ele>1864.61</ele>
        <time>2018-09-02T09:37:44Z</time>
      </trkpt>
      <trkpt lat="45.06331" lon="5.91874">
        <ele>1866.06</ele>
        <time>2018-09-02T09:37:59Z</time>
      </trkpt>
      <trkpt lat="45.06338" lon="5.91892">
        <ele>1867.98</ele>
        <time>2018-09-02T09:38:13Z</time>
      </trkpt>
      <trkpt lat="45.06343" lon="5.91906">
        <ele>1868.46</ele>
        <time>2018-09-02T09:38:24Z</time>
      </trkpt>
      <trkpt lat="45.06344" lon="5.9191">
        <ele>1868.94</ele>
        <time>2018-09-02T09:38:27Z</time>
      </trkpt>
      <trkpt lat="45.06355" lon="5.91918">
        <ele>1869.9</ele>
        <time>2018-09-02T09:38:39Z</time>
      </trkpt>
      <trkpt lat="45.06358" lon="5.9192">
        <ele>1870.38</ele>
        <time>2018-09-02T09:38:42Z</time>
      </trkpt>
      <trkpt lat="45.06363" lon="5.91922">
        <ele>1871.34</ele>
        <time>2018-09-02T09:38:47Z</time>
      </trkpt>
      <trkpt lat="45.06377" lon="5.91924">
        <ele>1872.79</ele>
        <time>2018-09-02T09:39:01Z</time>
      </trkpt>
      <trkpt lat="45.06389" lon="5.91934">
        <ele>1874.71</ele>
        <time>2018-09-02T09:39:15Z</time>
      </trkpt>
      <trkpt lat="45.06391" lon="5.91937">
        <ele>1874.71</ele>
        <time>2018-09-02T09:39:18Z</time>
      </trkpt>
      <trkpt lat="45.06395" lon="5.91944">
        <ele>1875.19</ele>
        <time>2018-09-02T09:39:24Z</time>
      </trkpt>
      <trkpt lat="45.06397" lon="5.91947">
        <ele>1875.19</ele>
        <time>2018-09-02T09:39:26Z</time>
      </trkpt>
      <trkpt lat="45.0641" lon="5.91956">
        <ele>1875.67</ele>
        <time>2018-09-02T09:39:40Z</time>
      </trkpt>
      <trkpt lat="45.06425" lon="5.9197">
        <ele>1875.67</ele>
        <time>2018-09-02T09:39:55Z</time>
      </trkpt>
      <trkpt lat="45.06441" lon="5.91981">
        <ele>1874.71</ele>
        <time>2018-09-02T09:40:12Z</time>
      </trkpt>
      <trkpt lat="45.06453" lon="5.91996">
        <ele>1871.82</ele>
        <time>2018-09-02T09:40:28Z</time>
      </trkpt>
      <trkpt lat="45.06465" lon="5.92012">
        <ele>1868.94</ele>
        <time>2018-09-02T09:40:43Z</time>
      </trkpt>
      <trkpt lat="45.06481" lon="5.92021">
        <ele>1867.5</ele>
        <time>2018-09-02T09:40:58Z</time>
      </trkpt>
      <trkpt lat="45.06493" lon="5.9204">
        <ele>1866.54</ele>
        <time>2018-09-02T09:41:12Z</time>
      </trkpt>
      <trkpt lat="45.065" lon="5.92044">
        <ele>1866.54</ele>
        <time>2018-09-02T09:41:19Z</time>
      </trkpt>
      <trkpt lat="45.06505" lon="5.92047">
        <ele>1867.02</ele>
        <time>2018-09-02T09:41:24Z</time>
      </trkpt>
      <trkpt lat="45.06509" lon="5.9205">
        <ele>1867.5</ele>
        <time>2018-09-02T09:41:28Z</time>
      </trkpt>
      <trkpt lat="45.06525" lon="5.92059">
        <ele>1867.5</ele>
        <time>2018-09-02T09:41:42Z</time>
      </trkpt>
      <trkpt lat="45.06542" lon="5.92046">
        <ele>1866.54</ele>
        <time>2018-09-02T09:41:55Z</time>
      </trkpt>
      <trkpt lat="45.06547" lon="5.92049">
        <ele>1866.54</ele>
        <time>2018-09-02T09:42:01Z</time>
      </trkpt>
      <trkpt lat="45.0655" lon="5.92054">
        <ele>1866.54</ele>
        <time>2018-09-02T09:42:06Z</time>
      </trkpt>
      <trkpt lat="45.06555" lon="5.92064">
        <ele>1867.02</ele>
        <time>2018-09-02T09:42:14Z</time>
      </trkpt>
      <trkpt lat="45.06557" lon="5.92071">
        <ele>1867.5</ele>
        <time>2018-09-02T09:42:19Z</time>
      </trkpt>
      <trkpt lat="45.06563" lon="5.92091">
        <ele>1868.46</ele>
        <time>2018-09-02T09:42:33Z</time>
      </trkpt>
      <trkpt lat="45.06569" lon="5.921">
        <ele>1869.42</ele>
        <time>2018-09-02T09:42:46Z</time>
      </trkpt>
      <trkpt lat="45.0657" lon="5.921">
        <ele>1869.9</ele>
        <time>2018-09-02T09:42:47Z</time>
      </trkpt>
      <trkpt lat="45.06577" lon="5.92094">
        <ele>1870.38</ele>
        <time>2018-09-02T09:43:00Z</time>
      </trkpt>
      <trkpt lat="45.06588" lon="5.9208">
        <ele>1870.38</ele>
        <time>2018-09-02T09:43:18Z</time>
      </trkpt>
      <trkpt lat="45.06589" lon="5.92076">
        <ele>1870.38</ele>
        <time>2018-09-02T09:43:45Z</time>
      </trkpt>
      <trkpt lat="45.06586" lon="5.92069">
        <ele>1870.38</ele>
        <time>2018-09-02T09:44:01Z</time>
      </trkpt>
      <trkpt lat="45.06585" lon="5.92078">
        <ele>1870.86</ele>
        <time>2018-09-02T09:44:21Z</time>
      </trkpt>
      <trkpt lat="45.06586" lon="5.92084">
        <ele>1870.86</ele>
        <time>2018-09-02T09:44:38Z</time>
      </trkpt>
      <trkpt lat="45.06596" lon="5.92085">
        <ele>1871.34</ele>
        <time>2018-09-02T09:44:59Z</time>
      </trkpt>
      <trkpt lat="45.06593" lon="5.92084">
        <ele>1871.34</ele>
        <time>2018-09-02T09:45:17Z</time>
      </trkpt>
      <trkpt lat="45.066" lon="5.92085">
        <ele>1872.3</ele>
        <time>2018-09-02T09:45:24Z</time>
      </trkpt>
      <trkpt lat="45.06616" lon="5.92081">
        <ele>1871.34</ele>
        <time>2018-09-02T09:45:40Z</time>
      </trkpt>
      <trkpt lat="45.06634" lon="5.92083">
        <ele>1871.34</ele>
        <time>2018-09-02T09:45:58Z</time>
      </trkpt>
      <trkpt lat="45.06642" lon="5.92081">
        <ele>1870.86</ele>
        <time>2018-09-02T09:46:05Z</time>
      </trkpt>
      <trkpt lat="45.06656" lon="5.92073">
        <ele>1869.9</ele>
        <time>2018-09-02T09:46:18Z</time>
      </trkpt>
      <trkpt lat="45.0667" lon="5.92068">
        <ele>1866.54</ele>
        <time>2018-09-02T09:46:33Z</time>
      </trkpt>
      <trkpt lat="45.06678" lon="5.92067">
        <ele>1865.58</ele>
        <time>2018-09-02T09:46:47Z</time>
      </trkpt>
      <trkpt lat="45.06681" lon="5.92063">
        <ele>1866.06</ele>
        <time>2018-09-02T09:47:07Z</time>
      </trkpt>
      <trkpt lat="45.06688" lon="5.92071">
        <ele>1868.46</ele>
        <time>2018-09-02T09:47:21Z</time>
      </trkpt>
      <trkpt lat="45.06695" lon="5.92077">
        <ele>1870.38</ele>
        <time>2018-09-02T09:47:36Z</time>
      </trkpt>
      <trkpt lat="45.06696" lon="5.92073">
        <ele>1871.34</ele>
        <time>2018-09-02T09:47:50Z</time>
      </trkpt>
      <trkpt lat="45.06704" lon="5.92072">
        <ele>1871.34</ele>
        <time>2018-09-02T09:48:06Z</time>
      </trkpt>
      <trkpt lat="45.0671" lon="5.92061">
        <ele>1871.82</ele>
        <time>2018-09-02T09:48:21Z</time>
      </trkpt>
      <trkpt lat="45.0671" lon="5.92066">
        <ele>1871.82</ele>
        <time>2018-09-02T09:48:37Z</time>
      </trkpt>
      <trkpt lat="45.06713" lon="5.92066">
        <ele>1871.82</ele>
        <time>2018-09-02T09:48:57Z</time>
      </trkpt>
      <trkpt lat="45.06711" lon="5.92065">
        <ele>1871.82</ele>
        <time>2018-09-02T09:49:20Z</time>
      </trkpt>
      <trkpt lat="45.06706" lon="5.9207">
        <ele>1871.34</ele>
        <time>2018-09-02T09:49:31Z</time>
      </trkpt>
      <trkpt lat="45.06703" lon="5.92073">
        <ele>1871.34</ele>
        <time>2018-09-02T09:49:51Z</time>
      </trkpt>
      <trkpt lat="45.06701" lon="5.92081">
        <ele>1871.82</ele>
        <time>2018-09-02T09:50:05Z</time>
      </trkpt>
      <trkpt lat="45.06703" lon="5.92088">
        <ele>1873.27</ele>
        <time>2018-09-02T09:50:27Z</time>
      </trkpt>
      <trkpt lat="45.06709" lon="5.92103">
        <ele>1874.71</ele>
        <time>2018-09-02T09:50:45Z</time>
      </trkpt>
      <trkpt lat="45.06717" lon="5.92112">
        <ele>1876.15</ele>
        <time>2018-09-02T09:51:03Z</time>
      </trkpt>
      <trkpt lat="45.06724" lon="5.92118">
        <ele>1878.55</ele>
        <time>2018-09-02T09:51:19Z</time>
      </trkpt>
      <trkpt lat="45.0673" lon="5.92127">
        <ele>1880.96</ele>
        <time>2018-09-02T09:51:33Z</time>
      </trkpt>
      <trkpt lat="45.06739" lon="5.9213">
        <ele>1883.36</ele>
        <time>2018-09-02T09:51:48Z</time>
      </trkpt>
      <trkpt lat="45.06736" lon="5.92141">
        <ele>1885.76</ele>
        <time>2018-09-02T09:52:02Z</time>
      </trkpt>
      <trkpt lat="45.06744" lon="5.92143">
        <ele>1887.69</ele>
        <time>2018-09-02T09:52:19Z</time>
      </trkpt>
      <trkpt lat="45.0675" lon="5.92148">
        <ele>1889.61</ele>
        <time>2018-09-02T09:52:32Z</time>
      </trkpt>
      <trkpt lat="45.06755" lon="5.92152">
        <ele>1892.01</ele>
        <time>2018-09-02T09:52:46Z</time>
      </trkpt>
      <trkpt lat="45.06757" lon="5.92152">
        <ele>1893.45</ele>
        <time>2018-09-02T09:52:59Z</time>
      </trkpt>
      <trkpt lat="45.06758" lon="5.92149">
        <ele>1892.97</ele>
        <time>2018-09-02T09:53:19Z</time>
      </trkpt>
      <trkpt lat="45.06752" lon="5.92159">
        <ele>1893.93</ele>
        <time>2018-09-02T09:53:42Z</time>
      </trkpt>
      <trkpt lat="45.06745" lon="5.92174">
        <ele>1896.34</ele>
        <time>2018-09-02T09:53:59Z</time>
      </trkpt>
      <trkpt lat="45.06745" lon="5.92188">
        <ele>1897.3</ele>
        <time>2018-09-02T09:54:15Z</time>
      </trkpt>
      <trkpt lat="45.06754" lon="5.922">
        <ele>1899.7</ele>
        <time>2018-09-02T09:54:30Z</time>
      </trkpt>
      <trkpt lat="45.06757" lon="5.92214">
        <ele>1901.63</ele>
        <time>2018-09-02T09:54:47Z</time>
      </trkpt>
      <trkpt lat="45.0676" lon="5.92221">
        <ele>1904.03</ele>
        <time>2018-09-02T09:55:02Z</time>
      </trkpt>
      <trkpt lat="45.0676" lon="5.92225">
        <ele>1904.51</ele>
        <time>2018-09-02T09:55:20Z</time>
      </trkpt>
      <trkpt lat="45.06764" lon="5.92233">
        <ele>1905.95</ele>
        <time>2018-09-02T09:55:36Z</time>
      </trkpt>
      <trkpt lat="45.06769" lon="5.92238">
        <ele>1906.43</ele>
        <time>2018-09-02T09:55:50Z</time>
      </trkpt>
      <trkpt lat="45.06773" lon="5.92256">
        <ele>1905.47</ele>
        <time>2018-09-02T09:56:05Z</time>
      </trkpt>
      <trkpt lat="45.06775" lon="5.92272">
        <ele>1906.91</ele>
        <time>2018-09-02T09:56:22Z</time>
      </trkpt>
      <trkpt lat="45.06776" lon="5.92283">
        <ele>1908.83</ele>
        <time>2018-09-02T09:56:37Z</time>
      </trkpt>
      <trkpt lat="45.06779" lon="5.92285">
        <ele>1909.8</ele>
        <time>2018-09-02T09:56:52Z</time>
      </trkpt>
      <trkpt lat="45.06783" lon="5.92295">
        <ele>1910.28</ele>
        <time>2018-09-02T09:57:07Z</time>
      </trkpt>
      <trkpt lat="45.06784" lon="5.9231">
        <ele>1911.72</ele>
        <time>2018-09-02T09:57:22Z</time>
      </trkpt>
      <trkpt lat="45.06788" lon="5.9232">
        <ele>1913.16</ele>
        <time>2018-09-02T09:57:37Z</time>
      </trkpt>
      <trkpt lat="45.06791" lon="5.9233">
        <ele>1915.08</ele>
        <time>2018-09-02T09:57:51Z</time>
      </trkpt>
      <trkpt lat="45.06793" lon="5.92336">
        <ele>1917.01</ele>
        <time>2018-09-02T09:58:02Z</time>
      </trkpt>
      <trkpt lat="45.06798" lon="5.92343">
        <ele>1919.41</ele>
        <time>2018-09-02T09:58:19Z</time>
      </trkpt>
      <trkpt lat="45.06801" lon="5.9235">
        <ele>1921.33</ele>
        <time>2018-09-02T09:58:31Z</time>
      </trkpt>
      <trkpt lat="45.06802" lon="5.92354">
        <ele>1923.74</ele>
        <time>2018-09-02T09:58:48Z</time>
      </trkpt>
      <trkpt lat="45.06806" lon="5.92361">
        <ele>1925.66</ele>
        <time>2018-09-02T09:59:03Z</time>
      </trkpt>
      <trkpt lat="45.06809" lon="5.92359">
        <ele>1927.1</ele>
        <time>2018-09-02T09:59:21Z</time>
      </trkpt>
      <trkpt lat="45.0681" lon="5.9236">
        <ele>1927.58</ele>
        <time>2018-09-02T09:59:43Z</time>
      </trkpt>
      <trkpt lat="45.06809" lon="5.92365">
        <ele>1928.54</ele>
        <time>2018-09-02T09:59:58Z</time>
      </trkpt>
      <trkpt lat="45.06816" lon="5.92365">
        <ele>1930.95</ele>
        <time>2018-09-02T10:00:11Z</time>
      </trkpt>
      <trkpt lat="45.06823" lon="5.92369">
        <ele>1934.31</ele>
        <time>2018-09-02T10:00:27Z</time>
      </trkpt>
      <trkpt lat="45.06827" lon="5.92374">
        <ele>1936.71</ele>
        <time>2018-09-02T10:00:43Z</time>
      </trkpt>
      <trkpt lat="45.06828" lon="5.92381">
        <ele>1938.16</ele>
        <time>2018-09-02T10:00:58Z</time>
      </trkpt>
      <trkpt lat="45.06835" lon="5.92383">
        <ele>1939.6</ele>
        <time>2018-09-02T10:01:13Z</time>
      </trkpt>
      <trkpt lat="45.06835" lon="5.92384">
        <ele>1942</ele>
        <time>2018-09-02T10:01:24Z</time>
      </trkpt>
      <trkpt lat="45.06839" lon="5.9239">
        <ele>1944.4</ele>
        <time>2018-09-02T10:01:38Z</time>
      </trkpt>
      <trkpt lat="45.06843" lon="5.92393">
        <ele>1946.33</ele>
        <time>2018-09-02T10:01:49Z</time>
      </trkpt>
      <trkpt lat="45.06843" lon="5.92399">
        <ele>1947.77</ele>
        <time>2018-09-02T10:02:04Z</time>
      </trkpt>
      <trkpt lat="45.06848" lon="5.92406">
        <ele>1950.17</ele>
        <time>2018-09-02T10:02:19Z</time>
      </trkpt>
      <trkpt lat="45.06856" lon="5.92407">
        <ele>1953.54</ele>
        <time>2018-09-02T10:02:35Z</time>
      </trkpt>
      <trkpt lat="45.06863" lon="5.92399">
        <ele>1954.5</ele>
        <time>2018-09-02T10:02:47Z</time>
      </trkpt>
      <trkpt lat="45.06869" lon="5.924">
        <ele>1956.9</ele>
        <time>2018-09-02T10:03:03Z</time>
      </trkpt>
      <trkpt lat="45.06875" lon="5.92402">
        <ele>1956.9</ele>
        <time>2018-09-02T10:03:17Z</time>
      </trkpt>
      <trkpt lat="45.06877" lon="5.92399">
        <ele>1957.38</ele>
        <time>2018-09-02T10:03:35Z</time>
      </trkpt>
      <trkpt lat="45.06882" lon="5.924">
        <ele>1956.9</ele>
        <time>2018-09-02T10:03:49Z</time>
      </trkpt>
      <trkpt lat="45.06886" lon="5.924">
        <ele>1956.9</ele>
        <time>2018-09-02T10:04:10Z</time>
      </trkpt>
      <trkpt lat="45.06892" lon="5.92402">
        <ele>1956.9</ele>
        <time>2018-09-02T10:04:22Z</time>
      </trkpt>
      <trkpt lat="45.06906" lon="5.92411">
        <ele>1955.46</ele>
        <time>2018-09-02T10:04:37Z</time>
      </trkpt>
      <trkpt lat="45.06912" lon="5.92414">
        <ele>1954.98</ele>
        <time>2018-09-02T10:04:43Z</time>
      </trkpt>
      <trkpt lat="45.06918" lon="5.92427">
        <ele>1956.9</ele>
        <time>2018-09-02T10:04:57Z</time>
      </trkpt>
      <trkpt lat="45.06927" lon="5.92439">
        <ele>1958.82</ele>
        <time>2018-09-02T10:05:14Z</time>
      </trkpt>
      <trkpt lat="45.06928" lon="5.92449">
        <ele>1962.19</ele>
        <time>2018-09-02T10:05:28Z</time>
      </trkpt>
      <trkpt lat="45.06924" lon="5.92464">
        <ele>1962.67</ele>
        <time>2018-09-02T10:05:43Z</time>
      </trkpt>
      <trkpt lat="45.06928" lon="5.92478">
        <ele>1964.11</ele>
        <time>2018-09-02T10:06:00Z</time>
      </trkpt>
      <trkpt lat="45.06936" lon="5.92481">
        <ele>1962.67</ele>
        <time>2018-09-02T10:06:15Z</time>
      </trkpt>
      <trkpt lat="45.06936" lon="5.92479">
        <ele>1963.15</ele>
        <time>2018-09-02T10:06:35Z</time>
      </trkpt>
      <trkpt lat="45.06949" lon="5.92489">
        <ele>1959.3</ele>
        <time>2018-09-02T10:06:50Z</time>
      </trkpt>
      <trkpt lat="45.06959" lon="5.92487">
        <ele>1956.42</ele>
        <time>2018-09-02T10:07:04Z</time>
      </trkpt>
      <trkpt lat="45.06966" lon="5.925">
        <ele>1956.42</ele>
        <time>2018-09-02T10:07:19Z</time>
      </trkpt>
      <trkpt lat="45.06967" lon="5.92502">
        <ele>1958.34</ele>
        <time>2018-09-02T10:07:33Z</time>
      </trkpt>
      <trkpt lat="45.06974" lon="5.92505">
        <ele>1958.82</ele>
        <time>2018-09-02T10:07:52Z</time>
      </trkpt>
      <trkpt lat="45.06981" lon="5.92515">
        <ele>1962.19</ele>
        <time>2018-09-02T10:08:04Z</time>
      </trkpt>
      <trkpt lat="45.06987" lon="5.92526">
        <ele>1964.11</ele>
        <time>2018-09-02T10:08:17Z</time>
      </trkpt>
      <trkpt lat="45.0699" lon="5.92534">
        <ele>1966.03</ele>
        <time>2018-09-02T10:08:31Z</time>
      </trkpt>
      <trkpt lat="45.06994" lon="5.92546">
        <ele>1967.96</ele>
        <time>2018-09-02T10:08:44Z</time>
      </trkpt>
      <trkpt lat="45.07004" lon="5.92549">
        <ele>1969.4</ele>
        <time>2018-09-02T10:08:58Z</time>
      </trkpt>
      <trkpt lat="45.07015" lon="5.92551">
        <ele>1971.32</ele>
        <time>2018-09-02T10:09:15Z</time>
      </trkpt>
      <trkpt lat="45.07021" lon="5.92551">
        <ele>1972.76</ele>
        <time>2018-09-02T10:09:30Z</time>
      </trkpt>
      <trkpt lat="45.0703" lon="5.92554">
        <ele>1975.65</ele>
        <time>2018-09-02T10:09:48Z</time>
      </trkpt>
      <trkpt lat="45.07039" lon="5.92554">
        <ele>1978.05</ele>
        <time>2018-09-02T10:10:06Z</time>
      </trkpt>
      <trkpt lat="45.07038" lon="5.92563">
        <ele>1980.45</ele>
        <time>2018-09-02T10:10:20Z</time>
      </trkpt>
      <trkpt lat="45.07044" lon="5.92567">
        <ele>1981.9</ele>
        <time>2018-09-02T10:10:34Z</time>
      </trkpt>
      <trkpt lat="45.07049" lon="5.9257">
        <ele>1984.78</ele>
        <time>2018-09-02T10:10:50Z</time>
      </trkpt>
      <trkpt lat="45.07049" lon="5.92576">
        <ele>1986.7</ele>
        <time>2018-09-02T10:11:04Z</time>
      </trkpt>
      <trkpt lat="45.07052" lon="5.92583">
        <ele>1989.1</ele>
        <time>2018-09-02T10:11:22Z</time>
      </trkpt>
      <trkpt lat="45.07056" lon="5.92585">
        <ele>1991.51</ele>
        <time>2018-09-02T10:11:32Z</time>
      </trkpt>
      <trkpt lat="45.07063" lon="5.92582">
        <ele>1992.95</ele>
        <time>2018-09-02T10:11:54Z</time>
      </trkpt>
      <trkpt lat="45.07068" lon="5.92587">
        <ele>1994.87</ele>
        <time>2018-09-02T10:12:08Z</time>
      </trkpt>
      <trkpt lat="45.07072" lon="5.9259">
        <ele>1997.28</ele>
        <time>2018-09-02T10:12:19Z</time>
      </trkpt>
      <trkpt lat="45.07075" lon="5.92592">
        <ele>1998.72</ele>
        <time>2018-09-02T10:12:33Z</time>
      </trkpt>
      <trkpt lat="45.07082" lon="5.92591">
        <ele>2001.12</ele>
        <time>2018-09-02T10:12:46Z</time>
      </trkpt>
      <trkpt lat="45.07086" lon="5.92591">
        <ele>2003.04</ele>
        <time>2018-09-02T10:13:00Z</time>
      </trkpt>
      <trkpt lat="45.07092" lon="5.9259">
        <ele>2004.97</ele>
        <time>2018-09-02T10:13:24Z</time>
      </trkpt>
      <trkpt lat="45.071" lon="5.92591">
        <ele>2006.89</ele>
        <time>2018-09-02T10:13:38Z</time>
      </trkpt>
      <trkpt lat="45.07104" lon="5.92595">
        <ele>2008.81</ele>
        <time>2018-09-02T10:13:51Z</time>
      </trkpt>
      <trkpt lat="45.0711" lon="5.92596">
        <ele>2010.73</ele>
        <time>2018-09-02T10:14:06Z</time>
      </trkpt>
      <trkpt lat="45.0712" lon="5.92602">
        <ele>2012.66</ele>
        <time>2018-09-02T10:14:23Z</time>
      </trkpt>
      <trkpt lat="45.0713" lon="5.92606">
        <ele>2015.06</ele>
        <time>2018-09-02T10:14:38Z</time>
      </trkpt>
      <trkpt lat="45.07139" lon="5.92612">
        <ele>2017.46</ele>
        <time>2018-09-02T10:14:55Z</time>
      </trkpt>
      <trkpt lat="45.0715" lon="5.92612">
        <ele>2018.43</ele>
        <time>2018-09-02T10:15:09Z</time>
      </trkpt>
      <trkpt lat="45.07157" lon="5.92616">
        <ele>2020.83</ele>
        <time>2018-09-02T10:15:25Z</time>
      </trkpt>
      <trkpt lat="45.07164" lon="5.92618">
        <ele>2023.23</ele>
        <time>2018-09-02T10:15:38Z</time>
      </trkpt>
      <trkpt lat="45.07172" lon="5.9262">
        <ele>2025.64</ele>
        <time>2018-09-02T10:15:54Z</time>
      </trkpt>
      <trkpt lat="45.0718" lon="5.92622">
        <ele>2027.56</ele>
        <time>2018-09-02T10:16:08Z</time>
      </trkpt>
      <trkpt lat="45.07188" lon="5.92624">
        <ele>2029</ele>
        <time>2018-09-02T10:16:23Z</time>
      </trkpt>
      <trkpt lat="45.07198" lon="5.92627">
        <ele>2031.4</ele>
        <time>2018-09-02T10:16:41Z</time>
      </trkpt>
      <trkpt lat="45.07207" lon="5.92632">
        <ele>2032.84</ele>
        <time>2018-09-02T10:16:59Z</time>
      </trkpt>
      <trkpt lat="45.07215" lon="5.92635">
        <ele>2035.25</ele>
        <time>2018-09-02T10:17:14Z</time>
      </trkpt>
      <trkpt lat="45.07223" lon="5.92638">
        <ele>2038.13</ele>
        <time>2018-09-02T10:17:29Z</time>
      </trkpt>
      <trkpt lat="45.07231" lon="5.92641">
        <ele>2039.57</ele>
        <time>2018-09-02T10:17:45Z</time>
      </trkpt>
      <trkpt lat="45.07238" lon="5.92644">
        <ele>2041.98</ele>
        <time>2018-09-02T10:18:01Z</time>
      </trkpt>
      <trkpt lat="45.07244" lon="5.92645">
        <ele>2043.9</ele>
        <time>2018-09-02T10:18:16Z</time>
      </trkpt>
      <trkpt lat="45.07251" lon="5.92646">
        <ele>2045.82</ele>
        <time>2018-09-02T10:18:33Z</time>
      </trkpt>
      <trkpt lat="45.0726" lon="5.92649">
        <ele>2048.71</ele>
        <time>2018-09-02T10:18:51Z</time>
      </trkpt>
      <trkpt lat="45.07267" lon="5.92652">
        <ele>2050.63</ele>
        <time>2018-09-02T10:19:04Z</time>
      </trkpt>
      <trkpt lat="45.07273" lon="5.92654">
        <ele>2052.55</ele>
        <time>2018-09-02T10:19:18Z</time>
      </trkpt>
      <trkpt lat="45.0728" lon="5.92656">
        <ele>2054.47</ele>
        <time>2018-09-02T10:19:33Z</time>
      </trkpt>
      <trkpt lat="45.07289" lon="5.92661">
        <ele>2056.4</ele>
        <time>2018-09-02T10:19:47Z</time>
      </trkpt>
      <trkpt lat="45.07295" lon="5.92662">
        <ele>2057.84</ele>
        <time>2018-09-02T10:19:59Z</time>
      </trkpt>
      <trkpt lat="45.073" lon="5.92664">
        <ele>2059.28</ele>
        <time>2018-09-02T10:20:10Z</time>
      </trkpt>
      <trkpt lat="45.0731" lon="5.92665">
        <ele>2061.68</ele>
        <time>2018-09-02T10:20:26Z</time>
      </trkpt>
      <trkpt lat="45.07319" lon="5.92668">
        <ele>2064.09</ele>
        <time>2018-09-02T10:20:43Z</time>
      </trkpt>
      <trkpt lat="45.07326" lon="5.92671">
        <ele>2065.53</ele>
        <time>2018-09-02T10:20:57Z</time>
      </trkpt>
      <trkpt lat="45.07335" lon="5.92673">
        <ele>2067.45</ele>
        <time>2018-09-02T10:21:12Z</time>
      </trkpt>
      <trkpt lat="45.07338" lon="5.92671">
        <ele>2068.41</ele>
        <time>2018-09-02T10:21:26Z</time>
      </trkpt>
      <trkpt lat="45.07337" lon="5.92668">
        <ele>2068.41</ele>
        <time>2018-09-02T10:21:49Z</time>
      </trkpt>
      <trkpt lat="45.07337" lon="5.92668">
        <ele>2068.89</ele>
        <time>2018-09-02T10:22:10Z</time>
      </trkpt>
      <trkpt lat="45.07339" lon="5.9267">
        <ele>2068.89</ele>
        <time>2018-09-02T10:22:37Z</time>
      </trkpt>
      <trkpt lat="45.07339" lon="5.9267">
        <ele>2068.89</ele>
        <time>2018-09-02T10:23:02Z</time>
      </trkpt>
      <trkpt lat="45.07339" lon="5.92668">
        <ele>2068.41</ele>
        <time>2018-09-02T10:23:26Z</time>
      </trkpt>
      <trkpt lat="45.07339" lon="5.92668">
        <ele>2068.41</ele>
        <time>2018-09-02T10:23:50Z</time>
      </trkpt>
      <trkpt lat="45.07337" lon="5.92668">
        <ele>2068.41</ele>
        <time>2018-09-02T10:24:20Z</time>
      </trkpt>
      <trkpt lat="45.07338" lon="5.92669">
        <ele>2068.41</ele>
        <time>2018-09-02T10:24:40Z</time>
      </trkpt>
      <trkpt lat="45.07348" lon="5.92674">
        <ele>2070.82</ele>
        <time>2018-09-02T10:24:56Z</time>
      </trkpt>
      <trkpt lat="45.07357" lon="5.92674">
        <ele>2072.74</ele>
        <time>2018-09-02T10:25:10Z</time>
      </trkpt>
      <trkpt lat="45.07365" lon="5.92676">
        <ele>2074.66</ele>
        <time>2018-09-02T10:25:22Z</time>
      </trkpt>
      <trkpt lat="45.07375" lon="5.92677">
        <ele>2076.1</ele>
        <time>2018-09-02T10:25:38Z</time>
      </trkpt>
      <trkpt lat="45.07383" lon="5.92675">
        <ele>2077.55</ele>
        <time>2018-09-02T10:25:52Z</time>
      </trkpt>
      <trkpt lat="45.07389" lon="5.92676">
        <ele>2079.95</ele>
        <time>2018-09-02T10:26:04Z</time>
      </trkpt>
      <trkpt lat="45.07399" lon="5.92675">
        <ele>2081.39</ele>
        <time>2018-09-02T10:26:20Z</time>
      </trkpt>
      <trkpt lat="45.07407" lon="5.92676">
        <ele>2083.31</ele>
        <time>2018-09-02T10:26:35Z</time>
      </trkpt>
      <trkpt lat="45.07417" lon="5.92674">
        <ele>2084.76</ele>
        <time>2018-09-02T10:26:51Z</time>
      </trkpt>
      <trkpt lat="45.07424" lon="5.9267">
        <ele>2087.16</ele>
        <time>2018-09-02T10:27:05Z</time>
      </trkpt>
      <trkpt lat="45.07431" lon="5.9267">
        <ele>2089.08</ele>
        <time>2018-09-02T10:27:21Z</time>
      </trkpt>
      <trkpt lat="45.07436" lon="5.92671">
        <ele>2091.49</ele>
        <time>2018-09-02T10:27:37Z</time>
      </trkpt>
      <trkpt lat="45.07442" lon="5.92672">
        <ele>2093.89</ele>
        <time>2018-09-02T10:27:50Z</time>
      </trkpt>
      <trkpt lat="45.07446" lon="5.92678">
        <ele>2096.29</ele>
        <time>2018-09-02T10:28:05Z</time>
      </trkpt>
      <trkpt lat="45.0745" lon="5.92683">
        <ele>2097.73</ele>
        <time>2018-09-02T10:28:18Z</time>
      </trkpt>
      <trkpt lat="45.07457" lon="5.92688">
        <ele>2100.14</ele>
        <time>2018-09-02T10:28:35Z</time>
      </trkpt>
      <trkpt lat="45.07463" lon="5.92693">
        <ele>2102.06</ele>
        <time>2018-09-02T10:28:49Z</time>
      </trkpt>
      <trkpt lat="45.0747" lon="5.92697">
        <ele>2103.5</ele>
        <time>2018-09-02T10:29:02Z</time>
      </trkpt>
      <trkpt lat="45.07475" lon="5.927">
        <ele>2105.91</ele>
        <time>2018-09-02T10:29:17Z</time>
      </trkpt>
      <trkpt lat="45.07481" lon="5.92704">
        <ele>2108.79</ele>
        <time>2018-09-02T10:29:33Z</time>
      </trkpt>
      <trkpt lat="45.07487" lon="5.92707">
        <ele>2110.71</ele>
        <time>2018-09-02T10:29:48Z</time>
      </trkpt>
      <trkpt lat="45.07491" lon="5.92709">
        <ele>2113.12</ele>
        <time>2018-09-02T10:30:03Z</time>
      </trkpt>
      <trkpt lat="45.07497" lon="5.92714">
        <ele>2115.52</ele>
        <time>2018-09-02T10:30:19Z</time>
      </trkpt>
      <trkpt lat="45.07501" lon="5.9272">
        <ele>2117.92</ele>
        <time>2018-09-02T10:30:33Z</time>
      </trkpt>
      <trkpt lat="45.07506" lon="5.92726">
        <ele>2120.32</ele>
        <time>2018-09-02T10:30:47Z</time>
      </trkpt>
      <trkpt lat="45.07512" lon="5.92734">
        <ele>2122.73</ele>
        <time>2018-09-02T10:31:04Z</time>
      </trkpt>
      <trkpt lat="45.07518" lon="5.92747">
        <ele>2124.65</ele>
        <time>2018-09-02T10:31:21Z</time>
      </trkpt>
      <trkpt lat="45.07524" lon="5.92758">
        <ele>2126.57</ele>
        <time>2018-09-02T10:31:35Z</time>
      </trkpt>
      <trkpt lat="45.0753" lon="5.92765">
        <ele>2128.5</ele>
        <time>2018-09-02T10:31:49Z</time>
      </trkpt>
      <trkpt lat="45.07535" lon="5.92774">
        <ele>2131.38</ele>
        <time>2018-09-02T10:32:05Z</time>
      </trkpt>
      <trkpt lat="45.07538" lon="5.92779">
        <ele>2132.82</ele>
        <time>2018-09-02T10:32:20Z</time>
      </trkpt>
      <trkpt lat="45.07539" lon="5.92776">
        <ele>2132.34</ele>
        <time>2018-09-02T10:32:41Z</time>
      </trkpt>
      <trkpt lat="45.0754" lon="5.92785">
        <ele>2133.3</ele>
        <time>2018-09-02T10:33:02Z</time>
      </trkpt>
      <trkpt lat="45.07539" lon="5.92782">
        <ele>2134.26</ele>
        <time>2018-09-02T10:33:26Z</time>
      </trkpt>
      <trkpt lat="45.07539" lon="5.92781">
        <ele>2134.26</ele>
        <time>2018-09-02T10:33:47Z</time>
      </trkpt>
      <trkpt lat="45.0754" lon="5.92782">
        <ele>2133.3</ele>
        <time>2018-09-02T10:34:06Z</time>
      </trkpt>
      <trkpt lat="45.07544" lon="5.92792">
        <ele>2133.78</ele>
        <time>2018-09-02T10:34:21Z</time>
      </trkpt>
      <trkpt lat="45.07553" lon="5.92808">
        <ele>2136.19</ele>
        <time>2018-09-02T10:34:40Z</time>
      </trkpt>
      <trkpt lat="45.07562" lon="5.92815">
        <ele>2138.11</ele>
        <time>2018-09-02T10:34:56Z</time>
      </trkpt>
      <trkpt lat="45.07569" lon="5.92816">
        <ele>2140.99</ele>
        <time>2018-09-02T10:35:11Z</time>
      </trkpt>
      <trkpt lat="45.07575" lon="5.92822">
        <ele>2143.88</ele>
        <time>2018-09-02T10:35:25Z</time>
      </trkpt>
      <trkpt lat="45.07576" lon="5.92823">
        <ele>2143.88</ele>
        <time>2018-09-02T10:35:26Z</time>
      </trkpt>
      <trkpt lat="45.07583" lon="5.92828">
        <ele>2145.8</ele>
        <time>2018-09-02T10:35:39Z</time>
      </trkpt>
      <trkpt lat="45.07588" lon="5.9283">
        <ele>2148.2</ele>
        <time>2018-09-02T10:35:51Z</time>
      </trkpt>
      <trkpt lat="45.07588" lon="5.92831">
        <ele>2148.2</ele>
        <time>2018-09-02T10:35:52Z</time>
      </trkpt>
      <trkpt lat="45.07594" lon="5.92843">
        <ele>2150.13</ele>
        <time>2018-09-02T10:36:07Z</time>
      </trkpt>
      <trkpt lat="45.07602" lon="5.92851">
        <ele>2152.53</ele>
        <time>2018-09-02T10:36:22Z</time>
      </trkpt>
      <trkpt lat="45.07612" lon="5.92857">
        <ele>2153.49</ele>
        <time>2018-09-02T10:36:36Z</time>
      </trkpt>
      <trkpt lat="45.0762" lon="5.92859">
        <ele>2155.41</ele>
        <time>2018-09-02T10:36:49Z</time>
      </trkpt>
      <trkpt lat="45.07631" lon="5.92862">
        <ele>2157.82</ele>
        <time>2018-09-02T10:37:06Z</time>
      </trkpt>
      <trkpt lat="45.07638" lon="5.92864">
        <ele>2157.82</ele>
        <time>2018-09-02T10:37:15Z</time>
      </trkpt>
      <trkpt lat="45.0764" lon="5.92864">
        <ele>2158.3</ele>
        <time>2018-09-02T10:37:18Z</time>
      </trkpt>
      <trkpt lat="45.07651" lon="5.92867">
        <ele>2159.74</ele>
        <time>2018-09-02T10:37:34Z</time>
      </trkpt>
      <trkpt lat="45.07659" lon="5.9287">
        <ele>2161.66</ele>
        <time>2018-09-02T10:37:48Z</time>
      </trkpt>
      <trkpt lat="45.07665" lon="5.92876">
        <ele>2164.06</ele>
        <time>2018-09-02T10:38:05Z</time>
      </trkpt>
      <trkpt lat="45.07669" lon="5.92875">
        <ele>2166.95</ele>
        <time>2018-09-02T10:38:20Z</time>
      </trkpt>
      <trkpt lat="45.07673" lon="5.9288">
        <ele>2168.39</ele>
        <time>2018-09-02T10:38:33Z</time>
      </trkpt>
      <trkpt lat="45.07679" lon="5.92884">
        <ele>2170.79</ele>
        <time>2018-09-02T10:38:48Z</time>
      </trkpt>
      <trkpt lat="45.07688" lon="5.92887">
        <ele>2172.72</ele>
        <time>2018-09-02T10:39:02Z</time>
      </trkpt>
      <trkpt lat="45.07697" lon="5.9289">
        <ele>2174.64</ele>
        <time>2018-09-02T10:39:19Z</time>
      </trkpt>
      <trkpt lat="45.07707" lon="5.92894">
        <ele>2176.08</ele>
        <time>2018-09-02T10:39:36Z</time>
      </trkpt>
      <trkpt lat="45.07716" lon="5.92896">
        <ele>2177.52</ele>
        <time>2018-09-02T10:39:52Z</time>
      </trkpt>
      <trkpt lat="45.07726" lon="5.92899">
        <ele>2180.41</ele>
        <time>2018-09-02T10:40:09Z</time>
      </trkpt>
      <trkpt lat="45.07731" lon="5.92903">
        <ele>2182.33</ele>
        <time>2018-09-02T10:40:23Z</time>
      </trkpt>
      <trkpt lat="45.07739" lon="5.92905">
        <ele>2184.25</ele>
        <time>2018-09-02T10:40:37Z</time>
      </trkpt>
      <trkpt lat="45.07746" lon="5.92906">
        <ele>2186.18</ele>
        <time>2018-09-02T10:40:52Z</time>
      </trkpt>
      <trkpt lat="45.07754" lon="5.92908">
        <ele>2188.1</ele>
        <time>2018-09-02T10:41:06Z</time>
      </trkpt>
      <trkpt lat="45.0776" lon="5.92911">
        <ele>2190.5</ele>
        <time>2018-09-02T10:41:19Z</time>
      </trkpt>
      <trkpt lat="45.07765" lon="5.92912">
        <ele>2192.9</ele>
        <time>2018-09-02T10:41:34Z</time>
      </trkpt>
      <trkpt lat="45.07775" lon="5.92913">
        <ele>2194.83</ele>
        <time>2018-09-02T10:41:47Z</time>
      </trkpt>
      <trkpt lat="45.07785" lon="5.92923">
        <ele>2195.31</ele>
        <time>2018-09-02T10:42:04Z</time>
      </trkpt>
      <trkpt lat="45.07795" lon="5.92922">
        <ele>2197.23</ele>
        <time>2018-09-02T10:42:20Z</time>
      </trkpt>
      <trkpt lat="45.078" lon="5.92924">
        <ele>2198.67</ele>
        <time>2018-09-02T10:42:34Z</time>
      </trkpt>
      <trkpt lat="45.07805" lon="5.92926">
        <ele>2199.63</ele>
        <time>2018-09-02T10:42:42Z</time>
      </trkpt>
      <trkpt lat="45.07816" lon="5.92937">
        <ele>2201.08</ele>
        <time>2018-09-02T10:42:56Z</time>
      </trkpt>
      <trkpt lat="45.07823" lon="5.92942">
        <ele>2203</ele>
        <time>2018-09-02T10:43:10Z</time>
      </trkpt>
      <trkpt lat="45.07827" lon="5.92943">
        <ele>2204.44</ele>
        <time>2018-09-02T10:43:22Z</time>
      </trkpt>
      <trkpt lat="45.07829" lon="5.92947">
        <ele>2205.4</ele>
        <time>2018-09-02T10:43:29Z</time>
      </trkpt>
      <trkpt lat="45.07837" lon="5.92953">
        <ele>2206.36</ele>
        <time>2018-09-02T10:43:44Z</time>
      </trkpt>
      <trkpt lat="45.07844" lon="5.92962">
        <ele>2208.77</ele>
        <time>2018-09-02T10:44:00Z</time>
      </trkpt>
      <trkpt lat="45.0785" lon="5.92967">
        <ele>2210.21</ele>
        <time>2018-09-02T10:44:12Z</time>
      </trkpt>
      <trkpt lat="45.07856" lon="5.92971">
        <ele>2211.65</ele>
        <time>2018-09-02T10:44:26Z</time>
      </trkpt>
      <trkpt lat="45.07863" lon="5.92981">
        <ele>2213.57</ele>
        <time>2018-09-02T10:44:42Z</time>
      </trkpt>
      <trkpt lat="45.0787" lon="5.92992">
        <ele>2215.01</ele>
        <time>2018-09-02T10:44:57Z</time>
      </trkpt>
      <trkpt lat="45.07878" lon="5.93003">
        <ele>2215.98</ele>
        <time>2018-09-02T10:45:12Z</time>
      </trkpt>
      <trkpt lat="45.07888" lon="5.93009">
        <ele>2217.9</ele>
        <time>2018-09-02T10:45:27Z</time>
      </trkpt>
      <trkpt lat="45.07897" lon="5.93018">
        <ele>2219.34</ele>
        <time>2018-09-02T10:45:43Z</time>
      </trkpt>
      <trkpt lat="45.07907" lon="5.93026">
        <ele>2221.74</ele>
        <time>2018-09-02T10:46:00Z</time>
      </trkpt>
      <trkpt lat="45.07917" lon="5.93031">
        <ele>2223.19</ele>
        <time>2018-09-02T10:46:17Z</time>
      </trkpt>
      <trkpt lat="45.07927" lon="5.93041">
        <ele>2224.15</ele>
        <time>2018-09-02T10:46:32Z</time>
      </trkpt>
      <trkpt lat="45.07937" lon="5.93051">
        <ele>2226.07</ele>
        <time>2018-09-02T10:46:47Z</time>
      </trkpt>
      <trkpt lat="45.07947" lon="5.93057">
        <ele>2227.99</ele>
        <time>2018-09-02T10:47:02Z</time>
      </trkpt>
      <trkpt lat="45.07955" lon="5.93065">
        <ele>2228.47</ele>
        <time>2018-09-02T10:47:19Z</time>
      </trkpt>
      <trkpt lat="45.07956" lon="5.93063">
        <ele>2228.47</ele>
        <time>2018-09-02T10:47:46Z</time>
      </trkpt>
      <trkpt lat="45.07956" lon="5.93068">
        <ele>2229.43</ele>
        <time>2018-09-02T10:48:07Z</time>
      </trkpt>
      <trkpt lat="45.07957" lon="5.93067">
        <ele>2229.43</ele>
        <time>2018-09-02T10:48:38Z</time>
      </trkpt>
      <trkpt lat="45.0796" lon="5.93067">
        <ele>2228.47</ele>
        <time>2018-09-02T10:48:56Z</time>
      </trkpt>
      <trkpt lat="45.07959" lon="5.93073">
        <ele>2228.95</ele>
        <time>2018-09-02T10:49:30Z</time>
      </trkpt>
      <trkpt lat="45.0796" lon="5.93074">
        <ele>2228.47</ele>
        <time>2018-09-02T10:49:31Z</time>
      </trkpt>
      <trkpt lat="45.07964" lon="5.93093">
        <ele>2228.95</ele>
        <time>2018-09-02T10:49:45Z</time>
      </trkpt>
      <trkpt lat="45.07968" lon="5.93106">
        <ele>2229.92</ele>
        <time>2018-09-02T10:49:54Z</time>
      </trkpt>
      <trkpt lat="45.07969" lon="5.93108">
        <ele>2230.4</ele>
        <time>2018-09-02T10:49:56Z</time>
      </trkpt>
      <trkpt lat="45.07973" lon="5.93119">
        <ele>2231.36</ele>
        <time>2018-09-02T10:50:08Z</time>
      </trkpt>
      <trkpt lat="45.07976" lon="5.93123">
        <ele>2231.84</ele>
        <time>2018-09-02T10:50:22Z</time>
      </trkpt>
      <trkpt lat="45.07983" lon="5.93135">
        <ele>2232.8</ele>
        <time>2018-09-02T10:50:36Z</time>
      </trkpt>
      <trkpt lat="45.07988" lon="5.93141">
        <ele>2232.8</ele>
        <time>2018-09-02T10:50:49Z</time>
      </trkpt>
      <trkpt lat="45.07994" lon="5.93155">
        <ele>2232.32</ele>
        <time>2018-09-02T10:51:03Z</time>
      </trkpt>
      <trkpt lat="45.07995" lon="5.93157">
        <ele>2232.8</ele>
        <time>2018-09-02T10:51:05Z</time>
      </trkpt>
      <trkpt lat="45.08001" lon="5.93164">
        <ele>2231.84</ele>
        <time>2018-09-02T10:51:20Z</time>
      </trkpt>
      <trkpt lat="45.08009" lon="5.93175">
        <ele>2233.28</ele>
        <time>2018-09-02T10:51:37Z</time>
      </trkpt>
      <trkpt lat="45.08011" lon="5.93179">
        <ele>2232.8</ele>
        <time>2018-09-02T10:52:03Z</time>
      </trkpt>
      <trkpt lat="45.08009" lon="5.9318">
        <ele>2233.28</ele>
        <time>2018-09-02T10:52:14Z</time>
      </trkpt>
      <trkpt lat="45.08007" lon="5.93186">
        <ele>2231.84</ele>
        <time>2018-09-02T10:52:24Z</time>
      </trkpt>
      <trkpt lat="45.08014" lon="5.93209">
        <ele>2231.84</ele>
        <time>2018-09-02T10:52:40Z</time>
      </trkpt>
      <trkpt lat="45.08018" lon="5.93219">
        <ele>2231.84</ele>
        <time>2018-09-02T10:52:50Z</time>
      </trkpt>
      <trkpt lat="45.08019" lon="5.93223">
        <ele>2231.84</ele>
        <time>2018-09-02T10:53:07Z</time>
      </trkpt>
      <trkpt lat="45.08022" lon="5.93224">
        <ele>2231.84</ele>
        <time>2018-09-02T10:53:36Z</time>
      </trkpt>
      <trkpt lat="45.08026" lon="5.93243">
        <ele>2231.36</ele>
        <time>2018-09-02T10:53:51Z</time>
      </trkpt>
      <trkpt lat="45.08029" lon="5.93249">
        <ele>2231.36</ele>
        <time>2018-09-02T10:54:07Z</time>
      </trkpt>
      <trkpt lat="45.08031" lon="5.93249">
        <ele>2231.36</ele>
        <time>2018-09-02T10:54:21Z</time>
      </trkpt>
      <trkpt lat="45.08033" lon="5.93249">
        <ele>2230.88</ele>
        <time>2018-09-02T10:54:31Z</time>
      </trkpt>
      <trkpt lat="45.08032" lon="5.9325">
        <ele>2230.4</ele>
        <time>2018-09-02T10:54:43Z</time>
      </trkpt>
      <trkpt lat="45.08031" lon="5.93251">
        <ele>2230.4</ele>
        <time>2018-09-02T10:55:19Z</time>
      </trkpt>
      <trkpt lat="45.08032" lon="5.9325">
        <ele>2230.4</ele>
        <time>2018-09-02T10:55:48Z</time>
      </trkpt>
      <trkpt lat="45.08032" lon="5.9325">
        <ele>2230.88</ele>
        <time>2018-09-02T10:56:21Z</time>
      </trkpt>
      <trkpt lat="45.08032" lon="5.9325">
        <ele>2230.4</ele>
        <time>2018-09-02T10:56:50Z</time>
      </trkpt>
      <trkpt lat="45.08032" lon="5.93251">
        <ele>2230.4</ele>
        <time>2018-09-02T10:57:22Z</time>
      </trkpt>
      <trkpt lat="45.08031" lon="5.93251">
        <ele>2230.4</ele>
        <time>2018-09-02T10:57:53Z</time>
      </trkpt>
      <trkpt lat="45.08032" lon="5.9325">
        <ele>2230.88</ele>
        <time>2018-09-02T10:58:20Z</time>
      </trkpt>
      <trkpt lat="45.08032" lon="5.9325">
        <ele>2230.88</ele>
        <time>2018-09-02T10:58:44Z</time>
      </trkpt>
      <trkpt lat="45.08032" lon="5.93251">
        <ele>2230.88</ele>
        <time>2018-09-02T10:59:12Z</time>
      </trkpt>
      <trkpt lat="45.08032" lon="5.93252">
        <ele>2230.88</ele>
        <time>2018-09-02T10:59:51Z</time>
      </trkpt>
      <trkpt lat="45.08031" lon="5.93252">
        <ele>2231.84</ele>
        <time>2018-09-02T11:00:21Z</time>
      </trkpt>
      <trkpt lat="45.08031" lon="5.93251">
        <ele>2230.88</ele>
        <time>2018-09-02T11:00:58Z</time>
      </trkpt>
      <trkpt lat="45.08032" lon="5.93252">
        <ele>2231.36</ele>
        <time>2018-09-02T11:01:32Z</time>
      </trkpt>
      <trkpt lat="45.08032" lon="5.93251">
        <ele>2230.88</ele>
        <time>2018-09-02T11:02:11Z</time>
      </trkpt>
      <trkpt lat="45.08032" lon="5.93252">
        <ele>2231.36</ele>
        <time>2018-09-02T11:02:47Z</time>
      </trkpt>
      <trkpt lat="45.08033" lon="5.93251">
        <ele>2231.36</ele>
        <time>2018-09-02T11:03:22Z</time>
      </trkpt>
      <trkpt lat="45.08033" lon="5.9325">
        <ele>2231.36</ele>
        <time>2018-09-02T11:04:06Z</time>
      </trkpt>
      <trkpt lat="45.08032" lon="5.93251">
        <ele>2231.36</ele>
        <time>2018-09-02T11:04:53Z</time>
      </trkpt>
      <trkpt lat="45.08032" lon="5.93251">
        <ele>2230.88</ele>
        <time>2018-09-02T11:05:30Z</time>
      </trkpt>
      <trkpt lat="45.08032" lon="5.93251">
        <ele>2231.36</ele>
        <time>2018-09-02T11:06:09Z</time>
      </trkpt>
      <trkpt lat="45.08033" lon="5.93249">
        <ele>2231.36</ele>
        <time>2018-09-02T11:06:48Z</time>
      </trkpt>
      <trkpt lat="45.08032" lon="5.93251">
        <ele>2231.36</ele>
        <time>2018-09-02T11:07:32Z</time>
      </trkpt>
      <trkpt lat="45.08032" lon="5.93252">
        <ele>2231.84</ele>
        <time>2018-09-02T11:08:11Z</time>
      </trkpt>
      <trkpt lat="45.08032" lon="5.93251">
        <ele>2231.84</ele>
        <time>2018-09-02T11:08:54Z</time>
      </trkpt>
      <trkpt lat="45.08032" lon="5.93252">
        <ele>2232.32</ele>
        <time>2018-09-02T11:09:35Z</time>
      </trkpt>
      <trkpt lat="45.08032" lon="5.93252">
        <ele>2232.32</ele>
        <time>2018-09-02T11:10:13Z</time>
      </trkpt>
      <trkpt lat="45.08031" lon="5.93252">
        <ele>2232.32</ele>
        <time>2018-09-02T11:10:46Z</time>
      </trkpt>
      <trkpt lat="45.08032" lon="5.93251">
        <ele>2232.32</ele>
        <time>2018-09-02T11:11:21Z</time>
      </trkpt>
      <trkpt lat="45.08032" lon="5.93251">
        <ele>2232.32</ele>
        <time>2018-09-02T11:12:00Z</time>
      </trkpt>
      <trkpt lat="45.08032" lon="5.93251">
        <ele>2231.84</ele>
        <time>2018-09-02T11:12:37Z</time>
      </trkpt>
      <trkpt lat="45.08032" lon="5.9325">
        <ele>2231.84</ele>
        <time>2018-09-02T11:13:15Z</time>
      </trkpt>
      <trkpt lat="45.08032" lon="5.93251">
        <ele>2232.32</ele>
        <time>2018-09-02T11:13:51Z</time>
      </trkpt>
      <trkpt lat="45.08032" lon="5.93251">
        <ele>2232.8</ele>
        <time>2018-09-02T11:14:27Z</time>
      </trkpt>
      <trkpt lat="45.08033" lon="5.9325">
        <ele>2232.32</ele>
        <time>2018-09-02T11:15:08Z</time>
      </trkpt>
      <trkpt lat="45.08033" lon="5.9325">
        <ele>2232.8</ele>
        <time>2018-09-02T11:15:38Z</time>
      </trkpt>
      <trkpt lat="45.08032" lon="5.93251">
        <ele>2232.8</ele>
        <time>2018-09-02T11:16:07Z</time>
      </trkpt>
      <trkpt lat="45.08032" lon="5.93253">
        <ele>2232.32</ele>
        <time>2018-09-02T11:16:45Z</time>
      </trkpt>
      <trkpt lat="45.08032" lon="5.9325">
        <ele>2232.32</ele>
        <time>2018-09-02T11:17:31Z</time>
      </trkpt>
      <trkpt lat="45.08031" lon="5.93253">
        <ele>2232.32</ele>
        <time>2018-09-02T11:18:11Z</time>
      </trkpt>
      <trkpt lat="45.08032" lon="5.9325">
        <ele>2233.28</ele>
        <time>2018-09-02T11:18:33Z</time>
      </trkpt>
      <trkpt lat="45.08033" lon="5.93249">
        <ele>2233.28</ele>
        <time>2018-09-02T11:18:57Z</time>
      </trkpt>
      <trkpt lat="45.08032" lon="5.93249">
        <ele>2233.28</ele>
        <time>2018-09-02T11:19:20Z</time>
      </trkpt>
      <trkpt lat="45.08028" lon="5.93252">
        <ele>2233.28</ele>
        <time>2018-09-02T11:19:33Z</time>
      </trkpt>
      <trkpt lat="45.08033" lon="5.93258">
        <ele>2234.72</ele>
        <time>2018-09-02T11:19:53Z</time>
      </trkpt>
      <trkpt lat="45.08033" lon="5.93267">
        <ele>2234.72</ele>
        <time>2018-09-02T11:20:06Z</time>
      </trkpt>
      <trkpt lat="45.08033" lon="5.93269">
        <ele>2234.24</ele>
        <time>2018-09-02T11:20:23Z</time>
      </trkpt>
      <trkpt lat="45.08035" lon="5.93271">
        <ele>2234.24</ele>
        <time>2018-09-02T11:20:39Z</time>
      </trkpt>
      <trkpt lat="45.08034" lon="5.93265">
        <ele>2234.24</ele>
        <time>2018-09-02T11:21:08Z</time>
      </trkpt>
      <trkpt lat="45.08037" lon="5.93271">
        <ele>2234.72</ele>
        <time>2018-09-02T11:21:25Z</time>
      </trkpt>
      <trkpt lat="45.08038" lon="5.93278">
        <ele>2235.68</ele>
        <time>2018-09-02T11:21:36Z</time>
      </trkpt>
      <trkpt lat="45.08046" lon="5.9328">
        <ele>2235.68</ele>
        <time>2018-09-02T11:21:48Z</time>
      </trkpt>
      <trkpt lat="45.08046" lon="5.93291">
        <ele>2235.68</ele>
        <time>2018-09-02T11:22:04Z</time>
      </trkpt>
      <trkpt lat="45.08046" lon="5.93296">
        <ele>2235.68</ele>
        <time>2018-09-02T11:22:07Z</time>
      </trkpt>
      <trkpt lat="45.08044" lon="5.93321">
        <ele>2235.68</ele>
        <time>2018-09-02T11:22:22Z</time>
      </trkpt>
      <trkpt lat="45.08049" lon="5.93336">
        <ele>2234.72</ele>
        <time>2018-09-02T11:22:35Z</time>
      </trkpt>
      <trkpt lat="45.08053" lon="5.93339">
        <ele>2234.24</ele>
        <time>2018-09-02T11:22:39Z</time>
      </trkpt>
      <trkpt lat="45.08055" lon="5.93359">
        <ele>2231.84</ele>
        <time>2018-09-02T11:22:53Z</time>
      </trkpt>
      <trkpt lat="45.08053" lon="5.93376">
        <ele>2230.88</ele>
        <time>2018-09-02T11:23:08Z</time>
      </trkpt>
      <trkpt lat="45.08053" lon="5.93393">
        <ele>2229.92</ele>
        <time>2018-09-02T11:23:22Z</time>
      </trkpt>
      <trkpt lat="45.08055" lon="5.93408">
        <ele>2230.4</ele>
        <time>2018-09-02T11:23:35Z</time>
      </trkpt>
      <trkpt lat="45.08056" lon="5.93412">
        <ele>2230.88</ele>
        <time>2018-09-02T11:23:38Z</time>
      </trkpt>
      <trkpt lat="45.08056" lon="5.93427">
        <ele>2230.4</ele>
        <time>2018-09-02T11:23:50Z</time>
      </trkpt>
      <trkpt lat="45.08065" lon="5.93438">
        <ele>2228.47</ele>
        <time>2018-09-02T11:24:00Z</time>
      </trkpt>
      <trkpt lat="45.08075" lon="5.93455">
        <ele>2228.47</ele>
        <time>2018-09-02T11:24:17Z</time>
      </trkpt>
      <trkpt lat="45.08073" lon="5.93461">
        <ele>2226.07</ele>
        <time>2018-09-02T11:24:24Z</time>
      </trkpt>
      <trkpt lat="45.08067" lon="5.93466">
        <ele>2223.67</ele>
        <time>2018-09-02T11:24:38Z</time>
      </trkpt>
      <trkpt lat="45.0807" lon="5.93476">
        <ele>2223.19</ele>
        <time>2018-09-02T11:24:47Z</time>
      </trkpt>
      <trkpt lat="45.08071" lon="5.93479">
        <ele>2223.67</ele>
        <time>2018-09-02T11:24:49Z</time>
      </trkpt>
      <trkpt lat="45.08075" lon="5.93488">
        <ele>2221.74</ele>
        <time>2018-09-02T11:24:57Z</time>
      </trkpt>
      <trkpt lat="45.08079" lon="5.93503">
        <ele>2220.78</ele>
        <time>2018-09-02T11:25:06Z</time>
      </trkpt>
      <trkpt lat="45.0808" lon="5.93507">
        <ele>2220.78</ele>
        <time>2018-09-02T11:25:09Z</time>
      </trkpt>
      <trkpt lat="45.08087" lon="5.93527">
        <ele>2220.3</ele>
        <time>2018-09-02T11:25:23Z</time>
      </trkpt>
      <trkpt lat="45.08093" lon="5.93538">
        <ele>2220.3</ele>
        <time>2018-09-02T11:25:37Z</time>
      </trkpt>
      <trkpt lat="45.08094" lon="5.9354">
        <ele>2220.3</ele>
        <time>2018-09-02T11:25:41Z</time>
      </trkpt>
      <trkpt lat="45.08096" lon="5.93542">
        <ele>2220.78</ele>
        <time>2018-09-02T11:25:44Z</time>
      </trkpt>
      <trkpt lat="45.08107" lon="5.93559">
        <ele>2221.74</ele>
        <time>2018-09-02T11:26:00Z</time>
      </trkpt>
      <trkpt lat="45.0812" lon="5.93574">
        <ele>2222.71</ele>
        <time>2018-09-02T11:26:17Z</time>
      </trkpt>
      <trkpt lat="45.0813" lon="5.93585">
        <ele>2224.63</ele>
        <time>2018-09-02T11:26:30Z</time>
      </trkpt>
      <trkpt lat="45.08139" lon="5.93597">
        <ele>2223.67</ele>
        <time>2018-09-02T11:26:42Z</time>
      </trkpt>
      <trkpt lat="45.08147" lon="5.93616">
        <ele>2223.19</ele>
        <time>2018-09-02T11:26:59Z</time>
      </trkpt>
      <trkpt lat="45.08154" lon="5.93634">
        <ele>2222.71</ele>
        <time>2018-09-02T11:27:13Z</time>
      </trkpt>
      <trkpt lat="45.08154" lon="5.93635">
        <ele>2223.19</ele>
        <time>2018-09-02T11:27:14Z</time>
      </trkpt>
      <trkpt lat="45.08158" lon="5.93641">
        <ele>2224.15</ele>
        <time>2018-09-02T11:27:20Z</time>
      </trkpt>
      <trkpt lat="45.08164" lon="5.93656">
        <ele>2225.11</ele>
        <time>2018-09-02T11:27:35Z</time>
      </trkpt>
      <trkpt lat="45.08167" lon="5.93669">
        <ele>2226.55</ele>
        <time>2018-09-02T11:27:46Z</time>
      </trkpt>
      <trkpt lat="45.08173" lon="5.93676">
        <ele>2226.07</ele>
        <time>2018-09-02T11:27:53Z</time>
      </trkpt>
      <trkpt lat="45.08178" lon="5.93681">
        <ele>2227.03</ele>
        <time>2018-09-02T11:27:59Z</time>
      </trkpt>
      <trkpt lat="45.08182" lon="5.9369">
        <ele>2227.03</ele>
        <time>2018-09-02T11:28:06Z</time>
      </trkpt>
      <trkpt lat="45.08184" lon="5.93694">
        <ele>2227.03</ele>
        <time>2018-09-02T11:28:09Z</time>
      </trkpt>
      <trkpt lat="45.08192" lon="5.93707">
        <ele>2227.99</ele>
        <time>2018-09-02T11:28:23Z</time>
      </trkpt>
      <trkpt lat="45.08199" lon="5.93725">
        <ele>2228.47</ele>
        <time>2018-09-02T11:28:37Z</time>
      </trkpt>
      <trkpt lat="45.08205" lon="5.9374">
        <ele>2228.95</ele>
        <time>2018-09-02T11:28:51Z</time>
      </trkpt>
      <trkpt lat="45.08211" lon="5.93755">
        <ele>2231.36</ele>
        <time>2018-09-02T11:29:05Z</time>
      </trkpt>
      <trkpt lat="45.08211" lon="5.93756">
        <ele>2231.36</ele>
        <time>2018-09-02T11:29:06Z</time>
      </trkpt>
      <trkpt lat="45.0822" lon="5.93772">
        <ele>2232.8</ele>
        <time>2018-09-02T11:29:23Z</time>
      </trkpt>
      <trkpt lat="45.08222" lon="5.93781">
        <ele>2234.24</ele>
        <time>2018-09-02T11:29:31Z</time>
      </trkpt>
      <trkpt lat="45.08228" lon="5.93799">
        <ele>2235.2</ele>
        <time>2018-09-02T11:29:47Z</time>
      </trkpt>
      <trkpt lat="45.08231" lon="5.93813">
        <ele>2235.68</ele>
        <time>2018-09-02T11:29:59Z</time>
      </trkpt>
      <trkpt lat="45.08234" lon="5.93818">
        <ele>2237.13</ele>
        <time>2018-09-02T11:30:06Z</time>
      </trkpt>
      <trkpt lat="45.0824" lon="5.9384">
        <ele>2235.68</ele>
        <time>2018-09-02T11:30:23Z</time>
      </trkpt>
      <trkpt lat="45.08243" lon="5.9385">
        <ele>2235.2</ele>
        <time>2018-09-02T11:30:30Z</time>
      </trkpt>
      <trkpt lat="45.08244" lon="5.93856">
        <ele>2235.2</ele>
        <time>2018-09-02T11:30:34Z</time>
      </trkpt>
      <trkpt lat="45.08245" lon="5.9388">
        <ele>2236.64</ele>
        <time>2018-09-02T11:30:51Z</time>
      </trkpt>
      <trkpt lat="45.08246" lon="5.93885">
        <ele>2236.64</ele>
        <time>2018-09-02T11:30:55Z</time>
      </trkpt>
      <trkpt lat="45.08251" lon="5.93908">
        <ele>2235.68</ele>
        <time>2018-09-02T11:31:11Z</time>
      </trkpt>
      <trkpt lat="45.08252" lon="5.93928">
        <ele>2235.68</ele>
        <time>2018-09-02T11:31:24Z</time>
      </trkpt>
      <trkpt lat="45.08254" lon="5.93943">
        <ele>2236.64</ele>
        <time>2018-09-02T11:31:39Z</time>
      </trkpt>
      <trkpt lat="45.0826" lon="5.93966">
        <ele>2236.16</ele>
        <time>2018-09-02T11:31:55Z</time>
      </trkpt>
      <trkpt lat="45.08265" lon="5.9398">
        <ele>2235.68</ele>
        <time>2018-09-02T11:32:06Z</time>
      </trkpt>
      <trkpt lat="45.08267" lon="5.94005">
        <ele>2235.68</ele>
        <time>2018-09-02T11:32:21Z</time>
      </trkpt>
      <trkpt lat="45.08268" lon="5.94009">
        <ele>2235.68</ele>
        <time>2018-09-02T11:32:24Z</time>
      </trkpt>
      <trkpt lat="45.08271" lon="5.94015">
        <ele>2236.64</ele>
        <time>2018-09-02T11:32:30Z</time>
      </trkpt>
      <trkpt lat="45.0828" lon="5.94041">
        <ele>2235.68</ele>
        <time>2018-09-02T11:32:48Z</time>
      </trkpt>
      <trkpt lat="45.08289" lon="5.94058">
        <ele>2236.16</ele>
        <time>2018-09-02T11:33:03Z</time>
      </trkpt>
      <trkpt lat="45.08293" lon="5.94086">
        <ele>2236.16</ele>
        <time>2018-09-02T11:33:22Z</time>
      </trkpt>
      <trkpt lat="45.08298" lon="5.94111">
        <ele>2234.72</ele>
        <time>2018-09-02T11:33:39Z</time>
      </trkpt>
      <trkpt lat="45.08298" lon="5.9411">
        <ele>2234.72</ele>
        <time>2018-09-02T11:33:55Z</time>
      </trkpt>
      <trkpt lat="45.08297" lon="5.94109">
        <ele>2234.72</ele>
        <time>2018-09-02T11:34:24Z</time>
      </trkpt>
      <trkpt lat="45.08298" lon="5.94114">
        <ele>2234.72</ele>
        <time>2018-09-02T11:34:44Z</time>
      </trkpt>
      <trkpt lat="45.08301" lon="5.94125">
        <ele>2234.24</ele>
        <time>2018-09-02T11:34:53Z</time>
      </trkpt>
      <trkpt lat="45.08301" lon="5.94135">
        <ele>2234.72</ele>
        <time>2018-09-02T11:35:00Z</time>
      </trkpt>
      <trkpt lat="45.083" lon="5.94141">
        <ele>2235.68</ele>
        <time>2018-09-02T11:35:04Z</time>
      </trkpt>
      <trkpt lat="45.08307" lon="5.94168">
        <ele>2234.72</ele>
        <time>2018-09-02T11:35:22Z</time>
      </trkpt>
      <trkpt lat="45.0831" lon="5.94189">
        <ele>2233.76</ele>
        <time>2018-09-02T11:35:36Z</time>
      </trkpt>
      <trkpt lat="45.08313" lon="5.94197">
        <ele>2233.76</ele>
        <time>2018-09-02T11:35:42Z</time>
      </trkpt>
      <trkpt lat="45.08317" lon="5.94218">
        <ele>2234.24</ele>
        <time>2018-09-02T11:35:58Z</time>
      </trkpt>
      <trkpt lat="45.08319" lon="5.9422">
        <ele>2233.76</ele>
        <time>2018-09-02T11:36:00Z</time>
      </trkpt>
      <trkpt lat="45.08329" lon="5.94236">
        <ele>2232.8</ele>
        <time>2018-09-02T11:36:15Z</time>
      </trkpt>
      <trkpt lat="45.08338" lon="5.94255">
        <ele>2232.8</ele>
        <time>2018-09-02T11:36:30Z</time>
      </trkpt>
      <trkpt lat="45.08346" lon="5.94272">
        <ele>2233.28</ele>
        <time>2018-09-02T11:36:44Z</time>
      </trkpt>
      <trkpt lat="45.08352" lon="5.94296">
        <ele>2230.88</ele>
        <time>2018-09-02T11:37:01Z</time>
      </trkpt>
      <trkpt lat="45.08359" lon="5.94317">
        <ele>2229.43</ele>
        <time>2018-09-02T11:37:18Z</time>
      </trkpt>
      <trkpt lat="45.0836" lon="5.94318">
        <ele>2229.92</ele>
        <time>2018-09-02T11:37:19Z</time>
      </trkpt>
      <trkpt lat="45.08364" lon="5.94323">
        <ele>2229.43</ele>
        <time>2018-09-02T11:37:25Z</time>
      </trkpt>
      <trkpt lat="45.0837" lon="5.94343">
        <ele>2229.43</ele>
        <time>2018-09-02T11:37:40Z</time>
      </trkpt>
      <trkpt lat="45.08373" lon="5.94355">
        <ele>2229.43</ele>
        <time>2018-09-02T11:37:49Z</time>
      </trkpt>
      <trkpt lat="45.0838" lon="5.94376">
        <ele>2229.43</ele>
        <time>2018-09-02T11:38:06Z</time>
      </trkpt>
      <trkpt lat="45.08388" lon="5.94387">
        <ele>2230.4</ele>
        <time>2018-09-02T11:38:18Z</time>
      </trkpt>
      <trkpt lat="45.08387" lon="5.94398">
        <ele>2231.84</ele>
        <time>2018-09-02T11:38:31Z</time>
      </trkpt>
      <trkpt lat="45.08387" lon="5.94407">
        <ele>2232.8</ele>
        <time>2018-09-02T11:38:39Z</time>
      </trkpt>
      <trkpt lat="45.08386" lon="5.94423">
        <ele>2234.24</ele>
        <time>2018-09-02T11:38:54Z</time>
      </trkpt>
      <trkpt lat="45.08388" lon="5.94442">
        <ele>2234.24</ele>
        <time>2018-09-02T11:39:10Z</time>
      </trkpt>
      <trkpt lat="45.08388" lon="5.94442">
        <ele>2234.72</ele>
        <time>2018-09-02T11:39:30Z</time>
      </trkpt>
      <trkpt lat="45.08387" lon="5.94444">
        <ele>2233.76</ele>
        <time>2018-09-02T11:39:55Z</time>
      </trkpt>
      <trkpt lat="45.08387" lon="5.94462">
        <ele>2234.72</ele>
        <time>2018-09-02T11:40:09Z</time>
      </trkpt>
      <trkpt lat="45.0839" lon="5.9448">
        <ele>2235.68</ele>
        <time>2018-09-02T11:40:22Z</time>
      </trkpt>
      <trkpt lat="45.08394" lon="5.94496">
        <ele>2236.16</ele>
        <time>2018-09-02T11:40:38Z</time>
      </trkpt>
      <trkpt lat="45.08396" lon="5.94509">
        <ele>2238.09</ele>
        <time>2018-09-02T11:40:52Z</time>
      </trkpt>
      <trkpt lat="45.08397" lon="5.94521">
        <ele>2241.45</ele>
        <time>2018-09-02T11:41:07Z</time>
      </trkpt>
      <trkpt lat="45.08399" lon="5.94531">
        <ele>2243.37</ele>
        <time>2018-09-02T11:41:21Z</time>
      </trkpt>
      <trkpt lat="45.084" lon="5.94541">
        <ele>2245.78</ele>
        <time>2018-09-02T11:41:37Z</time>
      </trkpt>
      <trkpt lat="45.08403" lon="5.9455">
        <ele>2247.22</ele>
        <time>2018-09-02T11:41:51Z</time>
      </trkpt>
      <trkpt lat="45.08404" lon="5.94558">
        <ele>2248.18</ele>
        <time>2018-09-02T11:42:03Z</time>
      </trkpt>
      <trkpt lat="45.08407" lon="5.94568">
        <ele>2251.06</ele>
        <time>2018-09-02T11:42:18Z</time>
      </trkpt>
      <trkpt lat="45.08411" lon="5.94571">
        <ele>2253.47</ele>
        <time>2018-09-02T11:42:32Z</time>
      </trkpt>
      <trkpt lat="45.08414" lon="5.94579">
        <ele>2255.39</ele>
        <time>2018-09-02T11:42:47Z</time>
      </trkpt>
      <trkpt lat="45.08418" lon="5.94587">
        <ele>2256.83</ele>
        <time>2018-09-02T11:43:02Z</time>
      </trkpt>
      <trkpt lat="45.08423" lon="5.94591">
        <ele>2259.24</ele>
        <time>2018-09-02T11:43:14Z</time>
      </trkpt>
      <trkpt lat="45.08428" lon="5.94602">
        <ele>2261.16</ele>
        <time>2018-09-02T11:43:29Z</time>
      </trkpt>
      <trkpt lat="45.0843" lon="5.94609">
        <ele>2263.56</ele>
        <time>2018-09-02T11:43:45Z</time>
      </trkpt>
      <trkpt lat="45.08433" lon="5.94618">
        <ele>2265.96</ele>
        <time>2018-09-02T11:43:57Z</time>
      </trkpt>
      <trkpt lat="45.08435" lon="5.94625">
        <ele>2267.41</ele>
        <time>2018-09-02T11:44:11Z</time>
      </trkpt>
      <trkpt lat="45.0844" lon="5.94636">
        <ele>2269.81</ele>
        <time>2018-09-02T11:44:29Z</time>
      </trkpt>
      <trkpt lat="45.08443" lon="5.94647">
        <ele>2271.73</ele>
        <time>2018-09-02T11:44:46Z</time>
      </trkpt>
      <trkpt lat="45.08443" lon="5.94654">
        <ele>2274.14</ele>
        <time>2018-09-02T11:45:00Z</time>
      </trkpt>
      <trkpt lat="45.08442" lon="5.94665">
        <ele>2275.58</ele>
        <time>2018-09-02T11:45:14Z</time>
      </trkpt>
      <trkpt lat="45.08441" lon="5.94679">
        <ele>2277.5</ele>
        <time>2018-09-02T11:45:28Z</time>
      </trkpt>
      <trkpt lat="45.08441" lon="5.94689">
        <ele>2278.94</ele>
        <time>2018-09-02T11:45:42Z</time>
      </trkpt>
      <trkpt lat="45.08443" lon="5.94704">
        <ele>2280.87</ele>
        <time>2018-09-02T11:45:57Z</time>
      </trkpt>
      <trkpt lat="45.08447" lon="5.94715">
        <ele>2282.31</ele>
        <time>2018-09-02T11:46:09Z</time>
      </trkpt>
      <trkpt lat="45.08451" lon="5.9473">
        <ele>2283.75</ele>
        <time>2018-09-02T11:46:23Z</time>
      </trkpt>
      <trkpt lat="45.08455" lon="5.94744">
        <ele>2283.27</ele>
        <time>2018-09-02T11:46:36Z</time>
      </trkpt>
      <trkpt lat="45.08462" lon="5.94761">
        <ele>2285.19</ele>
        <time>2018-09-02T11:46:53Z</time>
      </trkpt>
      <trkpt lat="45.08465" lon="5.94773">
        <ele>2286.15</ele>
        <time>2018-09-02T11:47:06Z</time>
      </trkpt>
      <trkpt lat="45.0847" lon="5.94783">
        <ele>2288.08</ele>
        <time>2018-09-02T11:47:20Z</time>
      </trkpt>
      <trkpt lat="45.08472" lon="5.94798">
        <ele>2289.04</ele>
        <time>2018-09-02T11:47:34Z</time>
      </trkpt>
      <trkpt lat="45.08472" lon="5.948">
        <ele>2289.04</ele>
        <time>2018-09-02T11:47:35Z</time>
      </trkpt>
      <trkpt lat="45.08476" lon="5.94817">
        <ele>2290.96</ele>
        <time>2018-09-02T11:47:52Z</time>
      </trkpt>
      <trkpt lat="45.08479" lon="5.9483">
        <ele>2292.4</ele>
        <time>2018-09-02T11:48:04Z</time>
      </trkpt>
      <trkpt lat="45.08478" lon="5.94831">
        <ele>2292.4</ele>
        <time>2018-09-02T11:48:23Z</time>
      </trkpt>
      <trkpt lat="45.0848" lon="5.94831">
        <ele>2292.88</ele>
        <time>2018-09-02T11:48:41Z</time>
      </trkpt>
      <trkpt lat="45.08481" lon="5.94837">
        <ele>2293.36</ele>
        <time>2018-09-02T11:49:00Z</time>
      </trkpt>
      <trkpt lat="45.08487" lon="5.94847">
        <ele>2295.28</ele>
        <time>2018-09-02T11:49:12Z</time>
      </trkpt>
      <trkpt lat="45.0849" lon="5.94859">
        <ele>2298.17</ele>
        <time>2018-09-02T11:49:27Z</time>
      </trkpt>
      <trkpt lat="45.0849" lon="5.94859">
        <ele>2298.17</ele>
        <time>2018-09-02T11:49:28Z</time>
      </trkpt>
      <trkpt lat="45.08494" lon="5.94871">
        <ele>2300.57</ele>
        <time>2018-09-02T11:49:42Z</time>
      </trkpt>
      <trkpt lat="45.08497" lon="5.94881">
        <ele>2302.98</ele>
        <time>2018-09-02T11:49:54Z</time>
      </trkpt>
      <trkpt lat="45.08501" lon="5.9489">
        <ele>2306.34</ele>
        <time>2018-09-02T11:50:09Z</time>
      </trkpt>
      <trkpt lat="45.08504" lon="5.94898">
        <ele>2308.74</ele>
        <time>2018-09-02T11:50:21Z</time>
      </trkpt>
      <trkpt lat="45.08508" lon="5.94905">
        <ele>2309.7</ele>
        <time>2018-09-02T11:50:35Z</time>
      </trkpt>
      <trkpt lat="45.08511" lon="5.94912">
        <ele>2312.11</ele>
        <time>2018-09-02T11:50:49Z</time>
      </trkpt>
      <trkpt lat="45.08512" lon="5.94921">
        <ele>2314.51</ele>
        <time>2018-09-02T11:51:05Z</time>
      </trkpt>
      <trkpt lat="45.08515" lon="5.94932">
        <ele>2316.91</ele>
        <time>2018-09-02T11:51:19Z</time>
      </trkpt>
      <trkpt lat="45.08516" lon="5.94942">
        <ele>2319.8</ele>
        <time>2018-09-02T11:51:34Z</time>
      </trkpt>
      <trkpt lat="45.08516" lon="5.94949">
        <ele>2320.76</ele>
        <time>2018-09-02T11:51:46Z</time>
      </trkpt>
      <trkpt lat="45.08513" lon="5.94959">
        <ele>2322.2</ele>
        <time>2018-09-02T11:52:02Z</time>
      </trkpt>
      <trkpt lat="45.08518" lon="5.94963">
        <ele>2324.12</ele>
        <time>2018-09-02T11:52:15Z</time>
      </trkpt>
      <trkpt lat="45.0852" lon="5.94971">
        <ele>2326.53</ele>
        <time>2018-09-02T11:52:30Z</time>
      </trkpt>
      <trkpt lat="45.08525" lon="5.94974">
        <ele>2327.49</ele>
        <time>2018-09-02T11:52:44Z</time>
      </trkpt>
      <trkpt lat="45.08529" lon="5.94978">
        <ele>2329.41</ele>
        <time>2018-09-02T11:52:59Z</time>
      </trkpt>
      <trkpt lat="45.08531" lon="5.94986">
        <ele>2330.85</ele>
        <time>2018-09-02T11:53:13Z</time>
      </trkpt>
      <trkpt lat="45.08535" lon="5.94989">
        <ele>2332.78</ele>
        <time>2018-09-02T11:53:27Z</time>
      </trkpt>
      <trkpt lat="45.08541" lon="5.94989">
        <ele>2334.7</ele>
        <time>2018-09-02T11:53:40Z</time>
      </trkpt>
      <trkpt lat="45.08545" lon="5.94991">
        <ele>2338.06</ele>
        <time>2018-09-02T11:53:54Z</time>
      </trkpt>
      <trkpt lat="45.08547" lon="5.94998">
        <ele>2339.02</ele>
        <time>2018-09-02T11:54:10Z</time>
      </trkpt>
      <trkpt lat="45.08549" lon="5.95">
        <ele>2340.95</ele>
        <time>2018-09-02T11:54:23Z</time>
      </trkpt>
      <trkpt lat="45.08552" lon="5.95004">
        <ele>2343.35</ele>
        <time>2018-09-02T11:54:37Z</time>
      </trkpt>
      <trkpt lat="45.08553" lon="5.95008">
        <ele>2344.79</ele>
        <time>2018-09-02T11:54:50Z</time>
      </trkpt>
      <trkpt lat="45.08557" lon="5.95011">
        <ele>2346.72</ele>
        <time>2018-09-02T11:55:03Z</time>
      </trkpt>
      <trkpt lat="45.08561" lon="5.95013">
        <ele>2348.64</ele>
        <time>2018-09-02T11:55:16Z</time>
      </trkpt>
      <trkpt lat="45.08563" lon="5.95017">
        <ele>2350.56</ele>
        <time>2018-09-02T11:55:30Z</time>
      </trkpt>
      <trkpt lat="45.08565" lon="5.95027">
        <ele>2352.96</ele>
        <time>2018-09-02T11:55:46Z</time>
      </trkpt>
      <trkpt lat="45.08568" lon="5.95032">
        <ele>2354.41</ele>
        <time>2018-09-02T11:56:00Z</time>
      </trkpt>
      <trkpt lat="45.08572" lon="5.95034">
        <ele>2357.77</ele>
        <time>2018-09-02T11:56:14Z</time>
      </trkpt>
      <trkpt lat="45.08577" lon="5.95038">
        <ele>2359.69</ele>
        <time>2018-09-02T11:56:28Z</time>
      </trkpt>
      <trkpt lat="45.08581" lon="5.95042">
        <ele>2362.58</ele>
        <time>2018-09-02T11:56:43Z</time>
      </trkpt>
      <trkpt lat="45.08585" lon="5.95045">
        <ele>2363.54</ele>
        <time>2018-09-02T11:56:53Z</time>
      </trkpt>
      <trkpt lat="45.08588" lon="5.95049">
        <ele>2365.46</ele>
        <time>2018-09-02T11:57:05Z</time>
      </trkpt>
      <trkpt lat="45.08592" lon="5.95053">
        <ele>2367.38</ele>
        <time>2018-09-02T11:57:18Z</time>
      </trkpt>
      <trkpt lat="45.08592" lon="5.95059">
        <ele>2370.27</ele>
        <time>2018-09-02T11:57:34Z</time>
      </trkpt>
      <trkpt lat="45.08591" lon="5.95071">
        <ele>2372.67</ele>
        <time>2018-09-02T11:57:49Z</time>
      </trkpt>
      <trkpt lat="45.08591" lon="5.95077">
        <ele>2374.59</ele>
        <time>2018-09-02T11:58:04Z</time>
      </trkpt>
      <trkpt lat="45.08592" lon="5.95083">
        <ele>2377</ele>
        <time>2018-09-02T11:58:19Z</time>
      </trkpt>
      <trkpt lat="45.08592" lon="5.9509">
        <ele>2379.88</ele>
        <time>2018-09-02T11:58:33Z</time>
      </trkpt>
      <trkpt lat="45.08594" lon="5.951">
        <ele>2382.76</ele>
        <time>2018-09-02T11:58:47Z</time>
      </trkpt>
      <trkpt lat="45.08594" lon="5.9511">
        <ele>2386.13</ele>
        <time>2018-09-02T11:59:02Z</time>
      </trkpt>
      <trkpt lat="45.08593" lon="5.9511">
        <ele>2386.13</ele>
        <time>2018-09-02T11:59:03Z</time>
      </trkpt>
      <trkpt lat="45.08592" lon="5.95119">
        <ele>2388.53</ele>
        <time>2018-09-02T11:59:16Z</time>
      </trkpt>
      <trkpt lat="45.08591" lon="5.95126">
        <ele>2389.97</ele>
        <time>2018-09-02T11:59:28Z</time>
      </trkpt>
      <trkpt lat="45.08591" lon="5.95129">
        <ele>2390.46</ele>
        <time>2018-09-02T11:59:47Z</time>
      </trkpt>
      <trkpt lat="45.08592" lon="5.95127">
        <ele>2389.49</ele>
        <time>2018-09-02T12:00:10Z</time>
      </trkpt>
      <trkpt lat="45.08592" lon="5.9513">
        <ele>2390.46</ele>
        <time>2018-09-02T12:00:36Z</time>
      </trkpt>
      <trkpt lat="45.08592" lon="5.95128">
        <ele>2390.46</ele>
        <time>2018-09-02T12:00:59Z</time>
      </trkpt>
      <trkpt lat="45.08591" lon="5.95127">
        <ele>2389.97</ele>
        <time>2018-09-02T12:01:24Z</time>
      </trkpt>
      <trkpt lat="45.08593" lon="5.95127">
        <ele>2390.46</ele>
        <time>2018-09-02T12:01:58Z</time>
      </trkpt>
      <trkpt lat="45.08591" lon="5.95127">
        <ele>2390.46</ele>
        <time>2018-09-02T12:02:32Z</time>
      </trkpt>
      <trkpt lat="45.08593" lon="5.95129">
        <ele>2390.94</ele>
        <time>2018-09-02T12:02:57Z</time>
      </trkpt>
      <trkpt lat="45.08594" lon="5.95129">
        <ele>2389.97</ele>
        <time>2018-09-02T12:03:02Z</time>
      </trkpt>
      <trkpt lat="45.08595" lon="5.95129">
        <ele>2390.94</ele>
        <time>2018-09-02T12:03:24Z</time>
      </trkpt>
      <trkpt lat="45.08596" lon="5.95128">
        <ele>2390.94</ele>
        <time>2018-09-02T12:03:59Z</time>
      </trkpt>
      <trkpt lat="45.08594" lon="5.95132">
        <ele>2391.42</ele>
        <time>2018-09-02T12:04:25Z</time>
      </trkpt>
      <trkpt lat="45.08604" lon="5.95138">
        <ele>2392.86</ele>
        <time>2018-09-02T12:04:43Z</time>
      </trkpt>
      <trkpt lat="45.08613" lon="5.95143">
        <ele>2394.78</ele>
        <time>2018-09-02T12:04:58Z</time>
      </trkpt>
      <trkpt lat="45.08617" lon="5.95149">
        <ele>2396.22</ele>
        <time>2018-09-02T12:05:10Z</time>
      </trkpt>
      <trkpt lat="45.08625" lon="5.95159">
        <ele>2399.11</ele>
        <time>2018-09-02T12:05:25Z</time>
      </trkpt>
      <trkpt lat="45.08632" lon="5.95168">
        <ele>2401.03</ele>
        <time>2018-09-02T12:05:42Z</time>
      </trkpt>
      <trkpt lat="45.08637" lon="5.95177">
        <ele>2402.47</ele>
        <time>2018-09-02T12:05:58Z</time>
      </trkpt>
      <trkpt lat="45.08641" lon="5.95187">
        <ele>2404.88</ele>
        <time>2018-09-02T12:06:13Z</time>
      </trkpt>
      <trkpt lat="45.08643" lon="5.95198">
        <ele>2406.8</ele>
        <time>2018-09-02T12:06:27Z</time>
      </trkpt>
      <trkpt lat="45.08647" lon="5.95207">
        <ele>2408.24</ele>
        <time>2018-09-02T12:06:42Z</time>
      </trkpt>
      <trkpt lat="45.0865" lon="5.9522">
        <ele>2410.16</ele>
        <time>2018-09-02T12:06:57Z</time>
      </trkpt>
      <trkpt lat="45.08652" lon="5.95236">
        <ele>2411.6</ele>
        <time>2018-09-02T12:07:12Z</time>
      </trkpt>
      <trkpt lat="45.08655" lon="5.95248">
        <ele>2414.01</ele>
        <time>2018-09-02T12:07:29Z</time>
      </trkpt>
      <trkpt lat="45.08657" lon="5.95256">
        <ele>2414.97</ele>
        <time>2018-09-02T12:07:41Z</time>
      </trkpt>
      <trkpt lat="45.08659" lon="5.95266">
        <ele>2417.85</ele>
        <time>2018-09-02T12:07:55Z</time>
      </trkpt>
      <trkpt lat="45.08662" lon="5.95281">
        <ele>2418.81</ele>
        <time>2018-09-02T12:08:10Z</time>
      </trkpt>
      <trkpt lat="45.08665" lon="5.95296">
        <ele>2420.26</ele>
        <time>2018-09-02T12:08:26Z</time>
      </trkpt>
      <trkpt lat="45.08667" lon="5.95311">
        <ele>2423.14</ele>
        <time>2018-09-02T12:08:42Z</time>
      </trkpt>
      <trkpt lat="45.08668" lon="5.95318">
        <ele>2424.1</ele>
        <time>2018-09-02T12:08:49Z</time>
      </trkpt>
      <trkpt lat="45.08671" lon="5.95335">
        <ele>2425.54</ele>
        <time>2018-09-02T12:09:05Z</time>
      </trkpt>
      <trkpt lat="45.08679" lon="5.95337">
        <ele>2426.5</ele>
        <time>2018-09-02T12:09:20Z</time>
      </trkpt>
      <trkpt lat="45.08684" lon="5.95337">
        <ele>2427.95</ele>
        <time>2018-09-02T12:09:31Z</time>
      </trkpt>
      <trkpt lat="45.08686" lon="5.95335">
        <ele>2428.91</ele>
        <time>2018-09-02T12:09:36Z</time>
      </trkpt>
      <trkpt lat="45.08693" lon="5.95337">
        <ele>2431.79</ele>
        <time>2018-09-02T12:09:52Z</time>
      </trkpt>
      <trkpt lat="45.08697" lon="5.95336">
        <ele>2434.2</ele>
        <time>2018-09-02T12:10:04Z</time>
      </trkpt>
      <trkpt lat="45.08701" lon="5.95337">
        <ele>2435.64</ele>
        <time>2018-09-02T12:10:19Z</time>
      </trkpt>
      <trkpt lat="45.08707" lon="5.95331">
        <ele>2438.04</ele>
        <time>2018-09-02T12:10:32Z</time>
      </trkpt>
      <trkpt lat="45.0871" lon="5.95339">
        <ele>2439.96</ele>
        <time>2018-09-02T12:10:47Z</time>
      </trkpt>
      <trkpt lat="45.08716" lon="5.95339">
        <ele>2441.41</ele>
        <time>2018-09-02T12:11:00Z</time>
      </trkpt>
      <trkpt lat="45.08721" lon="5.95335">
        <ele>2444.77</ele>
        <time>2018-09-02T12:11:14Z</time>
      </trkpt>
      <trkpt lat="45.08725" lon="5.95333">
        <ele>2446.21</ele>
        <time>2018-09-02T12:11:29Z</time>
      </trkpt>
      <trkpt lat="45.08728" lon="5.95342">
        <ele>2449.1</ele>
        <time>2018-09-02T12:11:44Z</time>
      </trkpt>
      <trkpt lat="45.08725" lon="5.95344">
        <ele>2449.58</ele>
        <time>2018-09-02T12:12:01Z</time>
      </trkpt>
      <trkpt lat="45.08732" lon="5.95348">
        <ele>2450.54</ele>
        <time>2018-09-02T12:12:16Z</time>
      </trkpt>
      <trkpt lat="45.08737" lon="5.95352">
        <ele>2452.94</ele>
        <time>2018-09-02T12:12:32Z</time>
      </trkpt>
      <trkpt lat="45.0874" lon="5.95355">
        <ele>2453.9</ele>
        <time>2018-09-02T12:12:44Z</time>
      </trkpt>
      <trkpt lat="45.08747" lon="5.95353">
        <ele>2456.31</ele>
        <time>2018-09-02T12:12:57Z</time>
      </trkpt>
      <trkpt lat="45.08752" lon="5.95363">
        <ele>2459.19</ele>
        <time>2018-09-02T12:13:10Z</time>
      </trkpt>
      <trkpt lat="45.08759" lon="5.95365">
        <ele>2461.11</ele>
        <time>2018-09-02T12:13:24Z</time>
      </trkpt>
      <trkpt lat="45.08764" lon="5.95369">
        <ele>2462.55</ele>
        <time>2018-09-02T12:13:37Z</time>
      </trkpt>
      <trkpt lat="45.08768" lon="5.95374">
        <ele>2464.96</ele>
        <time>2018-09-02T12:13:51Z</time>
      </trkpt>
      <trkpt lat="45.08772" lon="5.95374">
        <ele>2465.92</ele>
        <time>2018-09-02T12:14:03Z</time>
      </trkpt>
      <trkpt lat="45.08771" lon="5.95374">
        <ele>2466.4</ele>
        <time>2018-09-02T12:14:24Z</time>
      </trkpt>
      <trkpt lat="45.08768" lon="5.95367">
        <ele>2465.44</ele>
        <time>2018-09-02T12:14:50Z</time>
      </trkpt>
      <trkpt lat="45.0877" lon="5.95373">
        <ele>2465.92</ele>
        <time>2018-09-02T12:15:08Z</time>
      </trkpt>
      <trkpt lat="45.08771" lon="5.95373">
        <ele>2465.92</ele>
        <time>2018-09-02T12:15:31Z</time>
      </trkpt>
      <trkpt lat="45.08771" lon="5.95375">
        <ele>2465.92</ele>
        <time>2018-09-02T12:15:56Z</time>
      </trkpt>
      <trkpt lat="45.08772" lon="5.95381">
        <ele>2466.88</ele>
        <time>2018-09-02T12:16:19Z</time>
      </trkpt>
      <trkpt lat="45.08773" lon="5.95391">
        <ele>2468.8</ele>
        <time>2018-09-02T12:16:32Z</time>
      </trkpt>
      <trkpt lat="45.08773" lon="5.95404">
        <ele>2470.24</ele>
        <time>2018-09-02T12:16:46Z</time>
      </trkpt>
      <trkpt lat="45.08776" lon="5.95414">
        <ele>2473.13</ele>
        <time>2018-09-02T12:17:00Z</time>
      </trkpt>
      <trkpt lat="45.08778" lon="5.95419">
        <ele>2475.53</ele>
        <time>2018-09-02T12:17:11Z</time>
      </trkpt>
      <trkpt lat="45.08781" lon="5.95424">
        <ele>2477.94</ele>
        <time>2018-09-02T12:17:22Z</time>
      </trkpt>
      <trkpt lat="45.08783" lon="5.95428">
        <ele>2480.34</ele>
        <time>2018-09-02T12:17:35Z</time>
      </trkpt>
      <trkpt lat="45.08787" lon="5.95431">
        <ele>2481.78</ele>
        <time>2018-09-02T12:17:46Z</time>
      </trkpt>
      <trkpt lat="45.08788" lon="5.95439">
        <ele>2484.66</ele>
        <time>2018-09-02T12:18:01Z</time>
      </trkpt>
      <trkpt lat="45.08793" lon="5.95444">
        <ele>2486.11</ele>
        <time>2018-09-02T12:18:13Z</time>
      </trkpt>
      <trkpt lat="45.08795" lon="5.95446">
        <ele>2488.99</ele>
        <time>2018-09-02T12:18:24Z</time>
      </trkpt>
      <trkpt lat="45.08799" lon="5.95453">
        <ele>2491.39</ele>
        <time>2018-09-02T12:18:38Z</time>
      </trkpt>
      <trkpt lat="45.08801" lon="5.95457">
        <ele>2494.28</ele>
        <time>2018-09-02T12:18:53Z</time>
      </trkpt>
      <trkpt lat="45.08803" lon="5.95463">
        <ele>2495.72</ele>
        <time>2018-09-02T12:19:06Z</time>
      </trkpt>
      <trkpt lat="45.08802" lon="5.95472">
        <ele>2497.64</ele>
        <time>2018-09-02T12:19:21Z</time>
      </trkpt>
      <trkpt lat="45.08802" lon="5.95482">
        <ele>2499.08</ele>
        <time>2018-09-02T12:19:35Z</time>
      </trkpt>
      <trkpt lat="45.08803" lon="5.95493">
        <ele>2501.97</ele>
        <time>2018-09-02T12:19:50Z</time>
      </trkpt>
      <trkpt lat="45.08808" lon="5.95498">
        <ele>2503.89</ele>
        <time>2018-09-02T12:20:05Z</time>
      </trkpt>
      <trkpt lat="45.08809" lon="5.95504">
        <ele>2506.29</ele>
        <time>2018-09-02T12:20:20Z</time>
      </trkpt>
      <trkpt lat="45.08812" lon="5.95511">
        <ele>2507.74</ele>
        <time>2018-09-02T12:20:33Z</time>
      </trkpt>
      <trkpt lat="45.08811" lon="5.95516">
        <ele>2510.14</ele>
        <time>2018-09-02T12:20:45Z</time>
      </trkpt>
      <trkpt lat="45.08812" lon="5.95527">
        <ele>2512.54</ele>
        <time>2018-09-02T12:21:00Z</time>
      </trkpt>
      <trkpt lat="45.08815" lon="5.95531">
        <ele>2514.47</ele>
        <time>2018-09-02T12:21:16Z</time>
      </trkpt>
      <trkpt lat="45.08816" lon="5.9554">
        <ele>2516.87</ele>
        <time>2018-09-02T12:21:29Z</time>
      </trkpt>
      <trkpt lat="45.08817" lon="5.95551">
        <ele>2518.79</ele>
        <time>2018-09-02T12:21:44Z</time>
      </trkpt>
      <trkpt lat="45.0882" lon="5.95561">
        <ele>2522.16</ele>
        <time>2018-09-02T12:21:59Z</time>
      </trkpt>
      <trkpt lat="45.08821" lon="5.95562">
        <ele>2522.16</ele>
        <time>2018-09-02T12:22:00Z</time>
      </trkpt>
      <trkpt lat="45.08824" lon="5.95572">
        <ele>2525.04</ele>
        <time>2018-09-02T12:22:16Z</time>
      </trkpt>
      <trkpt lat="45.08827" lon="5.95577">
        <ele>2526.96</ele>
        <time>2018-09-02T12:22:29Z</time>
      </trkpt>
      <trkpt lat="45.08831" lon="5.95584">
        <ele>2528.4</ele>
        <time>2018-09-02T12:22:40Z</time>
      </trkpt>
      <trkpt lat="45.08835" lon="5.95593">
        <ele>2529.37</ele>
        <time>2018-09-02T12:22:53Z</time>
      </trkpt>
      <trkpt lat="45.08835" lon="5.95592">
        <ele>2530.81</ele>
        <time>2018-09-02T12:22:56Z</time>
      </trkpt>
      <trkpt lat="45.08836" lon="5.95601">
        <ele>2531.77</ele>
        <time>2018-09-02T12:23:09Z</time>
      </trkpt>
      <trkpt lat="45.08838" lon="5.95604">
        <ele>2535.13</ele>
        <time>2018-09-02T12:23:21Z</time>
      </trkpt>
      <trkpt lat="45.08839" lon="5.9561">
        <ele>2534.17</ele>
        <time>2018-09-02T12:23:43Z</time>
      </trkpt>
      <trkpt lat="45.08843" lon="5.95617">
        <ele>2536.1</ele>
        <time>2018-09-02T12:23:55Z</time>
      </trkpt>
      <trkpt lat="45.08849" lon="5.95628">
        <ele>2538.98</ele>
        <time>2018-09-02T12:24:09Z</time>
      </trkpt>
      <trkpt lat="45.08853" lon="5.95639">
        <ele>2540.42</ele>
        <time>2018-09-02T12:24:22Z</time>
      </trkpt>
      <trkpt lat="45.08859" lon="5.95646">
        <ele>2543.31</ele>
        <time>2018-09-02T12:24:38Z</time>
      </trkpt>
      <trkpt lat="45.08864" lon="5.95656">
        <ele>2544.75</ele>
        <time>2018-09-02T12:24:54Z</time>
      </trkpt>
      <trkpt lat="45.08867" lon="5.95665">
        <ele>2545.23</ele>
        <time>2018-09-02T12:25:07Z</time>
      </trkpt>
      <trkpt lat="45.08867" lon="5.95674">
        <ele>2547.15</ele>
        <time>2018-09-02T12:25:21Z</time>
      </trkpt>
      <trkpt lat="45.0887" lon="5.95677">
        <ele>2549.55</ele>
        <time>2018-09-02T12:25:36Z</time>
      </trkpt>
      <trkpt lat="45.08873" lon="5.95685">
        <ele>2552.44</ele>
        <time>2018-09-02T12:25:52Z</time>
      </trkpt>
      <trkpt lat="45.08873" lon="5.95686">
        <ele>2550.51</ele>
        <time>2018-09-02T12:26:13Z</time>
      </trkpt>
      <trkpt lat="45.08873" lon="5.95685">
        <ele>2551</ele>
        <time>2018-09-02T12:26:36Z</time>
      </trkpt>
      <trkpt lat="45.08874" lon="5.95685">
        <ele>2551</ele>
        <time>2018-09-02T12:26:59Z</time>
      </trkpt>
      <trkpt lat="45.08874" lon="5.95685">
        <ele>2551</ele>
        <time>2018-09-02T12:27:00Z</time>
      </trkpt>
      <trkpt lat="45.08872" lon="5.95685">
        <ele>2551</ele>
        <time>2018-09-02T12:27:22Z</time>
      </trkpt>
      <trkpt lat="45.08874" lon="5.95681">
        <ele>2551</ele>
        <time>2018-09-02T12:27:43Z</time>
      </trkpt>
      <trkpt lat="45.08873" lon="5.95685">
        <ele>2551.48</ele>
        <time>2018-09-02T12:28:00Z</time>
      </trkpt>
      <trkpt lat="45.0887" lon="5.95682">
        <ele>2551</ele>
        <time>2018-09-02T12:28:20Z</time>
      </trkpt>
      <trkpt lat="45.08871" lon="5.95684">
        <ele>2551</ele>
        <time>2018-09-02T12:28:49Z</time>
      </trkpt>
      <trkpt lat="45.08872" lon="5.95686">
        <ele>2551</ele>
        <time>2018-09-02T12:29:06Z</time>
      </trkpt>
      <trkpt lat="45.08872" lon="5.95686">
        <ele>2554.36</ele>
        <time>2018-09-02T12:29:23Z</time>
      </trkpt>
      <trkpt lat="45.08872" lon="5.95687">
        <ele>2551.96</ele>
        <time>2018-09-02T12:29:27Z</time>
      </trkpt>
      <trkpt lat="45.0887" lon="5.95685">
        <ele>2551</ele>
        <time>2018-09-02T12:29:48Z</time>
      </trkpt>
      <trkpt lat="45.08874" lon="5.95693">
        <ele>2551.48</ele>
        <time>2018-09-02T12:30:02Z</time>
      </trkpt>
      <trkpt lat="45.08874" lon="5.95696">
        <ele>2551.48</ele>
        <time>2018-09-02T12:30:04Z</time>
      </trkpt>
      <trkpt lat="45.08874" lon="5.95701">
        <ele>2552.92</ele>
        <time>2018-09-02T12:30:09Z</time>
      </trkpt>
      <trkpt lat="45.08879" lon="5.95715">
        <ele>2552.92</ele>
        <time>2018-09-02T12:30:23Z</time>
      </trkpt>
      <trkpt lat="45.08883" lon="5.95728">
        <ele>2551.48</ele>
        <time>2018-09-02T12:30:35Z</time>
      </trkpt>
      <trkpt lat="45.08886" lon="5.95744">
        <ele>2550.03</ele>
        <time>2018-09-02T12:30:50Z</time>
      </trkpt>
      <trkpt lat="45.08888" lon="5.95755">
        <ele>2548.59</ele>
        <time>2018-09-02T12:31:02Z</time>
      </trkpt>
      <trkpt lat="45.08895" lon="5.95766">
        <ele>2549.55</ele>
        <time>2018-09-02T12:31:17Z</time>
      </trkpt>
      <trkpt lat="45.08902" lon="5.95771">
        <ele>2551</ele>
        <time>2018-09-02T12:31:33Z</time>
      </trkpt>
      <trkpt lat="45.08906" lon="5.95778">
        <ele>2551.96</ele>
        <time>2018-09-02T12:31:46Z</time>
      </trkpt>
      <trkpt lat="45.08914" lon="5.95787">
        <ele>2553.4</ele>
        <time>2018-09-02T12:32:01Z</time>
      </trkpt>
      <trkpt lat="45.0892" lon="5.95798">
        <ele>2552.92</ele>
        <time>2018-09-02T12:32:15Z</time>
      </trkpt>
      <trkpt lat="45.08927" lon="5.95804">
        <ele>2554.36</ele>
        <time>2018-09-02T12:32:29Z</time>
      </trkpt>
      <trkpt lat="45.08933" lon="5.95812">
        <ele>2554.84</ele>
        <time>2018-09-02T12:32:41Z</time>
      </trkpt>
      <trkpt lat="45.0894" lon="5.95819">
        <ele>2555.8</ele>
        <time>2018-09-02T12:32:54Z</time>
      </trkpt>
      <trkpt lat="45.0895" lon="5.95827">
        <ele>2557.24</ele>
        <time>2018-09-02T12:33:08Z</time>
      </trkpt>
      <trkpt lat="45.08958" lon="5.95836">
        <ele>2556.76</ele>
        <time>2018-09-02T12:33:22Z</time>
      </trkpt>
      <trkpt lat="45.08965" lon="5.95844">
        <ele>2556.28</ele>
        <time>2018-09-02T12:33:31Z</time>
      </trkpt>
      <trkpt lat="45.08969" lon="5.95848">
        <ele>2555.8</ele>
        <time>2018-09-02T12:33:40Z</time>
      </trkpt>
      <trkpt lat="45.08979" lon="5.95855">
        <ele>2555.32</ele>
        <time>2018-09-02T12:33:55Z</time>
      </trkpt>
      <trkpt lat="45.08986" lon="5.95862">
        <ele>2556.76</ele>
        <time>2018-09-02T12:34:09Z</time>
      </trkpt>
      <trkpt lat="45.08993" lon="5.95875">
        <ele>2556.76</ele>
        <time>2018-09-02T12:34:23Z</time>
      </trkpt>
      <trkpt lat="45.08999" lon="5.95886">
        <ele>2557.24</ele>
        <time>2018-09-02T12:34:36Z</time>
      </trkpt>
      <trkpt lat="45.09008" lon="5.95896">
        <ele>2560.13</ele>
        <time>2018-09-02T12:34:51Z</time>
      </trkpt>
      <trkpt lat="45.09016" lon="5.95906">
        <ele>2561.57</ele>
        <time>2018-09-02T12:35:05Z</time>
      </trkpt>
      <trkpt lat="45.09024" lon="5.95918">
        <ele>2563.97</ele>
        <time>2018-09-02T12:35:20Z</time>
      </trkpt>
      <trkpt lat="45.09024" lon="5.9592">
        <ele>2563.49</ele>
        <time>2018-09-02T12:35:22Z</time>
      </trkpt>
      <trkpt lat="45.09031" lon="5.95933">
        <ele>2563.01</ele>
        <time>2018-09-02T12:35:37Z</time>
      </trkpt>
      <trkpt lat="45.09035" lon="5.95937">
        <ele>2563.49</ele>
        <time>2018-09-02T12:35:51Z</time>
      </trkpt>
      <trkpt lat="45.09034" lon="5.95938">
        <ele>2563.49</ele>
        <time>2018-09-02T12:36:21Z</time>
      </trkpt>
      <trkpt lat="45.09035" lon="5.95939">
        <ele>2563.97</ele>
        <time>2018-09-02T12:36:41Z</time>
      </trkpt>
      <trkpt lat="45.09034" lon="5.95942">
        <ele>2563.49</ele>
        <time>2018-09-02T12:36:50Z</time>
      </trkpt>
      <trkpt lat="45.09035" lon="5.9594">
        <ele>2563.97</ele>
        <time>2018-09-02T12:37:06Z</time>
      </trkpt>
      <trkpt lat="45.09034" lon="5.95941">
        <ele>2563.97</ele>
        <time>2018-09-02T12:37:34Z</time>
      </trkpt>
      <trkpt lat="45.09033" lon="5.95936">
        <ele>2563.97</ele>
        <time>2018-09-02T12:37:58Z</time>
      </trkpt>
      <trkpt lat="45.09032" lon="5.95934">
        <ele>2563.97</ele>
        <time>2018-09-02T12:38:14Z</time>
      </trkpt>
      <trkpt lat="45.09031" lon="5.95938">
        <ele>2563.49</ele>
        <time>2018-09-02T12:38:34Z</time>
      </trkpt>
      <trkpt lat="45.09033" lon="5.95937">
        <ele>2563.49</ele>
        <time>2018-09-02T12:38:52Z</time>
      </trkpt>
      <trkpt lat="45.09033" lon="5.95935">
        <ele>2563.49</ele>
        <time>2018-09-02T12:39:21Z</time>
      </trkpt>
      <trkpt lat="45.09032" lon="5.95939">
        <ele>2563.97</ele>
        <time>2018-09-02T12:39:41Z</time>
      </trkpt>
      <trkpt lat="45.09033" lon="5.9594">
        <ele>2563.97</ele>
        <time>2018-09-02T12:40:10Z</time>
      </trkpt>
      <trkpt lat="45.09034" lon="5.95937">
        <ele>2563.97</ele>
        <time>2018-09-02T12:40:33Z</time>
      </trkpt>
      <trkpt lat="45.09033" lon="5.95934">
        <ele>2564.45</ele>
        <time>2018-09-02T12:40:55Z</time>
      </trkpt>
      <trkpt lat="45.09031" lon="5.95936">
        <ele>2563.49</ele>
        <time>2018-09-02T12:41:10Z</time>
      </trkpt>
      <trkpt lat="45.0903" lon="5.95936">
        <ele>2563.01</ele>
        <time>2018-09-02T12:41:48Z</time>
      </trkpt>
      <trkpt lat="45.09032" lon="5.95937">
        <ele>2563.49</ele>
        <time>2018-09-02T12:42:16Z</time>
      </trkpt>
      <trkpt lat="45.09035" lon="5.95938">
        <ele>2563.97</ele>
        <time>2018-09-02T12:42:38Z</time>
      </trkpt>
      <trkpt lat="45.09035" lon="5.95937">
        <ele>2563.97</ele>
        <time>2018-09-02T12:43:02Z</time>
      </trkpt>
      <trkpt lat="45.09032" lon="5.95932">
        <ele>2564.45</ele>
        <time>2018-09-02T12:43:22Z</time>
      </trkpt>
      <trkpt lat="45.09032" lon="5.95934">
        <ele>2564.45</ele>
        <time>2018-09-02T12:43:43Z</time>
      </trkpt>
      <trkpt lat="45.09032" lon="5.95934">
        <ele>2564.45</ele>
        <time>2018-09-02T12:44:06Z</time>
      </trkpt>
      <trkpt lat="45.09032" lon="5.95934">
        <ele>2563.97</ele>
        <time>2018-09-02T12:44:27Z</time>
      </trkpt>
      <trkpt lat="45.09031" lon="5.95933">
        <ele>2563.97</ele>
        <time>2018-09-02T12:44:48Z</time>
      </trkpt>
      <trkpt lat="45.09031" lon="5.95931">
        <ele>2564.45</ele>
        <time>2018-09-02T12:45:10Z</time>
      </trkpt>
      <trkpt lat="45.09032" lon="5.95933">
        <ele>2563.01</ele>
        <time>2018-09-02T12:45:35Z</time>
      </trkpt>
      <trkpt lat="45.0903" lon="5.95932">
        <ele>2563.49</ele>
        <time>2018-09-02T12:45:54Z</time>
      </trkpt>
      <trkpt lat="45.09029" lon="5.9593">
        <ele>2562.53</ele>
        <time>2018-09-02T12:46:12Z</time>
      </trkpt>
      <trkpt lat="45.09029" lon="5.95931">
        <ele>2563.97</ele>
        <time>2018-09-02T12:46:34Z</time>
      </trkpt>
      <trkpt lat="45.09025" lon="5.95926">
        <ele>2562.05</ele>
        <time>2018-09-02T12:46:47Z</time>
      </trkpt>
      <trkpt lat="45.09018" lon="5.95913">
        <ele>2561.09</ele>
        <time>2018-09-02T12:47:02Z</time>
      </trkpt>
      <trkpt lat="45.09012" lon="5.95905">
        <ele>2560.61</ele>
        <time>2018-09-02T12:47:12Z</time>
      </trkpt>
      <trkpt lat="45.09005" lon="5.95894">
        <ele>2559.17</ele>
        <time>2018-09-02T12:47:26Z</time>
      </trkpt>
      <trkpt lat="45.08997" lon="5.95886">
        <ele>2556.28</ele>
        <time>2018-09-02T12:47:39Z</time>
      </trkpt>
      <trkpt lat="45.08996" lon="5.95885">
        <ele>2555.8</ele>
        <time>2018-09-02T12:47:41Z</time>
      </trkpt>
      <trkpt lat="45.0899" lon="5.95878">
        <ele>2554.84</ele>
        <time>2018-09-02T12:47:53Z</time>
      </trkpt>
      <trkpt lat="45.08984" lon="5.95873">
        <ele>2552.92</ele>
        <time>2018-09-02T12:48:08Z</time>
      </trkpt>
      <trkpt lat="45.0898" lon="5.95873">
        <ele>2550.51</ele>
        <time>2018-09-02T12:48:18Z</time>
      </trkpt>
      <trkpt lat="45.08975" lon="5.95878">
        <ele>2549.07</ele>
        <time>2018-09-02T12:48:29Z</time>
      </trkpt>
      <trkpt lat="45.08971" lon="5.95881">
        <ele>2545.71</ele>
        <time>2018-09-02T12:48:42Z</time>
      </trkpt>
      <trkpt lat="45.08967" lon="5.95885">
        <ele>2543.79</ele>
        <time>2018-09-02T12:48:54Z</time>
      </trkpt>
      <trkpt lat="45.08966" lon="5.95897">
        <ele>2539.94</ele>
        <time>2018-09-02T12:49:08Z</time>
      </trkpt>
      <trkpt lat="45.08966" lon="5.95898">
        <ele>2539.46</ele>
        <time>2018-09-02T12:49:09Z</time>
      </trkpt>
      <trkpt lat="45.08966" lon="5.95904">
        <ele>2538.98</ele>
        <time>2018-09-02T12:49:15Z</time>
      </trkpt>
      <trkpt lat="45.08966" lon="5.95911">
        <ele>2538.02</ele>
        <time>2018-09-02T12:49:23Z</time>
      </trkpt>
      <trkpt lat="45.0896" lon="5.95912">
        <ele>2535.13</ele>
        <time>2018-09-02T12:49:37Z</time>
      </trkpt>
      <trkpt lat="45.08952" lon="5.95911">
        <ele>2532.25</ele>
        <time>2018-09-02T12:49:50Z</time>
      </trkpt>
      <trkpt lat="45.08942" lon="5.95914">
        <ele>2529.37</ele>
        <time>2018-09-02T12:50:06Z</time>
      </trkpt>
      <trkpt lat="45.08935" lon="5.95912">
        <ele>2527.44</ele>
        <time>2018-09-02T12:50:18Z</time>
      </trkpt>
      <trkpt lat="45.08927" lon="5.95919">
        <ele>2524.08</ele>
        <time>2018-09-02T12:50:30Z</time>
      </trkpt>
      <trkpt lat="45.08925" lon="5.95924">
        <ele>2523.12</ele>
        <time>2018-09-02T12:50:44Z</time>
      </trkpt>
      <trkpt lat="45.08923" lon="5.95923">
        <ele>2522.64</ele>
        <time>2018-09-02T12:50:46Z</time>
      </trkpt>
      <trkpt lat="45.0891" lon="5.95921">
        <ele>2519.27</ele>
        <time>2018-09-02T12:51:00Z</time>
      </trkpt>
      <trkpt lat="45.08899" lon="5.95926">
        <ele>2516.39</ele>
        <time>2018-09-02T12:51:13Z</time>
      </trkpt>
      <trkpt lat="45.08893" lon="5.95925">
        <ele>2513.98</ele>
        <time>2018-09-02T12:51:21Z</time>
      </trkpt>
      <trkpt lat="45.08883" lon="5.95923">
        <ele>2510.62</ele>
        <time>2018-09-02T12:51:35Z</time>
      </trkpt>
      <trkpt lat="45.08875" lon="5.95922">
        <ele>2508.22</ele>
        <time>2018-09-02T12:51:48Z</time>
      </trkpt>
      <trkpt lat="45.0887" lon="5.95921">
        <ele>2506.29</ele>
        <time>2018-09-02T12:51:58Z</time>
      </trkpt>
      <trkpt lat="45.08864" lon="5.95919">
        <ele>2505.33</ele>
        <time>2018-09-02T12:52:15Z</time>
      </trkpt>
      <trkpt lat="45.0886" lon="5.95917">
        <ele>2504.37</ele>
        <time>2018-09-02T12:52:41Z</time>
      </trkpt>
      <trkpt lat="45.08855" lon="5.95917">
        <ele>2501.97</ele>
        <time>2018-09-02T12:52:54Z</time>
      </trkpt>
      <trkpt lat="45.08847" lon="5.95913">
        <ele>2501.01</ele>
        <time>2018-09-02T12:53:08Z</time>
      </trkpt>
      <trkpt lat="45.08842" lon="5.95911">
        <ele>2499.57</ele>
        <time>2018-09-02T12:53:21Z</time>
      </trkpt>
      <trkpt lat="45.08833" lon="5.9591">
        <ele>2496.68</ele>
        <time>2018-09-02T12:53:37Z</time>
      </trkpt>
      <trkpt lat="45.08825" lon="5.95902">
        <ele>2495.72</ele>
        <time>2018-09-02T12:53:52Z</time>
      </trkpt>
      <trkpt lat="45.08817" lon="5.95895">
        <ele>2493.32</ele>
        <time>2018-09-02T12:54:07Z</time>
      </trkpt>
      <trkpt lat="45.08814" lon="5.95894">
        <ele>2491.87</ele>
        <time>2018-09-02T12:54:12Z</time>
      </trkpt>
      <trkpt lat="45.08808" lon="5.9589">
        <ele>2489.95</ele>
        <time>2018-09-02T12:54:23Z</time>
      </trkpt>
      <trkpt lat="45.08802" lon="5.95893">
        <ele>2488.51</ele>
        <time>2018-09-02T12:54:31Z</time>
      </trkpt>
      <trkpt lat="45.08797" lon="5.95892">
        <ele>2486.59</ele>
        <time>2018-09-02T12:54:38Z</time>
      </trkpt>
      <trkpt lat="45.08792" lon="5.9589">
        <ele>2483.7</ele>
        <time>2018-09-02T12:54:49Z</time>
      </trkpt>
      <trkpt lat="45.08784" lon="5.95885">
        <ele>2481.78</ele>
        <time>2018-09-02T12:55:02Z</time>
      </trkpt>
      <trkpt lat="45.08778" lon="5.95882">
        <ele>2481.3</ele>
        <time>2018-09-02T12:55:15Z</time>
      </trkpt>
      <trkpt lat="45.08771" lon="5.9588">
        <ele>2477.45</ele>
        <time>2018-09-02T12:55:26Z</time>
      </trkpt>
      <trkpt lat="45.08762" lon="5.95873">
        <ele>2476.01</ele>
        <time>2018-09-02T12:55:41Z</time>
      </trkpt>
      <trkpt lat="45.0876" lon="5.95871">
        <ele>2476.49</ele>
        <time>2018-09-02T12:55:43Z</time>
      </trkpt>
      <trkpt lat="45.08754" lon="5.95863">
        <ele>2475.05</ele>
        <time>2018-09-02T12:55:51Z</time>
      </trkpt>
      <trkpt lat="45.08744" lon="5.95853">
        <ele>2473.13</ele>
        <time>2018-09-02T12:56:04Z</time>
      </trkpt>
      <trkpt lat="45.08733" lon="5.95832">
        <ele>2469.28</ele>
        <time>2018-09-02T12:56:21Z</time>
      </trkpt>
      <trkpt lat="45.08731" lon="5.95826">
        <ele>2469.76</ele>
        <time>2018-09-02T12:56:35Z</time>
      </trkpt>
      <trkpt lat="45.08728" lon="5.95815">
        <ele>2466.88</ele>
        <time>2018-09-02T12:56:50Z</time>
      </trkpt>
      <trkpt lat="45.08727" lon="5.95806">
        <ele>2464</ele>
        <time>2018-09-02T12:56:59Z</time>
      </trkpt>
      <trkpt lat="45.08724" lon="5.95795">
        <ele>2461.59</ele>
        <time>2018-09-02T12:57:13Z</time>
      </trkpt>
      <trkpt lat="45.08716" lon="5.95783">
        <ele>2458.71</ele>
        <time>2018-09-02T12:57:28Z</time>
      </trkpt>
      <trkpt lat="45.08707" lon="5.95769">
        <ele>2455.34</ele>
        <time>2018-09-02T12:57:43Z</time>
      </trkpt>
      <trkpt lat="45.08701" lon="5.9576">
        <ele>2452.46</ele>
        <time>2018-09-02T12:57:56Z</time>
      </trkpt>
      <trkpt lat="45.08695" lon="5.9575">
        <ele>2448.62</ele>
        <time>2018-09-02T12:58:10Z</time>
      </trkpt>
      <trkpt lat="45.08692" lon="5.95737">
        <ele>2445.73</ele>
        <time>2018-09-02T12:58:23Z</time>
      </trkpt>
      <trkpt lat="45.08684" lon="5.95718">
        <ele>2444.29</ele>
        <time>2018-09-02T12:58:37Z</time>
      </trkpt>
      <trkpt lat="45.08677" lon="5.95708">
        <ele>2442.37</ele>
        <time>2018-09-02T12:58:46Z</time>
      </trkpt>
      <trkpt lat="45.08669" lon="5.95697">
        <ele>2440.44</ele>
        <time>2018-09-02T12:58:57Z</time>
      </trkpt>
      <trkpt lat="45.08665" lon="5.95691">
        <ele>2439.48</ele>
        <time>2018-09-02T12:59:03Z</time>
      </trkpt>
      <trkpt lat="45.0866" lon="5.95672">
        <ele>2436.6</ele>
        <time>2018-09-02T12:59:19Z</time>
      </trkpt>
      <trkpt lat="45.08659" lon="5.95665">
        <ele>2434.68</ele>
        <time>2018-09-02T12:59:24Z</time>
      </trkpt>
      <trkpt lat="45.08652" lon="5.9566">
        <ele>2432.27</ele>
        <time>2018-09-02T12:59:31Z</time>
      </trkpt>
      <trkpt lat="45.08645" lon="5.9565">
        <ele>2430.35</ele>
        <time>2018-09-02T12:59:44Z</time>
      </trkpt>
      <trkpt lat="45.08644" lon="5.95647">
        <ele>2429.39</ele>
        <time>2018-09-02T12:59:47Z</time>
      </trkpt>
      <trkpt lat="45.08643" lon="5.95645">
        <ele>2428.91</ele>
        <time>2018-09-02T12:59:50Z</time>
      </trkpt>
      <trkpt lat="45.08647" lon="5.95631">
        <ele>2425.54</ele>
        <time>2018-09-02T13:00:04Z</time>
      </trkpt>
      <trkpt lat="45.08649" lon="5.95617">
        <ele>2422.66</ele>
        <time>2018-09-02T13:00:17Z</time>
      </trkpt>
      <trkpt lat="45.08651" lon="5.95611">
        <ele>2421.7</ele>
        <time>2018-09-02T13:00:30Z</time>
      </trkpt>
      <trkpt lat="45.08651" lon="5.95598">
        <ele>2418.33</ele>
        <time>2018-09-02T13:00:42Z</time>
      </trkpt>
      <trkpt lat="45.0865" lon="5.95586">
        <ele>2414.97</ele>
        <time>2018-09-02T13:00:55Z</time>
      </trkpt>
      <trkpt lat="45.0865" lon="5.95585">
        <ele>2414.97</ele>
        <time>2018-09-02T13:00:56Z</time>
      </trkpt>
      <trkpt lat="45.08648" lon="5.95576">
        <ele>2413.05</ele>
        <time>2018-09-02T13:01:10Z</time>
      </trkpt>
      <trkpt lat="45.08651" lon="5.95568">
        <ele>2411.12</ele>
        <time>2018-09-02T13:01:26Z</time>
      </trkpt>
      <trkpt lat="45.08652" lon="5.95563">
        <ele>2409.68</ele>
        <time>2018-09-02T13:01:40Z</time>
      </trkpt>
      <trkpt lat="45.08651" lon="5.95558">
        <ele>2408.24</ele>
        <time>2018-09-02T13:01:45Z</time>
      </trkpt>
      <trkpt lat="45.0865" lon="5.95548">
        <ele>2406.32</ele>
        <time>2018-09-02T13:01:55Z</time>
      </trkpt>
      <trkpt lat="45.08643" lon="5.95542">
        <ele>2402.95</ele>
        <time>2018-09-02T13:02:07Z</time>
      </trkpt>
      <trkpt lat="45.0864" lon="5.95544">
        <ele>2401.51</ele>
        <time>2018-09-02T13:02:12Z</time>
      </trkpt>
      <trkpt lat="45.08639" lon="5.95533">
        <ele>2398.63</ele>
        <time>2018-09-02T13:02:25Z</time>
      </trkpt>
      <trkpt lat="45.08635" lon="5.95528">
        <ele>2395.26</ele>
        <time>2018-09-02T13:02:36Z</time>
      </trkpt>
      <trkpt lat="45.08629" lon="5.95524">
        <ele>2392.86</ele>
        <time>2018-09-02T13:02:49Z</time>
      </trkpt>
      <trkpt lat="45.08626" lon="5.95519">
        <ele>2389.01</ele>
        <time>2018-09-02T13:02:59Z</time>
      </trkpt>
      <trkpt lat="45.08628" lon="5.95509">
        <ele>2388.05</ele>
        <time>2018-09-02T13:03:13Z</time>
      </trkpt>
      <trkpt lat="45.08618" lon="5.95506">
        <ele>2384.69</ele>
        <time>2018-09-02T13:03:25Z</time>
      </trkpt>
      <trkpt lat="45.0861" lon="5.95509">
        <ele>2382.76</ele>
        <time>2018-09-02T13:03:37Z</time>
      </trkpt>
      <trkpt lat="45.08607" lon="5.95509">
        <ele>2381.32</ele>
        <time>2018-09-02T13:03:42Z</time>
      </trkpt>
      <trkpt lat="45.08611" lon="5.95504">
        <ele>2378.92</ele>
        <time>2018-09-02T13:03:51Z</time>
      </trkpt>
      <trkpt lat="45.08618" lon="5.95491">
        <ele>2377.96</ele>
        <time>2018-09-02T13:04:05Z</time>
      </trkpt>
      <trkpt lat="45.08623" lon="5.95485">
        <ele>2377</ele>
        <time>2018-09-02T13:04:19Z</time>
      </trkpt>
      <trkpt lat="45.0862" lon="5.95473">
        <ele>2374.59</ele>
        <time>2018-09-02T13:04:33Z</time>
      </trkpt>
      <trkpt lat="45.08616" lon="5.95466">
        <ele>2371.23</ele>
        <time>2018-09-02T13:04:45Z</time>
      </trkpt>
      <trkpt lat="45.08614" lon="5.95459">
        <ele>2368.83</ele>
        <time>2018-09-02T13:05:00Z</time>
      </trkpt>
      <trkpt lat="45.08612" lon="5.95449">
        <ele>2367.86</ele>
        <time>2018-09-02T13:05:13Z</time>
      </trkpt>
      <trkpt lat="45.08603" lon="5.95441">
        <ele>2364.5</ele>
        <time>2018-09-02T13:05:26Z</time>
      </trkpt>
      <trkpt lat="45.08598" lon="5.95431">
        <ele>2361.14</ele>
        <time>2018-09-02T13:05:36Z</time>
      </trkpt>
      <trkpt lat="45.08594" lon="5.95431">
        <ele>2360.17</ele>
        <time>2018-09-02T13:05:46Z</time>
      </trkpt>
      <trkpt lat="45.08588" lon="5.9543">
        <ele>2357.29</ele>
        <time>2018-09-02T13:05:59Z</time>
      </trkpt>
      <trkpt lat="45.0858" lon="5.95428">
        <ele>2353.93</ele>
        <time>2018-09-02T13:06:11Z</time>
      </trkpt>
      <trkpt lat="45.08576" lon="5.95425">
        <ele>2350.56</ele>
        <time>2018-09-02T13:06:19Z</time>
      </trkpt>
      <trkpt lat="45.0857" lon="5.95417">
        <ele>2348.64</ele>
        <time>2018-09-02T13:06:37Z</time>
      </trkpt>
      <trkpt lat="45.08569" lon="5.95416">
        <ele>2347.68</ele>
        <time>2018-09-02T13:06:45Z</time>
      </trkpt>
      <trkpt lat="45.08563" lon="5.95405">
        <ele>2346.72</ele>
        <time>2018-09-02T13:07:00Z</time>
      </trkpt>
      <trkpt lat="45.08556" lon="5.95397">
        <ele>2343.83</ele>
        <time>2018-09-02T13:07:13Z</time>
      </trkpt>
      <trkpt lat="45.08552" lon="5.95396">
        <ele>2342.39</ele>
        <time>2018-09-02T13:07:17Z</time>
      </trkpt>
      <trkpt lat="45.08543" lon="5.9539">
        <ele>2341.43</ele>
        <time>2018-09-02T13:07:29Z</time>
      </trkpt>
      <trkpt lat="45.08539" lon="5.95385">
        <ele>2340.47</ele>
        <time>2018-09-02T13:07:37Z</time>
      </trkpt>
      <trkpt lat="45.08534" lon="5.95383">
        <ele>2339.51</ele>
        <time>2018-09-02T13:07:44Z</time>
      </trkpt>
      <trkpt lat="45.08529" lon="5.95372">
        <ele>2340.95</ele>
        <time>2018-09-02T13:07:58Z</time>
      </trkpt>
      <trkpt lat="45.08528" lon="5.95365">
        <ele>2340.95</ele>
        <time>2018-09-02T13:08:10Z</time>
      </trkpt>
      <trkpt lat="45.08527" lon="5.95365">
        <ele>2340.95</ele>
        <time>2018-09-02T13:08:26Z</time>
      </trkpt>
      <trkpt lat="45.08525" lon="5.95366">
        <ele>2339.99</ele>
        <time>2018-09-02T13:08:50Z</time>
      </trkpt>
      <trkpt lat="45.08526" lon="5.95363">
        <ele>2341.43</ele>
        <time>2018-09-02T13:09:17Z</time>
      </trkpt>
      <trkpt lat="45.08525" lon="5.95364">
        <ele>2340.47</ele>
        <time>2018-09-02T13:09:34Z</time>
      </trkpt>
      <trkpt lat="45.08523" lon="5.95363">
        <ele>2340.47</ele>
        <time>2018-09-02T13:09:57Z</time>
      </trkpt>
      <trkpt lat="45.0852" lon="5.95354">
        <ele>2341.91</ele>
        <time>2018-09-02T13:10:09Z</time>
      </trkpt>
      <trkpt lat="45.08512" lon="5.9534">
        <ele>2340.95</ele>
        <time>2018-09-02T13:10:22Z</time>
      </trkpt>
      <trkpt lat="45.08512" lon="5.95339">
        <ele>2341.43</ele>
        <time>2018-09-02T13:10:23Z</time>
      </trkpt>
      <trkpt lat="45.08506" lon="5.95331">
        <ele>2340.47</ele>
        <time>2018-09-02T13:10:36Z</time>
      </trkpt>
      <trkpt lat="45.08498" lon="5.95315">
        <ele>2339.51</ele>
        <time>2018-09-02T13:10:49Z</time>
      </trkpt>
      <trkpt lat="45.08497" lon="5.95303">
        <ele>2339.51</ele>
        <time>2018-09-02T13:11:03Z</time>
      </trkpt>
      <trkpt lat="45.08495" lon="5.9529">
        <ele>2338.54</ele>
        <time>2018-09-02T13:11:14Z</time>
      </trkpt>
      <trkpt lat="45.08495" lon="5.95289">
        <ele>2338.54</ele>
        <time>2018-09-02T13:11:16Z</time>
      </trkpt>
      <trkpt lat="45.08489" lon="5.95277">
        <ele>2338.54</ele>
        <time>2018-09-02T13:11:28Z</time>
      </trkpt>
      <trkpt lat="45.0849" lon="5.95266">
        <ele>2336.62</ele>
        <time>2018-09-02T13:11:39Z</time>
      </trkpt>
      <trkpt lat="45.08493" lon="5.95254">
        <ele>2335.18</ele>
        <time>2018-09-02T13:11:49Z</time>
      </trkpt>
      <trkpt lat="45.08494" lon="5.95251">
        <ele>2335.18</ele>
        <time>2018-09-02T13:11:52Z</time>
      </trkpt>
      <trkpt lat="45.08498" lon="5.95244">
        <ele>2335.18</ele>
        <time>2018-09-02T13:11:58Z</time>
      </trkpt>
      <trkpt lat="45.08502" lon="5.95227">
        <ele>2336.14</ele>
        <time>2018-09-02T13:12:14Z</time>
      </trkpt>
      <trkpt lat="45.085" lon="5.95221">
        <ele>2336.14</ele>
        <time>2018-09-02T13:12:20Z</time>
      </trkpt>
      <trkpt lat="45.08498" lon="5.95214">
        <ele>2336.14</ele>
        <time>2018-09-02T13:12:24Z</time>
      </trkpt>
      <trkpt lat="45.08494" lon="5.95209">
        <ele>2337.1</ele>
        <time>2018-09-02T13:12:30Z</time>
      </trkpt>
      <trkpt lat="45.08486" lon="5.95194">
        <ele>2336.14</ele>
        <time>2018-09-02T13:12:43Z</time>
      </trkpt>
      <trkpt lat="45.08475" lon="5.95186">
        <ele>2333.74</ele>
        <time>2018-09-02T13:12:57Z</time>
      </trkpt>
      <trkpt lat="45.08465" lon="5.95178">
        <ele>2330.37</ele>
        <time>2018-09-02T13:13:09Z</time>
      </trkpt>
      <trkpt lat="45.08454" lon="5.95166">
        <ele>2327.97</ele>
        <time>2018-09-02T13:13:24Z</time>
      </trkpt>
      <trkpt lat="45.08451" lon="5.95162">
        <ele>2326.53</ele>
        <time>2018-09-02T13:13:29Z</time>
      </trkpt>
      <trkpt lat="45.0845" lon="5.95161">
        <ele>2326.05</ele>
        <time>2018-09-02T13:13:31Z</time>
      </trkpt>
      <trkpt lat="45.08448" lon="5.95158">
        <ele>2326.05</ele>
        <time>2018-09-02T13:13:34Z</time>
      </trkpt>
      <trkpt lat="45.08437" lon="5.95143">
        <ele>2323.64</ele>
        <time>2018-09-02T13:13:49Z</time>
      </trkpt>
      <trkpt lat="45.08433" lon="5.95131">
        <ele>2322.68</ele>
        <time>2018-09-02T13:13:58Z</time>
      </trkpt>
      <trkpt lat="45.08433" lon="5.95126">
        <ele>2322.2</ele>
        <time>2018-09-02T13:14:02Z</time>
      </trkpt>
      <trkpt lat="45.08431" lon="5.95124">
        <ele>2321.24</ele>
        <time>2018-09-02T13:14:04Z</time>
      </trkpt>
      <trkpt lat="45.08422" lon="5.95113">
        <ele>2318.36</ele>
        <time>2018-09-02T13:14:16Z</time>
      </trkpt>
      <trkpt lat="45.08417" lon="5.95101">
        <ele>2316.91</ele>
        <time>2018-09-02T13:14:26Z</time>
      </trkpt>
      <trkpt lat="45.08416" lon="5.95098">
        <ele>2317.4</ele>
        <time>2018-09-02T13:14:29Z</time>
      </trkpt>
      <trkpt lat="45.08411" lon="5.95089">
        <ele>2317.4</ele>
        <time>2018-09-02T13:14:40Z</time>
      </trkpt>
      <trkpt lat="45.08408" lon="5.95087">
        <ele>2315.95</ele>
        <time>2018-09-02T13:14:54Z</time>
      </trkpt>
      <trkpt lat="45.084" lon="5.95089">
        <ele>2312.59</ele>
        <time>2018-09-02T13:15:04Z</time>
      </trkpt>
      <trkpt lat="45.08396" lon="5.95091">
        <ele>2310.67</ele>
        <time>2018-09-02T13:15:10Z</time>
      </trkpt>
      <trkpt lat="45.08394" lon="5.95092">
        <ele>2310.19</ele>
        <time>2018-09-02T13:15:12Z</time>
      </trkpt>
      <trkpt lat="45.0839" lon="5.95095">
        <ele>2309.7</ele>
        <time>2018-09-02T13:15:17Z</time>
      </trkpt>
      <trkpt lat="45.0838" lon="5.95104">
        <ele>2306.82</ele>
        <time>2018-09-02T13:15:30Z</time>
      </trkpt>
      <trkpt lat="45.08366" lon="5.95108">
        <ele>2305.38</ele>
        <time>2018-09-02T13:15:43Z</time>
      </trkpt>
      <trkpt lat="45.08358" lon="5.95105">
        <ele>2303.94</ele>
        <time>2018-09-02T13:15:51Z</time>
      </trkpt>
      <trkpt lat="45.08353" lon="5.951">
        <ele>2302.98</ele>
        <time>2018-09-02T13:15:57Z</time>
      </trkpt>
      <trkpt lat="45.08351" lon="5.95097">
        <ele>2303.46</ele>
        <time>2018-09-02T13:16:00Z</time>
      </trkpt>
      <trkpt lat="45.08349" lon="5.95095">
        <ele>2303.46</ele>
        <time>2018-09-02T13:16:02Z</time>
      </trkpt>
      <trkpt lat="45.08347" lon="5.95094">
        <ele>2303.46</ele>
        <time>2018-09-02T13:16:04Z</time>
      </trkpt>
      <trkpt lat="45.08339" lon="5.95089">
        <ele>2301.53</ele>
        <time>2018-09-02T13:16:12Z</time>
      </trkpt>
      <trkpt lat="45.08327" lon="5.95077">
        <ele>2300.57</ele>
        <time>2018-09-02T13:16:25Z</time>
      </trkpt>
      <trkpt lat="45.08324" lon="5.95079">
        <ele>2301.53</ele>
        <time>2018-09-02T13:16:29Z</time>
      </trkpt>
      <trkpt lat="45.08322" lon="5.95082">
        <ele>2301.53</ele>
        <time>2018-09-02T13:16:31Z</time>
      </trkpt>
      <trkpt lat="45.08313" lon="5.95085">
        <ele>2300.57</ele>
        <time>2018-09-02T13:16:41Z</time>
      </trkpt>
      <trkpt lat="45.08306" lon="5.9509">
        <ele>2300.09</ele>
        <time>2018-09-02T13:16:49Z</time>
      </trkpt>
      <trkpt lat="45.08299" lon="5.9509">
        <ele>2299.61</ele>
        <time>2018-09-02T13:16:55Z</time>
      </trkpt>
      <trkpt lat="45.08297" lon="5.95089">
        <ele>2300.09</ele>
        <time>2018-09-02T13:17:07Z</time>
      </trkpt>
      <trkpt lat="45.08295" lon="5.95089">
        <ele>2300.57</ele>
        <time>2018-09-02T13:17:25Z</time>
      </trkpt>
      <trkpt lat="45.08293" lon="5.95095">
        <ele>2299.61</ele>
        <time>2018-09-02T13:17:37Z</time>
      </trkpt>
      <trkpt lat="45.08289" lon="5.951">
        <ele>2300.09</ele>
        <time>2018-09-02T13:17:43Z</time>
      </trkpt>
      <trkpt lat="45.08279" lon="5.95108">
        <ele>2298.17</ele>
        <time>2018-09-02T13:17:56Z</time>
      </trkpt>
      <trkpt lat="45.08277" lon="5.9511">
        <ele>2297.69</ele>
        <time>2018-09-02T13:17:58Z</time>
      </trkpt>
      <trkpt lat="45.08267" lon="5.95113">
        <ele>2297.21</ele>
        <time>2018-09-02T13:18:10Z</time>
      </trkpt>
      <trkpt lat="45.08263" lon="5.95111">
        <ele>2297.69</ele>
        <time>2018-09-02T13:18:14Z</time>
      </trkpt>
      <trkpt lat="45.08259" lon="5.95109">
        <ele>2296.73</ele>
        <time>2018-09-02T13:18:19Z</time>
      </trkpt>
      <trkpt lat="45.08249" lon="5.95107">
        <ele>2295.28</ele>
        <time>2018-09-02T13:18:32Z</time>
      </trkpt>
      <trkpt lat="45.08241" lon="5.95101">
        <ele>2294.32</ele>
        <time>2018-09-02T13:18:44Z</time>
      </trkpt>
      <trkpt lat="45.08237" lon="5.95101">
        <ele>2293.84</ele>
        <time>2018-09-02T13:18:49Z</time>
      </trkpt>
      <trkpt lat="45.0823" lon="5.95105">
        <ele>2294.32</ele>
        <time>2018-09-02T13:18:57Z</time>
      </trkpt>
      <trkpt lat="45.08222" lon="5.95111">
        <ele>2291.92</ele>
        <time>2018-09-02T13:19:11Z</time>
      </trkpt>
      <trkpt lat="45.08211" lon="5.9511">
        <ele>2290.96</ele>
        <time>2018-09-02T13:19:23Z</time>
      </trkpt>
      <trkpt lat="45.08202" lon="5.95111">
        <ele>2290.48</ele>
        <time>2018-09-02T13:19:32Z</time>
      </trkpt>
      <trkpt lat="45.08195" lon="5.95113">
        <ele>2289.04</ele>
        <time>2018-09-02T13:19:40Z</time>
      </trkpt>
      <trkpt lat="45.08193" lon="5.95112">
        <ele>2288.08</ele>
        <time>2018-09-02T13:19:42Z</time>
      </trkpt>
      <trkpt lat="45.08191" lon="5.95112">
        <ele>2288.56</ele>
        <time>2018-09-02T13:19:44Z</time>
      </trkpt>
      <trkpt lat="45.08178" lon="5.95113">
        <ele>2286.15</ele>
        <time>2018-09-02T13:19:56Z</time>
      </trkpt>
      <trkpt lat="45.08166" lon="5.9511">
        <ele>2285.19</ele>
        <time>2018-09-02T13:20:08Z</time>
      </trkpt>
      <trkpt lat="45.08155" lon="5.95111">
        <ele>2284.23</ele>
        <time>2018-09-02T13:20:21Z</time>
      </trkpt>
      <trkpt lat="45.08149" lon="5.95111">
        <ele>2285.67</ele>
        <time>2018-09-02T13:20:34Z</time>
      </trkpt>
      <trkpt lat="45.08147" lon="5.95112">
        <ele>2285.67</ele>
        <time>2018-09-02T13:20:56Z</time>
      </trkpt>
      <trkpt lat="45.08146" lon="5.95109">
        <ele>2284.71</ele>
        <time>2018-09-02T13:21:17Z</time>
      </trkpt>
      <trkpt lat="45.08146" lon="5.95109">
        <ele>2281.35</ele>
        <time>2018-09-02T13:21:24Z</time>
      </trkpt>
      <trkpt lat="45.08147" lon="5.95109">
        <ele>2286.15</ele>
        <time>2018-09-02T13:21:25Z</time>
      </trkpt>
      <trkpt lat="45.08147" lon="5.95109">
        <ele>2282.79</ele>
        <time>2018-09-02T13:21:31Z</time>
      </trkpt>
      <trkpt lat="45.08147" lon="5.95109">
        <ele>2286.15</ele>
        <time>2018-09-02T13:21:36Z</time>
      </trkpt>
      <trkpt lat="45.08144" lon="5.95108">
        <ele>2283.27</ele>
        <time>2018-09-02T13:21:39Z</time>
      </trkpt>
      <trkpt lat="45.08143" lon="5.95108">
        <ele>2282.79</ele>
        <time>2018-09-02T13:21:41Z</time>
      </trkpt>
      <trkpt lat="45.08139" lon="5.95109">
        <ele>2281.83</ele>
        <time>2018-09-02T13:21:45Z</time>
      </trkpt>
      <trkpt lat="45.0813" lon="5.95114">
        <ele>2279.9</ele>
        <time>2018-09-02T13:21:53Z</time>
      </trkpt>
      <trkpt lat="45.08123" lon="5.95114">
        <ele>2280.38</ele>
        <time>2018-09-02T13:21:58Z</time>
      </trkpt>
      <trkpt lat="45.08113" lon="5.95117">
        <ele>2279.9</ele>
        <time>2018-09-02T13:22:07Z</time>
      </trkpt>
      <trkpt lat="45.08107" lon="5.95115">
        <ele>2279.42</ele>
        <time>2018-09-02T13:22:13Z</time>
      </trkpt>
      <trkpt lat="45.08103" lon="5.95113">
        <ele>2278.94</ele>
        <time>2018-09-02T13:22:17Z</time>
      </trkpt>
      <trkpt lat="45.08091" lon="5.95111">
        <ele>2279.42</ele>
        <time>2018-09-02T13:22:28Z</time>
      </trkpt>
      <trkpt lat="45.08081" lon="5.9511">
        <ele>2279.9</ele>
        <time>2018-09-02T13:22:39Z</time>
      </trkpt>
      <trkpt lat="45.08082" lon="5.9511">
        <ele>2280.38</ele>
        <time>2018-09-02T13:22:59Z</time>
      </trkpt>
      <trkpt lat="45.08075" lon="5.95112">
        <ele>2280.38</ele>
        <time>2018-09-02T13:23:17Z</time>
      </trkpt>
      <trkpt lat="45.08063" lon="5.95115">
        <ele>2277.02</ele>
        <time>2018-09-02T13:23:32Z</time>
      </trkpt>
      <trkpt lat="45.08058" lon="5.95116">
        <ele>2276.06</ele>
        <time>2018-09-02T13:23:38Z</time>
      </trkpt>
      <trkpt lat="45.08056" lon="5.95114">
        <ele>2275.58</ele>
        <time>2018-09-02T13:23:41Z</time>
      </trkpt>
      <trkpt lat="45.08048" lon="5.95112">
        <ele>2273.66</ele>
        <time>2018-09-02T13:23:50Z</time>
      </trkpt>
      <trkpt lat="45.08046" lon="5.95111">
        <ele>2274.14</ele>
        <time>2018-09-02T13:23:53Z</time>
      </trkpt>
      <trkpt lat="45.08039" lon="5.95108">
        <ele>2273.17</ele>
        <time>2018-09-02T13:24:00Z</time>
      </trkpt>
      <trkpt lat="45.08034" lon="5.95107">
        <ele>2273.17</ele>
        <time>2018-09-02T13:24:06Z</time>
      </trkpt>
      <trkpt lat="45.08035" lon="5.95105">
        <ele>2273.66</ele>
        <time>2018-09-02T13:24:08Z</time>
      </trkpt>
      <trkpt lat="45.08033" lon="5.95103">
        <ele>2273.17</ele>
        <time>2018-09-02T13:24:10Z</time>
      </trkpt>
      <trkpt lat="45.08026" lon="5.95107">
        <ele>2271.73</ele>
        <time>2018-09-02T13:24:17Z</time>
      </trkpt>
      <trkpt lat="45.08011" lon="5.95109">
        <ele>2270.29</ele>
        <time>2018-09-02T13:24:33Z</time>
      </trkpt>
      <trkpt lat="45.08003" lon="5.95115">
        <ele>2268.37</ele>
        <time>2018-09-02T13:24:43Z</time>
      </trkpt>
      <trkpt lat="45.08001" lon="5.95117">
        <ele>2266.93</ele>
        <time>2018-09-02T13:24:46Z</time>
      </trkpt>
      <trkpt lat="45.07995" lon="5.95123">
        <ele>2265.96</ele>
        <time>2018-09-02T13:24:53Z</time>
      </trkpt>
      <trkpt lat="45.07988" lon="5.95129">
        <ele>2265.48</ele>
        <time>2018-09-02T13:25:02Z</time>
      </trkpt>
      <trkpt lat="45.07974" lon="5.95139">
        <ele>2264.04</ele>
        <time>2018-09-02T13:25:17Z</time>
      </trkpt>
      <trkpt lat="45.07971" lon="5.95141">
        <ele>2263.08</ele>
        <time>2018-09-02T13:25:20Z</time>
      </trkpt>
      <trkpt lat="45.07966" lon="5.95143">
        <ele>2262.12</ele>
        <time>2018-09-02T13:25:27Z</time>
      </trkpt>
      <trkpt lat="45.07963" lon="5.95139">
        <ele>2262.12</ele>
        <time>2018-09-02T13:25:32Z</time>
      </trkpt>
      <trkpt lat="45.0796" lon="5.9514">
        <ele>2262.6</ele>
        <time>2018-09-02T13:25:35Z</time>
      </trkpt>
      <trkpt lat="45.07956" lon="5.95142">
        <ele>2262.12</ele>
        <time>2018-09-02T13:25:39Z</time>
      </trkpt>
      <trkpt lat="45.07944" lon="5.95142">
        <ele>2261.16</ele>
        <time>2018-09-02T13:25:55Z</time>
      </trkpt>
      <trkpt lat="45.07941" lon="5.95139">
        <ele>2260.68</ele>
        <time>2018-09-02T13:26:01Z</time>
      </trkpt>
      <trkpt lat="45.0793" lon="5.95134">
        <ele>2258.75</ele>
        <time>2018-09-02T13:26:14Z</time>
      </trkpt>
      <trkpt lat="45.07915" lon="5.95131">
        <ele>2257.31</ele>
        <time>2018-09-02T13:26:31Z</time>
      </trkpt>
      <trkpt lat="45.07907" lon="5.95131">
        <ele>2256.83</ele>
        <time>2018-09-02T13:26:39Z</time>
      </trkpt>
      <trkpt lat="45.07898" lon="5.95135">
        <ele>2255.87</ele>
        <time>2018-09-02T13:26:49Z</time>
      </trkpt>
      <trkpt lat="45.07893" lon="5.9514">
        <ele>2254.43</ele>
        <time>2018-09-02T13:26:55Z</time>
      </trkpt>
      <trkpt lat="45.07889" lon="5.95139">
        <ele>2252.03</ele>
        <time>2018-09-02T13:26:59Z</time>
      </trkpt>
      <trkpt lat="45.07879" lon="5.95138">
        <ele>2252.99</ele>
        <time>2018-09-02T13:27:12Z</time>
      </trkpt>
      <trkpt lat="45.07873" lon="5.9514">
        <ele>2255.39</ele>
        <time>2018-09-02T13:27:22Z</time>
      </trkpt>
      <trkpt lat="45.07873" lon="5.95146">
        <ele>2254.43</ele>
        <time>2018-09-02T13:27:39Z</time>
      </trkpt>
      <trkpt lat="45.07872" lon="5.95144">
        <ele>2254.43</ele>
        <time>2018-09-02T13:28:09Z</time>
      </trkpt>
      <trkpt lat="45.07869" lon="5.95137">
        <ele>2252.51</ele>
        <time>2018-09-02T13:28:32Z</time>
      </trkpt>
      <trkpt lat="45.07857" lon="5.95139">
        <ele>2252.51</ele>
        <time>2018-09-02T13:28:46Z</time>
      </trkpt>
      <trkpt lat="45.07847" lon="5.95144">
        <ele>2252.51</ele>
        <time>2018-09-02T13:28:58Z</time>
      </trkpt>
      <trkpt lat="45.07844" lon="5.95143">
        <ele>2251.54</ele>
        <time>2018-09-02T13:29:01Z</time>
      </trkpt>
      <trkpt lat="45.07827" lon="5.95144">
        <ele>2250.1</ele>
        <time>2018-09-02T13:29:17Z</time>
      </trkpt>
      <trkpt lat="45.07813" lon="5.95141">
        <ele>2251.06</ele>
        <time>2018-09-02T13:29:30Z</time>
      </trkpt>
      <trkpt lat="45.07806" lon="5.9514">
        <ele>2250.58</ele>
        <time>2018-09-02T13:29:36Z</time>
      </trkpt>
      <trkpt lat="45.07803" lon="5.95139">
        <ele>2251.06</ele>
        <time>2018-09-02T13:29:40Z</time>
      </trkpt>
      <trkpt lat="45.07791" lon="5.95134">
        <ele>2250.1</ele>
        <time>2018-09-02T13:29:54Z</time>
      </trkpt>
      <trkpt lat="45.07777" lon="5.9513">
        <ele>2247.7</ele>
        <time>2018-09-02T13:30:09Z</time>
      </trkpt>
      <trkpt lat="45.07765" lon="5.95129">
        <ele>2246.74</ele>
        <time>2018-09-02T13:30:20Z</time>
      </trkpt>
      <trkpt lat="45.07754" lon="5.95125">
        <ele>2247.7</ele>
        <time>2018-09-02T13:30:33Z</time>
      </trkpt>
      <trkpt lat="45.07746" lon="5.95127">
        <ele>2247.7</ele>
        <time>2018-09-02T13:30:41Z</time>
      </trkpt>
      <trkpt lat="45.07729" lon="5.95131">
        <ele>2247.22</ele>
        <time>2018-09-02T13:30:57Z</time>
      </trkpt>
      <trkpt lat="45.07716" lon="5.95125">
        <ele>2248.18</ele>
        <time>2018-09-02T13:31:12Z</time>
      </trkpt>
      <trkpt lat="45.07703" lon="5.9512">
        <ele>2248.18</ele>
        <time>2018-09-02T13:31:25Z</time>
      </trkpt>
      <trkpt lat="45.07694" lon="5.95117">
        <ele>2248.66</ele>
        <time>2018-09-02T13:31:34Z</time>
      </trkpt>
      <trkpt lat="45.07679" lon="5.95112">
        <ele>2248.66</ele>
        <time>2018-09-02T13:31:50Z</time>
      </trkpt>
      <trkpt lat="45.07673" lon="5.95109">
        <ele>2248.18</ele>
        <time>2018-09-02T13:31:56Z</time>
      </trkpt>
      <trkpt lat="45.07661" lon="5.95101">
        <ele>2248.18</ele>
        <time>2018-09-02T13:32:10Z</time>
      </trkpt>
      <trkpt lat="45.07645" lon="5.95103">
        <ele>2247.22</ele>
        <time>2018-09-02T13:32:25Z</time>
      </trkpt>
      <trkpt lat="45.07643" lon="5.95102">
        <ele>2247.22</ele>
        <time>2018-09-02T13:32:28Z</time>
      </trkpt>
      <trkpt lat="45.07637" lon="5.95096">
        <ele>2247.22</ele>
        <time>2018-09-02T13:32:35Z</time>
      </trkpt>
      <trkpt lat="45.07633" lon="5.95098">
        <ele>2247.22</ele>
        <time>2018-09-02T13:32:40Z</time>
      </trkpt>
      <trkpt lat="45.07625" lon="5.95097">
        <ele>2246.74</ele>
        <time>2018-09-02T13:32:47Z</time>
      </trkpt>
      <trkpt lat="45.0762" lon="5.95095">
        <ele>2246.74</ele>
        <time>2018-09-02T13:32:54Z</time>
      </trkpt>
      <trkpt lat="45.07612" lon="5.95093">
        <ele>2246.74</ele>
        <time>2018-09-02T13:33:03Z</time>
      </trkpt>
      <trkpt lat="45.0761" lon="5.95089">
        <ele>2246.74</ele>
        <time>2018-09-02T13:33:07Z</time>
      </trkpt>
      <trkpt lat="45.07608" lon="5.95087">
        <ele>2246.74</ele>
        <time>2018-09-02T13:33:09Z</time>
      </trkpt>
      <trkpt lat="45.07596" lon="5.95085">
        <ele>2248.18</ele>
        <time>2018-09-02T13:33:22Z</time>
      </trkpt>
      <trkpt lat="45.07592" lon="5.95087">
        <ele>2248.18</ele>
        <time>2018-09-02T13:33:26Z</time>
      </trkpt>
      <trkpt lat="45.07587" lon="5.9509">
        <ele>2247.22</ele>
        <time>2018-09-02T13:33:30Z</time>
      </trkpt>
      <trkpt lat="45.07583" lon="5.9509">
        <ele>2247.7</ele>
        <time>2018-09-02T13:33:34Z</time>
      </trkpt>
      <trkpt lat="45.07572" lon="5.95088">
        <ele>2247.22</ele>
        <time>2018-09-02T13:33:48Z</time>
      </trkpt>
      <trkpt lat="45.07571" lon="5.95089">
        <ele>2246.74</ele>
        <time>2018-09-02T13:33:49Z</time>
      </trkpt>
      <trkpt lat="45.0756" lon="5.95088">
        <ele>2246.26</ele>
        <time>2018-09-02T13:34:01Z</time>
      </trkpt>
      <trkpt lat="45.07554" lon="5.95091">
        <ele>2246.26</ele>
        <time>2018-09-02T13:34:17Z</time>
      </trkpt>
      <trkpt lat="45.07553" lon="5.95089">
        <ele>2246.74</ele>
        <time>2018-09-02T13:34:37Z</time>
      </trkpt>
      <trkpt lat="45.0755" lon="5.9509">
        <ele>2246.74</ele>
        <time>2018-09-02T13:34:55Z</time>
      </trkpt>
      <trkpt lat="45.07552" lon="5.95089">
        <ele>2246.26</ele>
        <time>2018-09-02T13:35:13Z</time>
      </trkpt>
      <trkpt lat="45.07553" lon="5.9509">
        <ele>2245.78</ele>
        <time>2018-09-02T13:35:36Z</time>
      </trkpt>
      <trkpt lat="45.07554" lon="5.95089">
        <ele>2245.78</ele>
        <time>2018-09-02T13:36:06Z</time>
      </trkpt>
      <trkpt lat="45.07546" lon="5.95092">
        <ele>2246.26</ele>
        <time>2018-09-02T13:36:27Z</time>
      </trkpt>
      <trkpt lat="45.07544" lon="5.95095">
        <ele>2245.78</ele>
        <time>2018-09-02T13:36:30Z</time>
      </trkpt>
      <trkpt lat="45.07533" lon="5.95101">
        <ele>2244.33</ele>
        <time>2018-09-02T13:36:45Z</time>
      </trkpt>
      <trkpt lat="45.07532" lon="5.95101">
        <ele>2243.85</ele>
        <time>2018-09-02T13:36:46Z</time>
      </trkpt>
      <trkpt lat="45.07525" lon="5.95105">
        <ele>2242.89</ele>
        <time>2018-09-02T13:36:54Z</time>
      </trkpt>
      <trkpt lat="45.07518" lon="5.9511">
        <ele>2241.45</ele>
        <time>2018-09-02T13:37:07Z</time>
      </trkpt>
      <trkpt lat="45.07509" lon="5.9512">
        <ele>2239.53</ele>
        <time>2018-09-02T13:37:21Z</time>
      </trkpt>
      <trkpt lat="45.07501" lon="5.95124">
        <ele>2240.49</ele>
        <time>2018-09-02T13:37:30Z</time>
      </trkpt>
      <trkpt lat="45.07495" lon="5.9513">
        <ele>2239.53</ele>
        <time>2018-09-02T13:37:38Z</time>
      </trkpt>
      <trkpt lat="45.07492" lon="5.95131">
        <ele>2238.57</ele>
        <time>2018-09-02T13:37:40Z</time>
      </trkpt>
      <trkpt lat="45.07483" lon="5.95139">
        <ele>2237.13</ele>
        <time>2018-09-02T13:37:51Z</time>
      </trkpt>
      <trkpt lat="45.0748" lon="5.95139">
        <ele>2236.64</ele>
        <time>2018-09-02T13:37:55Z</time>
      </trkpt>
      <trkpt lat="45.07477" lon="5.95139">
        <ele>2237.13</ele>
        <time>2018-09-02T13:37:58Z</time>
      </trkpt>
      <trkpt lat="45.07475" lon="5.95138">
        <ele>2235.68</ele>
        <time>2018-09-02T13:38:01Z</time>
      </trkpt>
      <trkpt lat="45.07461" lon="5.95129">
        <ele>2234.24</ele>
        <time>2018-09-02T13:38:16Z</time>
      </trkpt>
      <trkpt lat="45.0745" lon="5.95127">
        <ele>2232.8</ele>
        <time>2018-09-02T13:38:27Z</time>
      </trkpt>
      <trkpt lat="45.07446" lon="5.95127">
        <ele>2232.32</ele>
        <time>2018-09-02T13:38:31Z</time>
      </trkpt>
      <trkpt lat="45.07434" lon="5.95122">
        <ele>2231.36</ele>
        <time>2018-09-02T13:38:43Z</time>
      </trkpt>
      <trkpt lat="45.07418" lon="5.95115">
        <ele>2229.43</ele>
        <time>2018-09-02T13:38:58Z</time>
      </trkpt>
      <trkpt lat="45.07404" lon="5.95106">
        <ele>2227.51</ele>
        <time>2018-09-02T13:39:13Z</time>
      </trkpt>
      <trkpt lat="45.07399" lon="5.95104">
        <ele>2227.03</ele>
        <time>2018-09-02T13:39:18Z</time>
      </trkpt>
      <trkpt lat="45.07384" lon="5.95099">
        <ele>2225.11</ele>
        <time>2018-09-02T13:39:34Z</time>
      </trkpt>
      <trkpt lat="45.07379" lon="5.95096">
        <ele>2226.07</ele>
        <time>2018-09-02T13:39:39Z</time>
      </trkpt>
      <trkpt lat="45.0737" lon="5.95101">
        <ele>2226.07</ele>
        <time>2018-09-02T13:39:48Z</time>
      </trkpt>
      <trkpt lat="45.07358" lon="5.95099">
        <ele>2227.03</ele>
        <time>2018-09-02T13:40:00Z</time>
      </trkpt>
      <trkpt lat="45.07346" lon="5.95097">
        <ele>2224.63</ele>
        <time>2018-09-02T13:40:13Z</time>
      </trkpt>
      <trkpt lat="45.07333" lon="5.95099">
        <ele>2224.63</ele>
        <time>2018-09-02T13:40:28Z</time>
      </trkpt>
      <trkpt lat="45.07321" lon="5.95101">
        <ele>2224.15</ele>
        <time>2018-09-02T13:40:40Z</time>
      </trkpt>
      <trkpt lat="45.07307" lon="5.95098">
        <ele>2223.19</ele>
        <time>2018-09-02T13:40:55Z</time>
      </trkpt>
      <trkpt lat="45.0729" lon="5.95098">
        <ele>2221.26</ele>
        <time>2018-09-02T13:41:10Z</time>
      </trkpt>
      <trkpt lat="45.07284" lon="5.95099">
        <ele>2220.78</ele>
        <time>2018-09-02T13:41:16Z</time>
      </trkpt>
      <trkpt lat="45.07282" lon="5.951">
        <ele>2220.78</ele>
        <time>2018-09-02T13:41:18Z</time>
      </trkpt>
      <trkpt lat="45.07272" lon="5.951">
        <ele>2220.78</ele>
        <time>2018-09-02T13:41:34Z</time>
      </trkpt>
      <trkpt lat="45.07272" lon="5.951">
        <ele>2220.3</ele>
        <time>2018-09-02T13:41:52Z</time>
      </trkpt>
      <trkpt lat="45.07272" lon="5.95099">
        <ele>2220.78</ele>
        <time>2018-09-02T13:42:11Z</time>
      </trkpt>
      <trkpt lat="45.07273" lon="5.951">
        <ele>2221.26</ele>
        <time>2018-09-02T13:42:29Z</time>
      </trkpt>
      <trkpt lat="45.07265" lon="5.95101">
        <ele>2221.74</ele>
        <time>2018-09-02T13:42:42Z</time>
      </trkpt>
      <trkpt lat="45.07261" lon="5.95102">
        <ele>2221.74</ele>
        <time>2018-09-02T13:42:58Z</time>
      </trkpt>
      <trkpt lat="45.07258" lon="5.95103">
        <ele>2221.74</ele>
        <time>2018-09-02T13:43:13Z</time>
      </trkpt>
      <trkpt lat="45.07246" lon="5.95103">
        <ele>2220.3</ele>
        <time>2018-09-02T13:43:26Z</time>
      </trkpt>
      <trkpt lat="45.07244" lon="5.95102">
        <ele>2220.3</ele>
        <time>2018-09-02T13:43:28Z</time>
      </trkpt>
      <trkpt lat="45.07241" lon="5.95103">
        <ele>2220.3</ele>
        <time>2018-09-02T13:43:31Z</time>
      </trkpt>
      <trkpt lat="45.07233" lon="5.95101">
        <ele>2220.3</ele>
        <time>2018-09-02T13:43:46Z</time>
      </trkpt>
      <trkpt lat="45.0723" lon="5.95101">
        <ele>2218.38</ele>
        <time>2018-09-02T13:43:52Z</time>
      </trkpt>
      <trkpt lat="45.07224" lon="5.95099">
        <ele>2218.38</ele>
        <time>2018-09-02T13:44:06Z</time>
      </trkpt>
      <trkpt lat="45.07222" lon="5.95096">
        <ele>2217.9</ele>
        <time>2018-09-02T13:44:35Z</time>
      </trkpt>
      <trkpt lat="45.07224" lon="5.95102">
        <ele>2217.9</ele>
        <time>2018-09-02T13:44:48Z</time>
      </trkpt>
      <trkpt lat="45.07225" lon="5.951">
        <ele>2217.9</ele>
        <time>2018-09-02T13:45:06Z</time>
      </trkpt>
      <trkpt lat="45.07221" lon="5.95097">
        <ele>2217.42</ele>
        <time>2018-09-02T13:45:20Z</time>
      </trkpt>
      <trkpt lat="45.07212" lon="5.95096">
        <ele>2214.05</ele>
        <time>2018-09-02T13:45:34Z</time>
      </trkpt>
      <trkpt lat="45.07209" lon="5.95097">
        <ele>2212.61</ele>
        <time>2018-09-02T13:45:46Z</time>
      </trkpt>
      <trkpt lat="45.07204" lon="5.95096">
        <ele>2210.69</ele>
        <time>2018-09-02T13:45:54Z</time>
      </trkpt>
      <trkpt lat="45.07195" lon="5.95098">
        <ele>2209.25</ele>
        <time>2018-09-02T13:46:03Z</time>
      </trkpt>
      <trkpt lat="45.07185" lon="5.95097">
        <ele>2207.81</ele>
        <time>2018-09-02T13:46:16Z</time>
      </trkpt>
      <trkpt lat="45.07183" lon="5.95094">
        <ele>2207.81</ele>
        <time>2018-09-02T13:46:21Z</time>
      </trkpt>
      <trkpt lat="45.07175" lon="5.95095">
        <ele>2207.32</ele>
        <time>2018-09-02T13:46:31Z</time>
      </trkpt>
      <trkpt lat="45.0717" lon="5.95097">
        <ele>2205.88</ele>
        <time>2018-09-02T13:46:36Z</time>
      </trkpt>
      <trkpt lat="45.07158" lon="5.95097">
        <ele>2204.92</ele>
        <time>2018-09-02T13:46:48Z</time>
      </trkpt>
      <trkpt lat="45.07149" lon="5.95094">
        <ele>2203.48</ele>
        <time>2018-09-02T13:47:02Z</time>
      </trkpt>
      <trkpt lat="45.07144" lon="5.95095">
        <ele>2202.04</ele>
        <time>2018-09-02T13:47:09Z</time>
      </trkpt>
      <trkpt lat="45.07136" lon="5.95094">
        <ele>2199.63</ele>
        <time>2018-09-02T13:47:21Z</time>
      </trkpt>
      <trkpt lat="45.07131" lon="5.95091">
        <ele>2197.71</ele>
        <time>2018-09-02T13:47:28Z</time>
      </trkpt>
      <trkpt lat="45.07125" lon="5.95089">
        <ele>2196.75</ele>
        <time>2018-09-02T13:47:35Z</time>
      </trkpt>
      <trkpt lat="45.07115" lon="5.95085">
        <ele>2194.83</ele>
        <time>2018-09-02T13:47:47Z</time>
      </trkpt>
      <trkpt lat="45.07101" lon="5.9509">
        <ele>2192.42</ele>
        <time>2018-09-02T13:48:01Z</time>
      </trkpt>
      <trkpt lat="45.07092" lon="5.95093">
        <ele>2189.54</ele>
        <time>2018-09-02T13:48:13Z</time>
      </trkpt>
      <trkpt lat="45.07091" lon="5.95093">
        <ele>2189.54</ele>
        <time>2018-09-02T13:48:14Z</time>
      </trkpt>
      <trkpt lat="45.07089" lon="5.95094">
        <ele>2189.54</ele>
        <time>2018-09-02T13:48:16Z</time>
      </trkpt>
      <trkpt lat="45.07083" lon="5.9509">
        <ele>2188.58</ele>
        <time>2018-09-02T13:48:23Z</time>
      </trkpt>
      <trkpt lat="45.07077" lon="5.9507">
        <ele>2187.62</ele>
        <time>2018-09-02T13:48:38Z</time>
      </trkpt>
      <trkpt lat="45.07072" lon="5.95053">
        <ele>2186.66</ele>
        <time>2018-09-02T13:48:53Z</time>
      </trkpt>
      <trkpt lat="45.0707" lon="5.95041">
        <ele>2185.69</ele>
        <time>2018-09-02T13:49:01Z</time>
      </trkpt>
      <trkpt lat="45.07065" lon="5.95028">
        <ele>2185.21</ele>
        <time>2018-09-02T13:49:12Z</time>
      </trkpt>
      <trkpt lat="45.07064" lon="5.95025">
        <ele>2185.69</ele>
        <time>2018-09-02T13:49:14Z</time>
      </trkpt>
      <trkpt lat="45.07059" lon="5.95017">
        <ele>2185.21</ele>
        <time>2018-09-02T13:49:22Z</time>
      </trkpt>
      <trkpt lat="45.0705" lon="5.95004">
        <ele>2184.25</ele>
        <time>2018-09-02T13:49:37Z</time>
      </trkpt>
      <trkpt lat="45.07052" lon="5.95001">
        <ele>2184.25</ele>
        <time>2018-09-02T13:49:40Z</time>
      </trkpt>
      <trkpt lat="45.07052" lon="5.94989">
        <ele>2184.25</ele>
        <time>2018-09-02T13:49:53Z</time>
      </trkpt>
      <trkpt lat="45.07048" lon="5.94983">
        <ele>2184.73</ele>
        <time>2018-09-02T13:50:00Z</time>
      </trkpt>
      <trkpt lat="45.07043" lon="5.94967">
        <ele>2185.69</ele>
        <time>2018-09-02T13:50:13Z</time>
      </trkpt>
      <trkpt lat="45.07034" lon="5.94956">
        <ele>2186.18</ele>
        <time>2018-09-02T13:50:29Z</time>
      </trkpt>
      <trkpt lat="45.07031" lon="5.9495">
        <ele>2185.69</ele>
        <time>2018-09-02T13:50:34Z</time>
      </trkpt>
      <trkpt lat="45.07022" lon="5.94933">
        <ele>2184.25</ele>
        <time>2018-09-02T13:50:50Z</time>
      </trkpt>
      <trkpt lat="45.07016" lon="5.94927">
        <ele>2184.25</ele>
        <time>2018-09-02T13:50:58Z</time>
      </trkpt>
      <trkpt lat="45.06999" lon="5.94919">
        <ele>2182.33</ele>
        <time>2018-09-02T13:51:15Z</time>
      </trkpt>
      <trkpt lat="45.06989" lon="5.94919">
        <ele>2182.33</ele>
        <time>2018-09-02T13:51:24Z</time>
      </trkpt>
      <trkpt lat="45.06974" lon="5.94919">
        <ele>2180.89</ele>
        <time>2018-09-02T13:51:40Z</time>
      </trkpt>
      <trkpt lat="45.06965" lon="5.9492">
        <ele>2181.37</ele>
        <time>2018-09-02T13:51:48Z</time>
      </trkpt>
      <trkpt lat="45.06955" lon="5.94924">
        <ele>2181.37</ele>
        <time>2018-09-02T13:51:57Z</time>
      </trkpt>
      <trkpt lat="45.06942" lon="5.94922">
        <ele>2181.37</ele>
        <time>2018-09-02T13:52:10Z</time>
      </trkpt>
      <trkpt lat="45.0694" lon="5.94922">
        <ele>2181.37</ele>
        <time>2018-09-02T13:52:12Z</time>
      </trkpt>
      <trkpt lat="45.06928" lon="5.94931">
        <ele>2180.89</ele>
        <time>2018-09-02T13:52:27Z</time>
      </trkpt>
      <trkpt lat="45.06915" lon="5.94929">
        <ele>2179.45</ele>
        <time>2018-09-02T13:52:43Z</time>
      </trkpt>
      <trkpt lat="45.06908" lon="5.94926">
        <ele>2178.48</ele>
        <time>2018-09-02T13:52:50Z</time>
      </trkpt>
      <trkpt lat="45.06904" lon="5.94922">
        <ele>2178</ele>
        <time>2018-09-02T13:52:56Z</time>
      </trkpt>
      <trkpt lat="45.0689" lon="5.94921">
        <ele>2178.48</ele>
        <time>2018-09-02T13:53:09Z</time>
      </trkpt>
      <trkpt lat="45.06885" lon="5.94921">
        <ele>2176.56</ele>
        <time>2018-09-02T13:53:13Z</time>
      </trkpt>
      <trkpt lat="45.06878" lon="5.94922">
        <ele>2176.08</ele>
        <time>2018-09-02T13:53:19Z</time>
      </trkpt>
      <trkpt lat="45.06874" lon="5.94924">
        <ele>2176.56</ele>
        <time>2018-09-02T13:53:23Z</time>
      </trkpt>
      <trkpt lat="45.06868" lon="5.94925">
        <ele>2176.56</ele>
        <time>2018-09-02T13:53:29Z</time>
      </trkpt>
      <trkpt lat="45.06859" lon="5.94922">
        <ele>2178.97</ele>
        <time>2018-09-02T13:53:39Z</time>
      </trkpt>
      <trkpt lat="45.06857" lon="5.94921">
        <ele>2178.97</ele>
        <time>2018-09-02T13:53:41Z</time>
      </trkpt>
      <trkpt lat="45.06854" lon="5.94925">
        <ele>2178.48</ele>
        <time>2018-09-02T13:53:55Z</time>
      </trkpt>
      <trkpt lat="45.06854" lon="5.94922">
        <ele>2178.97</ele>
        <time>2018-09-02T13:54:17Z</time>
      </trkpt>
      <trkpt lat="45.06854" lon="5.94921">
        <ele>2178.48</ele>
        <time>2018-09-02T13:54:45Z</time>
      </trkpt>
      <trkpt lat="45.06854" lon="5.94921">
        <ele>2178.48</ele>
        <time>2018-09-02T13:55:00Z</time>
      </trkpt>
      <trkpt lat="45.06851" lon="5.94922">
        <ele>2178.97</ele>
        <time>2018-09-02T13:55:15Z</time>
      </trkpt>
      <trkpt lat="45.06852" lon="5.94916">
        <ele>2178.48</ele>
        <time>2018-09-02T13:55:34Z</time>
      </trkpt>
      <trkpt lat="45.06851" lon="5.94914">
        <ele>2178.48</ele>
        <time>2018-09-02T13:55:36Z</time>
      </trkpt>
      <trkpt lat="45.06848" lon="5.94908">
        <ele>2177.52</ele>
        <time>2018-09-02T13:55:41Z</time>
      </trkpt>
      <trkpt lat="45.06841" lon="5.94907">
        <ele>2178.48</ele>
        <time>2018-09-02T13:55:47Z</time>
      </trkpt>
      <trkpt lat="45.06838" lon="5.94907">
        <ele>2178.48</ele>
        <time>2018-09-02T13:55:50Z</time>
      </trkpt>
      <trkpt lat="45.06831" lon="5.94898">
        <ele>2178</ele>
        <time>2018-09-02T13:55:59Z</time>
      </trkpt>
      <trkpt lat="45.06828" lon="5.94894">
        <ele>2177.04</ele>
        <time>2018-09-02T13:56:03Z</time>
      </trkpt>
      <trkpt lat="45.06826" lon="5.94884">
        <ele>2177.04</ele>
        <time>2018-09-02T13:56:10Z</time>
      </trkpt>
      <trkpt lat="45.06816" lon="5.94867">
        <ele>2174.64</ele>
        <time>2018-09-02T13:56:24Z</time>
      </trkpt>
      <trkpt lat="45.06808" lon="5.94854">
        <ele>2173.2</ele>
        <time>2018-09-02T13:56:36Z</time>
      </trkpt>
      <trkpt lat="45.06802" lon="5.94841">
        <ele>2172.72</ele>
        <time>2018-09-02T13:56:47Z</time>
      </trkpt>
      <trkpt lat="45.06799" lon="5.94839">
        <ele>2171.76</ele>
        <time>2018-09-02T13:56:50Z</time>
      </trkpt>
      <trkpt lat="45.06794" lon="5.9483">
        <ele>2171.76</ele>
        <time>2018-09-02T13:56:58Z</time>
      </trkpt>
      <trkpt lat="45.06789" lon="5.94812">
        <ele>2170.31</ele>
        <time>2018-09-02T13:57:13Z</time>
      </trkpt>
      <trkpt lat="45.06782" lon="5.94807">
        <ele>2171.27</ele>
        <time>2018-09-02T13:57:28Z</time>
      </trkpt>
      <trkpt lat="45.06781" lon="5.94805">
        <ele>2170.31</ele>
        <time>2018-09-02T13:57:54Z</time>
      </trkpt>
      <trkpt lat="45.06782" lon="5.94805">
        <ele>2170.31</ele>
        <time>2018-09-02T13:58:20Z</time>
      </trkpt>
      <trkpt lat="45.06783" lon="5.94807">
        <ele>2170.79</ele>
        <time>2018-09-02T13:58:31Z</time>
      </trkpt>
      <trkpt lat="45.06781" lon="5.94807">
        <ele>2170.79</ele>
        <time>2018-09-02T13:58:33Z</time>
      </trkpt>
      <trkpt lat="45.06776" lon="5.94806">
        <ele>2170.31</ele>
        <time>2018-09-02T13:58:37Z</time>
      </trkpt>
      <trkpt lat="45.06762" lon="5.94794">
        <ele>2168.39</ele>
        <time>2018-09-02T13:58:52Z</time>
      </trkpt>
      <trkpt lat="45.06748" lon="5.9478">
        <ele>2168.39</ele>
        <time>2018-09-02T13:59:08Z</time>
      </trkpt>
      <trkpt lat="45.06745" lon="5.9477">
        <ele>2166.47</ele>
        <time>2018-09-02T13:59:15Z</time>
      </trkpt>
      <trkpt lat="45.06734" lon="5.94757">
        <ele>2165.51</ele>
        <time>2018-09-02T13:59:29Z</time>
      </trkpt>
      <trkpt lat="45.06727" lon="5.94751">
        <ele>2165.51</ele>
        <time>2018-09-02T13:59:36Z</time>
      </trkpt>
      <trkpt lat="45.06718" lon="5.94746">
        <ele>2165.51</ele>
        <time>2018-09-02T13:59:46Z</time>
      </trkpt>
      <trkpt lat="45.06713" lon="5.94745">
        <ele>2163.58</ele>
        <time>2018-09-02T13:59:52Z</time>
      </trkpt>
      <trkpt lat="45.06703" lon="5.94733">
        <ele>2161.66</ele>
        <time>2018-09-02T14:00:04Z</time>
      </trkpt>
      <trkpt lat="45.06698" lon="5.94726">
        <ele>2161.18</ele>
        <time>2018-09-02T14:00:10Z</time>
      </trkpt>
      <trkpt lat="45.0669" lon="5.94711">
        <ele>2161.66</ele>
        <time>2018-09-02T14:00:22Z</time>
      </trkpt>
      <trkpt lat="45.06683" lon="5.94692">
        <ele>2160.22</ele>
        <time>2018-09-02T14:00:37Z</time>
      </trkpt>
      <trkpt lat="45.06682" lon="5.94689">
        <ele>2159.26</ele>
        <time>2018-09-02T14:00:39Z</time>
      </trkpt>
      <trkpt lat="45.06681" lon="5.94677">
        <ele>2157.82</ele>
        <time>2018-09-02T14:00:47Z</time>
      </trkpt>
      <trkpt lat="45.06676" lon="5.94672">
        <ele>2158.3</ele>
        <time>2018-09-02T14:00:52Z</time>
      </trkpt>
      <trkpt lat="45.06674" lon="5.94671">
        <ele>2157.82</ele>
        <time>2018-09-02T14:00:54Z</time>
      </trkpt>
      <trkpt lat="45.06673" lon="5.9467">
        <ele>2158.3</ele>
        <time>2018-09-02T14:00:56Z</time>
      </trkpt>
      <trkpt lat="45.06663" lon="5.94656">
        <ele>2158.78</ele>
        <time>2018-09-02T14:01:09Z</time>
      </trkpt>
      <trkpt lat="45.06657" lon="5.94648">
        <ele>2157.82</ele>
        <time>2018-09-02T14:01:23Z</time>
      </trkpt>
      <trkpt lat="45.06652" lon="5.94641">
        <ele>2155.89</ele>
        <time>2018-09-02T14:01:33Z</time>
      </trkpt>
      <trkpt lat="45.0664" lon="5.94631">
        <ele>2153.01</ele>
        <time>2018-09-02T14:01:47Z</time>
      </trkpt>
      <trkpt lat="45.06629" lon="5.94623">
        <ele>2151.09</ele>
        <time>2018-09-02T14:01:58Z</time>
      </trkpt>
      <trkpt lat="45.06618" lon="5.9461">
        <ele>2149.65</ele>
        <time>2018-09-02T14:02:12Z</time>
      </trkpt>
      <trkpt lat="45.06604" lon="5.94598">
        <ele>2148.2</ele>
        <time>2018-09-02T14:02:26Z</time>
      </trkpt>
      <trkpt lat="45.0659" lon="5.94583">
        <ele>2146.76</ele>
        <time>2018-09-02T14:02:42Z</time>
      </trkpt>
      <trkpt lat="45.06588" lon="5.94577">
        <ele>2146.28</ele>
        <time>2018-09-02T14:02:46Z</time>
      </trkpt>
      <trkpt lat="45.06574" lon="5.94565">
        <ele>2143.88</ele>
        <time>2018-09-02T14:03:01Z</time>
      </trkpt>
      <trkpt lat="45.06558" lon="5.94556">
        <ele>2142.44</ele>
        <time>2018-09-02T14:03:17Z</time>
      </trkpt>
      <trkpt lat="45.06548" lon="5.94554">
        <ele>2141.47</ele>
        <time>2018-09-02T14:03:28Z</time>
      </trkpt>
      <trkpt lat="45.06546" lon="5.94546">
        <ele>2139.55</ele>
        <time>2018-09-02T14:03:34Z</time>
      </trkpt>
      <trkpt lat="45.06534" lon="5.94532">
        <ele>2139.55</ele>
        <time>2018-09-02T14:03:48Z</time>
      </trkpt>
      <trkpt lat="45.06519" lon="5.94519">
        <ele>2138.59</ele>
        <time>2018-09-02T14:04:03Z</time>
      </trkpt>
      <trkpt lat="45.06506" lon="5.94507">
        <ele>2139.07</ele>
        <time>2018-09-02T14:04:17Z</time>
      </trkpt>
      <trkpt lat="45.06502" lon="5.94503">
        <ele>2138.59</ele>
        <time>2018-09-02T14:04:22Z</time>
      </trkpt>
      <trkpt lat="45.06488" lon="5.94489">
        <ele>2137.63</ele>
        <time>2018-09-02T14:04:37Z</time>
      </trkpt>
      <trkpt lat="45.06473" lon="5.94477">
        <ele>2137.15</ele>
        <time>2018-09-02T14:04:51Z</time>
      </trkpt>
      <trkpt lat="45.0647" lon="5.94478">
        <ele>2137.63</ele>
        <time>2018-09-02T14:04:54Z</time>
      </trkpt>
      <trkpt lat="45.06462" lon="5.94459">
        <ele>2138.11</ele>
        <time>2018-09-02T14:05:10Z</time>
      </trkpt>
      <trkpt lat="45.0646" lon="5.94454">
        <ele>2138.11</ele>
        <time>2018-09-02T14:05:14Z</time>
      </trkpt>
      <trkpt lat="45.06445" lon="5.94445">
        <ele>2139.55</ele>
        <time>2018-09-02T14:05:28Z</time>
      </trkpt>
      <trkpt lat="45.0644" lon="5.94442">
        <ele>2140.03</ele>
        <time>2018-09-02T14:05:33Z</time>
      </trkpt>
      <trkpt lat="45.06427" lon="5.94434">
        <ele>2139.55</ele>
        <time>2018-09-02T14:05:46Z</time>
      </trkpt>
      <trkpt lat="45.06418" lon="5.94421">
        <ele>2138.11</ele>
        <time>2018-09-02T14:06:02Z</time>
      </trkpt>
      <trkpt lat="45.06408" lon="5.94407">
        <ele>2135.71</ele>
        <time>2018-09-02T14:06:17Z</time>
      </trkpt>
      <trkpt lat="45.064" lon="5.94398">
        <ele>2134.74</ele>
        <time>2018-09-02T14:06:26Z</time>
      </trkpt>
      <trkpt lat="45.06397" lon="5.94397">
        <ele>2134.26</ele>
        <time>2018-09-02T14:06:30Z</time>
      </trkpt>
      <trkpt lat="45.06394" lon="5.94394">
        <ele>2133.78</ele>
        <time>2018-09-02T14:06:33Z</time>
      </trkpt>
      <trkpt lat="45.06393" lon="5.9439">
        <ele>2132.82</ele>
        <time>2018-09-02T14:06:36Z</time>
      </trkpt>
      <trkpt lat="45.0639" lon="5.94368">
        <ele>2131.38</ele>
        <time>2018-09-02T14:06:51Z</time>
      </trkpt>
      <trkpt lat="45.06388" lon="5.94361">
        <ele>2131.38</ele>
        <time>2018-09-02T14:06:56Z</time>
      </trkpt>
      <trkpt lat="45.06387" lon="5.94357">
        <ele>2131.86</ele>
        <time>2018-09-02T14:06:59Z</time>
      </trkpt>
      <trkpt lat="45.06384" lon="5.94353">
        <ele>2132.34</ele>
        <time>2018-09-02T14:07:03Z</time>
      </trkpt>
      <trkpt lat="45.06383" lon="5.94347">
        <ele>2132.82</ele>
        <time>2018-09-02T14:07:07Z</time>
      </trkpt>
      <trkpt lat="45.06379" lon="5.94331">
        <ele>2131.86</ele>
        <time>2018-09-02T14:07:19Z</time>
      </trkpt>
      <trkpt lat="45.06366" lon="5.94326">
        <ele>2129.94</ele>
        <time>2018-09-02T14:07:34Z</time>
      </trkpt>
      <trkpt lat="45.06366" lon="5.94326">
        <ele>2129.94</ele>
        <time>2018-09-02T14:07:37Z</time>
      </trkpt>
      <trkpt lat="45.06355" lon="5.94323">
        <ele>2129.46</ele>
        <time>2018-09-02T14:07:52Z</time>
      </trkpt>
      <trkpt lat="45.06353" lon="5.94322">
        <ele>2128.98</ele>
        <time>2018-09-02T14:08:10Z</time>
      </trkpt>
      <trkpt lat="45.06351" lon="5.94323">
        <ele>2128.98</ele>
        <time>2018-09-02T14:08:12Z</time>
      </trkpt>
      <trkpt lat="45.06348" lon="5.94325">
        <ele>2129.46</ele>
        <time>2018-09-02T14:08:15Z</time>
      </trkpt>
      <trkpt lat="45.0634" lon="5.94322">
        <ele>2129.46</ele>
        <time>2018-09-02T14:08:23Z</time>
      </trkpt>
      <trkpt lat="45.06323" lon="5.94312">
        <ele>2127.53</ele>
        <time>2018-09-02T14:08:39Z</time>
      </trkpt>
      <trkpt lat="45.06316" lon="5.94307">
        <ele>2127.53</ele>
        <time>2018-09-02T14:08:50Z</time>
      </trkpt>
      <trkpt lat="45.0631" lon="5.94301">
        <ele>2128.98</ele>
        <time>2018-09-02T14:09:03Z</time>
      </trkpt>
      <trkpt lat="45.06304" lon="5.94293">
        <ele>2128.02</ele>
        <time>2018-09-02T14:09:18Z</time>
      </trkpt>
      <trkpt lat="45.06302" lon="5.94293">
        <ele>2127.53</ele>
        <time>2018-09-02T14:09:39Z</time>
      </trkpt>
      <trkpt lat="45.06297" lon="5.94292">
        <ele>2127.05</ele>
        <time>2018-09-02T14:09:52Z</time>
      </trkpt>
      <trkpt lat="45.06291" lon="5.94291">
        <ele>2125.61</ele>
        <time>2018-09-02T14:09:58Z</time>
      </trkpt>
      <trkpt lat="45.06282" lon="5.94276">
        <ele>2124.65</ele>
        <time>2018-09-02T14:10:12Z</time>
      </trkpt>
      <trkpt lat="45.06279" lon="5.9426">
        <ele>2122.25</ele>
        <time>2018-09-02T14:10:25Z</time>
      </trkpt>
      <trkpt lat="45.06277" lon="5.94245">
        <ele>2119.84</ele>
        <time>2018-09-02T14:10:38Z</time>
      </trkpt>
      <trkpt lat="45.06276" lon="5.94244">
        <ele>2119.84</ele>
        <time>2018-09-02T14:10:39Z</time>
      </trkpt>
      <trkpt lat="45.06271" lon="5.94241">
        <ele>2117.92</ele>
        <time>2018-09-02T14:10:45Z</time>
      </trkpt>
      <trkpt lat="45.06262" lon="5.9424">
        <ele>2116.48</ele>
        <time>2018-09-02T14:10:56Z</time>
      </trkpt>
      <trkpt lat="45.06259" lon="5.94242">
        <ele>2116</ele>
        <time>2018-09-02T14:10:58Z</time>
      </trkpt>
      <trkpt lat="45.06247" lon="5.94241">
        <ele>2113.6</ele>
        <time>2018-09-02T14:11:12Z</time>
      </trkpt>
      <trkpt lat="45.06232" lon="5.94237">
        <ele>2112.15</ele>
        <time>2018-09-02T14:11:27Z</time>
      </trkpt>
      <trkpt lat="45.06223" lon="5.94226">
        <ele>2108.31</ele>
        <time>2018-09-02T14:11:42Z</time>
      </trkpt>
      <trkpt lat="45.06222" lon="5.94225">
        <ele>2107.83</ele>
        <time>2018-09-02T14:11:43Z</time>
      </trkpt>
      <trkpt lat="45.06211" lon="5.94224">
        <ele>2104.94</ele>
        <time>2018-09-02T14:11:54Z</time>
      </trkpt>
      <trkpt lat="45.0621" lon="5.94224">
        <ele>2105.42</ele>
        <time>2018-09-02T14:11:55Z</time>
      </trkpt>
      <trkpt lat="45.06198" lon="5.94218">
        <ele>2102.06</ele>
        <time>2018-09-02T14:12:09Z</time>
      </trkpt>
      <trkpt lat="45.06197" lon="5.94217">
        <ele>2101.58</ele>
        <time>2018-09-02T14:12:10Z</time>
      </trkpt>
      <trkpt lat="45.06191" lon="5.94217">
        <ele>2101.58</ele>
        <time>2018-09-02T14:12:15Z</time>
      </trkpt>
      <trkpt lat="45.06178" lon="5.94211">
        <ele>2101.1</ele>
        <time>2018-09-02T14:12:30Z</time>
      </trkpt>
      <trkpt lat="45.06168" lon="5.94204">
        <ele>2099.66</ele>
        <time>2018-09-02T14:12:44Z</time>
      </trkpt>
      <trkpt lat="45.06161" lon="5.94182">
        <ele>2098.21</ele>
        <time>2018-09-02T14:12:59Z</time>
      </trkpt>
      <trkpt lat="45.06144" lon="5.94175">
        <ele>2100.14</ele>
        <time>2018-09-02T14:13:14Z</time>
      </trkpt>
      <trkpt lat="45.06141" lon="5.94173">
        <ele>2100.14</ele>
        <time>2018-09-02T14:13:17Z</time>
      </trkpt>
      <trkpt lat="45.06129" lon="5.94162">
        <ele>2099.66</ele>
        <time>2018-09-02T14:13:30Z</time>
      </trkpt>
      <trkpt lat="45.06124" lon="5.94155">
        <ele>2098.7</ele>
        <time>2018-09-02T14:13:40Z</time>
      </trkpt>
      <trkpt lat="45.0611" lon="5.9415">
        <ele>2097.73</ele>
        <time>2018-09-02T14:13:53Z</time>
      </trkpt>
      <trkpt lat="45.06096" lon="5.94144">
        <ele>2098.21</ele>
        <time>2018-09-02T14:14:07Z</time>
      </trkpt>
      <trkpt lat="45.0608" lon="5.94138">
        <ele>2098.7</ele>
        <time>2018-09-02T14:14:22Z</time>
      </trkpt>
      <trkpt lat="45.06072" lon="5.94137">
        <ele>2097.73</ele>
        <time>2018-09-02T14:14:30Z</time>
      </trkpt>
      <trkpt lat="45.06068" lon="5.94135">
        <ele>2097.73</ele>
        <time>2018-09-02T14:14:35Z</time>
      </trkpt>
      <trkpt lat="45.06054" lon="5.94122">
        <ele>2095.33</ele>
        <time>2018-09-02T14:14:51Z</time>
      </trkpt>
      <trkpt lat="45.06046" lon="5.94118">
        <ele>2094.85</ele>
        <time>2018-09-02T14:15:02Z</time>
      </trkpt>
      <trkpt lat="45.06041" lon="5.94107">
        <ele>2091.97</ele>
        <time>2018-09-02T14:15:17Z</time>
      </trkpt>
      <trkpt lat="45.06033" lon="5.94096">
        <ele>2089.56</ele>
        <time>2018-09-02T14:15:30Z</time>
      </trkpt>
      <trkpt lat="45.06026" lon="5.94096">
        <ele>2088.6</ele>
        <time>2018-09-02T14:15:38Z</time>
      </trkpt>
      <trkpt lat="45.06024" lon="5.94097">
        <ele>2088.12</ele>
        <time>2018-09-02T14:15:40Z</time>
      </trkpt>
      <trkpt lat="45.06016" lon="5.94096">
        <ele>2086.68</ele>
        <time>2018-09-02T14:15:50Z</time>
      </trkpt>
      <trkpt lat="45.06014" lon="5.94093">
        <ele>2085.24</ele>
        <time>2018-09-02T14:15:53Z</time>
      </trkpt>
      <trkpt lat="45.06012" lon="5.94093">
        <ele>2085.24</ele>
        <time>2018-09-02T14:15:56Z</time>
      </trkpt>
      <trkpt lat="45.06006" lon="5.94092">
        <ele>2083.79</ele>
        <time>2018-09-02T14:16:03Z</time>
      </trkpt>
      <trkpt lat="45.06004" lon="5.94094">
        <ele>2083.79</ele>
        <time>2018-09-02T14:16:05Z</time>
      </trkpt>
      <trkpt lat="45.05999" lon="5.94106">
        <ele>2081.87</ele>
        <time>2018-09-02T14:16:17Z</time>
      </trkpt>
      <trkpt lat="45.05995" lon="5.94103">
        <ele>2080.43</ele>
        <time>2018-09-02T14:16:24Z</time>
      </trkpt>
      <trkpt lat="45.05992" lon="5.94102">
        <ele>2079.95</ele>
        <time>2018-09-02T14:16:27Z</time>
      </trkpt>
      <trkpt lat="45.05984" lon="5.9411">
        <ele>2078.99</ele>
        <time>2018-09-02T14:16:39Z</time>
      </trkpt>
      <trkpt lat="45.05985" lon="5.94116">
        <ele>2079.47</ele>
        <time>2018-09-02T14:16:53Z</time>
      </trkpt>
      <trkpt lat="45.05984" lon="5.9412">
        <ele>2078.51</ele>
        <time>2018-09-02T14:17:16Z</time>
      </trkpt>
      <trkpt lat="45.05985" lon="5.94118">
        <ele>2078.99</ele>
        <time>2018-09-02T14:17:33Z</time>
      </trkpt>
      <trkpt lat="45.05982" lon="5.94116">
        <ele>2078.51</ele>
        <time>2018-09-02T14:17:44Z</time>
      </trkpt>
      <trkpt lat="45.05979" lon="5.94118">
        <ele>2077.55</ele>
        <time>2018-09-02T14:17:58Z</time>
      </trkpt>
      <trkpt lat="45.05978" lon="5.94124">
        <ele>2077.07</ele>
        <time>2018-09-02T14:18:15Z</time>
      </trkpt>
      <trkpt lat="45.05972" lon="5.94138">
        <ele>2075.62</ele>
        <time>2018-09-02T14:18:29Z</time>
      </trkpt>
      <trkpt lat="45.05972" lon="5.94138">
        <ele>2075.62</ele>
        <time>2018-09-02T14:18:47Z</time>
      </trkpt>
      <trkpt lat="45.05972" lon="5.94141">
        <ele>2075.62</ele>
        <time>2018-09-02T14:19:12Z</time>
      </trkpt>
      <trkpt lat="45.05972" lon="5.94142">
        <ele>2075.14</ele>
        <time>2018-09-02T14:19:41Z</time>
      </trkpt>
      <trkpt lat="45.05973" lon="5.94134">
        <ele>2075.14</ele>
        <time>2018-09-02T14:20:05Z</time>
      </trkpt>
      <trkpt lat="45.05973" lon="5.94128">
        <ele>2074.66</ele>
        <time>2018-09-02T14:20:16Z</time>
      </trkpt>
      <trkpt lat="45.05971" lon="5.9412">
        <ele>2078.03</ele>
        <time>2018-09-02T14:20:26Z</time>
      </trkpt>
      <trkpt lat="45.05969" lon="5.94113">
        <ele>2080.43</ele>
        <time>2018-09-02T14:20:38Z</time>
      </trkpt>
      <trkpt lat="45.05969" lon="5.94109">
        <ele>2078.51</ele>
        <time>2018-09-02T14:20:45Z</time>
      </trkpt>
      <trkpt lat="45.05961" lon="5.94095">
        <ele>2079.47</ele>
        <time>2018-09-02T14:20:59Z</time>
      </trkpt>
      <trkpt lat="45.05951" lon="5.94082">
        <ele>2079.47</ele>
        <time>2018-09-02T14:21:12Z</time>
      </trkpt>
      <trkpt lat="45.05944" lon="5.94073">
        <ele>2081.39</ele>
        <time>2018-09-02T14:21:23Z</time>
      </trkpt>
      <trkpt lat="45.05932" lon="5.94061">
        <ele>2081.39</ele>
        <time>2018-09-02T14:21:37Z</time>
      </trkpt>
      <trkpt lat="45.0593" lon="5.9406">
        <ele>2081.87</ele>
        <time>2018-09-02T14:21:39Z</time>
      </trkpt>
      <trkpt lat="45.05929" lon="5.94058">
        <ele>2081.87</ele>
        <time>2018-09-02T14:21:41Z</time>
      </trkpt>
      <trkpt lat="45.05924" lon="5.94047">
        <ele>2083.31</ele>
        <time>2018-09-02T14:21:55Z</time>
      </trkpt>
      <trkpt lat="45.05913" lon="5.94037">
        <ele>2086.68</ele>
        <time>2018-09-02T14:22:14Z</time>
      </trkpt>
      <trkpt lat="45.05907" lon="5.9402">
        <ele>2087.64</ele>
        <time>2018-09-02T14:22:29Z</time>
      </trkpt>
      <trkpt lat="45.05904" lon="5.94014">
        <ele>2088.6</ele>
        <time>2018-09-02T14:22:35Z</time>
      </trkpt>
      <trkpt lat="45.05903" lon="5.94013">
        <ele>2088.6</ele>
        <time>2018-09-02T14:22:36Z</time>
      </trkpt>
      <trkpt lat="45.0589" lon="5.94002">
        <ele>2088.6</ele>
        <time>2018-09-02T14:22:51Z</time>
      </trkpt>
      <trkpt lat="45.0588" lon="5.93989">
        <ele>2088.12</ele>
        <time>2018-09-02T14:23:05Z</time>
      </trkpt>
      <trkpt lat="45.05876" lon="5.93983">
        <ele>2089.08</ele>
        <time>2018-09-02T14:23:23Z</time>
      </trkpt>
      <trkpt lat="45.05874" lon="5.93978">
        <ele>2088.6</ele>
        <time>2018-09-02T14:23:28Z</time>
      </trkpt>
      <trkpt lat="45.05874" lon="5.93962">
        <ele>2089.56</ele>
        <time>2018-09-02T14:23:42Z</time>
      </trkpt>
      <trkpt lat="45.05873" lon="5.93959">
        <ele>2090.04</ele>
        <time>2018-09-02T14:23:45Z</time>
      </trkpt>
      <trkpt lat="45.05871" lon="5.93955">
        <ele>2090.52</ele>
        <time>2018-09-02T14:23:49Z</time>
      </trkpt>
      <trkpt lat="45.05867" lon="5.93941">
        <ele>2090.52</ele>
        <time>2018-09-02T14:23:59Z</time>
      </trkpt>
      <trkpt lat="45.05869" lon="5.93926">
        <ele>2092.45</ele>
        <time>2018-09-02T14:24:12Z</time>
      </trkpt>
      <trkpt lat="45.05869" lon="5.93922">
        <ele>2092.45</ele>
        <time>2018-09-02T14:24:15Z</time>
      </trkpt>
      <trkpt lat="45.05862" lon="5.939">
        <ele>2094.37</ele>
        <time>2018-09-02T14:24:32Z</time>
      </trkpt>
      <trkpt lat="45.05862" lon="5.93896">
        <ele>2094.37</ele>
        <time>2018-09-02T14:24:36Z</time>
      </trkpt>
      <trkpt lat="45.05866" lon="5.93876">
        <ele>2094.85</ele>
        <time>2018-09-02T14:24:51Z</time>
      </trkpt>
      <trkpt lat="45.05867" lon="5.93858">
        <ele>2095.81</ele>
        <time>2018-09-02T14:25:04Z</time>
      </trkpt>
      <trkpt lat="45.05867" lon="5.93843">
        <ele>2097.73</ele>
        <time>2018-09-02T14:25:17Z</time>
      </trkpt>
      <trkpt lat="45.05865" lon="5.93831">
        <ele>2099.18</ele>
        <time>2018-09-02T14:25:31Z</time>
      </trkpt>
      <trkpt lat="45.0587" lon="5.93825">
        <ele>2101.58</ele>
        <time>2018-09-02T14:25:45Z</time>
      </trkpt>
      <trkpt lat="45.05867" lon="5.93818">
        <ele>2103.02</ele>
        <time>2018-09-02T14:25:55Z</time>
      </trkpt>
      <trkpt lat="45.05867" lon="5.93811">
        <ele>2104.94</ele>
        <time>2018-09-02T14:26:08Z</time>
      </trkpt>
      <trkpt lat="45.05872" lon="5.93806">
        <ele>2107.83</ele>
        <time>2018-09-02T14:26:21Z</time>
      </trkpt>
      <trkpt lat="45.05874" lon="5.93807">
        <ele>2107.83</ele>
        <time>2018-09-02T14:26:25Z</time>
      </trkpt>
      <trkpt lat="45.05883" lon="5.93797">
        <ele>2109.75</ele>
        <time>2018-09-02T14:26:40Z</time>
      </trkpt>
      <trkpt lat="45.05885" lon="5.9379">
        <ele>2109.75</ele>
        <time>2018-09-02T14:26:48Z</time>
      </trkpt>
      <trkpt lat="45.05894" lon="5.93777">
        <ele>2111.67</ele>
        <time>2018-09-02T14:27:03Z</time>
      </trkpt>
      <trkpt lat="45.05896" lon="5.93759">
        <ele>2113.12</ele>
        <time>2018-09-02T14:27:19Z</time>
      </trkpt>
      <trkpt lat="45.05896" lon="5.9375">
        <ele>2114.56</ele>
        <time>2018-09-02T14:27:27Z</time>
      </trkpt>
      <trkpt lat="45.05894" lon="5.93732">
        <ele>2114.56</ele>
        <time>2018-09-02T14:27:42Z</time>
      </trkpt>
      <trkpt lat="45.05894" lon="5.93723">
        <ele>2113.6</ele>
        <time>2018-09-02T14:27:48Z</time>
      </trkpt>
      <trkpt lat="45.05892" lon="5.93717">
        <ele>2112.15</ele>
        <time>2018-09-02T14:27:52Z</time>
      </trkpt>
      <trkpt lat="45.05887" lon="5.93703">
        <ele>2111.67</ele>
        <time>2018-09-02T14:28:02Z</time>
      </trkpt>
      <trkpt lat="45.05885" lon="5.93697">
        <ele>2111.67</ele>
        <time>2018-09-02T14:28:06Z</time>
      </trkpt>
      <trkpt lat="45.05884" lon="5.93688">
        <ele>2109.75</ele>
        <time>2018-09-02T14:28:13Z</time>
      </trkpt>
      <trkpt lat="45.05876" lon="5.93674">
        <ele>2108.31</ele>
        <time>2018-09-02T14:28:25Z</time>
      </trkpt>
      <trkpt lat="45.05872" lon="5.93666">
        <ele>2106.87</ele>
        <time>2018-09-02T14:28:33Z</time>
      </trkpt>
      <trkpt lat="45.05861" lon="5.93651">
        <ele>2105.91</ele>
        <time>2018-09-02T14:28:47Z</time>
      </trkpt>
      <trkpt lat="45.05857" lon="5.93647">
        <ele>2104.94</ele>
        <time>2018-09-02T14:28:51Z</time>
      </trkpt>
      <trkpt lat="45.05853" lon="5.93641">
        <ele>2104.94</ele>
        <time>2018-09-02T14:28:56Z</time>
      </trkpt>
      <trkpt lat="45.05848" lon="5.93618">
        <ele>2103.5</ele>
        <time>2018-09-02T14:29:12Z</time>
      </trkpt>
      <trkpt lat="45.05844" lon="5.93605">
        <ele>2099.66</ele>
        <time>2018-09-02T14:29:23Z</time>
      </trkpt>
      <trkpt lat="45.05844" lon="5.93604">
        <ele>2099.66</ele>
        <time>2018-09-02T14:29:24Z</time>
      </trkpt>
      <trkpt lat="45.05835" lon="5.93596">
        <ele>2096.77</ele>
        <time>2018-09-02T14:29:37Z</time>
      </trkpt>
      <trkpt lat="45.05828" lon="5.93592">
        <ele>2094.85</ele>
        <time>2018-09-02T14:29:46Z</time>
      </trkpt>
      <trkpt lat="45.0582" lon="5.93589">
        <ele>2091.97</ele>
        <time>2018-09-02T14:29:54Z</time>
      </trkpt>
      <trkpt lat="45.05815" lon="5.93571">
        <ele>2089.08</ele>
        <time>2018-09-02T14:30:08Z</time>
      </trkpt>
      <trkpt lat="45.05814" lon="5.9357">
        <ele>2088.6</ele>
        <time>2018-09-02T14:30:09Z</time>
      </trkpt>
      <trkpt lat="45.058" lon="5.93552">
        <ele>2087.16</ele>
        <time>2018-09-02T14:30:26Z</time>
      </trkpt>
      <trkpt lat="45.05793" lon="5.9355">
        <ele>2086.68</ele>
        <time>2018-09-02T14:30:40Z</time>
      </trkpt>
      <trkpt lat="45.05784" lon="5.93535">
        <ele>2085.72</ele>
        <time>2018-09-02T14:30:54Z</time>
      </trkpt>
      <trkpt lat="45.05773" lon="5.93517">
        <ele>2086.68</ele>
        <time>2018-09-02T14:31:10Z</time>
      </trkpt>
      <trkpt lat="45.05764" lon="5.93499">
        <ele>2086.68</ele>
        <time>2018-09-02T14:31:26Z</time>
      </trkpt>
      <trkpt lat="45.05758" lon="5.93481">
        <ele>2088.12</ele>
        <time>2018-09-02T14:31:41Z</time>
      </trkpt>
      <trkpt lat="45.05752" lon="5.93461">
        <ele>2088.12</ele>
        <time>2018-09-02T14:31:56Z</time>
      </trkpt>
      <trkpt lat="45.05747" lon="5.9344">
        <ele>2087.16</ele>
        <time>2018-09-02T14:32:11Z</time>
      </trkpt>
      <trkpt lat="45.05744" lon="5.93419">
        <ele>2086.2</ele>
        <time>2018-09-02T14:32:25Z</time>
      </trkpt>
      <trkpt lat="45.05742" lon="5.93394">
        <ele>2084.28</ele>
        <time>2018-09-02T14:32:42Z</time>
      </trkpt>
      <trkpt lat="45.0574" lon="5.93376">
        <ele>2081.39</ele>
        <time>2018-09-02T14:32:54Z</time>
      </trkpt>
      <trkpt lat="45.05737" lon="5.93353">
        <ele>2078.51</ele>
        <time>2018-09-02T14:33:09Z</time>
      </trkpt>
      <trkpt lat="45.05734" lon="5.93333">
        <ele>2075.14</ele>
        <time>2018-09-02T14:33:23Z</time>
      </trkpt>
      <trkpt lat="45.05732" lon="5.9332">
        <ele>2072.26</ele>
        <time>2018-09-02T14:33:32Z</time>
      </trkpt>
      <trkpt lat="45.05729" lon="5.93309">
        <ele>2070.82</ele>
        <time>2018-09-02T14:33:41Z</time>
      </trkpt>
      <trkpt lat="45.0573" lon="5.93301">
        <ele>2069.86</ele>
        <time>2018-09-02T14:33:56Z</time>
      </trkpt>
      <trkpt lat="45.05729" lon="5.93298">
        <ele>2069.38</ele>
        <time>2018-09-02T14:34:20Z</time>
      </trkpt>
      <trkpt lat="45.0573" lon="5.933">
        <ele>2070.34</ele>
        <time>2018-09-02T14:34:45Z</time>
      </trkpt>
      <trkpt lat="45.05728" lon="5.933">
        <ele>2070.34</ele>
        <time>2018-09-02T14:35:19Z</time>
      </trkpt>
      <trkpt lat="45.05733" lon="5.93291">
        <ele>2069.38</ele>
        <time>2018-09-02T14:35:41Z</time>
      </trkpt>
      <trkpt lat="45.05738" lon="5.93275">
        <ele>2065.53</ele>
        <time>2018-09-02T14:35:53Z</time>
      </trkpt>
      <trkpt lat="45.05739" lon="5.93266">
        <ele>2064.09</ele>
        <time>2018-09-02T14:36:00Z</time>
      </trkpt>
      <trkpt lat="45.0574" lon="5.93264">
        <ele>2064.09</ele>
        <time>2018-09-02T14:36:02Z</time>
      </trkpt>
      <trkpt lat="45.05741" lon="5.93261">
        <ele>2064.09</ele>
        <time>2018-09-02T14:36:04Z</time>
      </trkpt>
      <trkpt lat="45.05742" lon="5.93255">
        <ele>2065.53</ele>
        <time>2018-09-02T14:36:08Z</time>
      </trkpt>
      <trkpt lat="45.05745" lon="5.93242">
        <ele>2063.61</ele>
        <time>2018-09-02T14:36:17Z</time>
      </trkpt>
      <trkpt lat="45.05748" lon="5.93236">
        <ele>2063.13</ele>
        <time>2018-09-02T14:36:22Z</time>
      </trkpt>
      <trkpt lat="45.05757" lon="5.93219">
        <ele>2063.13</ele>
        <time>2018-09-02T14:36:37Z</time>
      </trkpt>
      <trkpt lat="45.05762" lon="5.93204">
        <ele>2062.65</ele>
        <time>2018-09-02T14:36:48Z</time>
      </trkpt>
      <trkpt lat="45.05765" lon="5.93198">
        <ele>2063.13</ele>
        <time>2018-09-02T14:36:53Z</time>
      </trkpt>
      <trkpt lat="45.05772" lon="5.93186">
        <ele>2063.61</ele>
        <time>2018-09-02T14:37:04Z</time>
      </trkpt>
      <trkpt lat="45.05781" lon="5.93165">
        <ele>2064.57</ele>
        <time>2018-09-02T14:37:21Z</time>
      </trkpt>
      <trkpt lat="45.05793" lon="5.93145">
        <ele>2065.05</ele>
        <time>2018-09-02T14:37:38Z</time>
      </trkpt>
      <trkpt lat="45.05808" lon="5.93135">
        <ele>2066.01</ele>
        <time>2018-09-02T14:37:54Z</time>
      </trkpt>
      <trkpt lat="45.05822" lon="5.93125">
        <ele>2065.05</ele>
        <time>2018-09-02T14:38:09Z</time>
      </trkpt>
      <trkpt lat="45.05829" lon="5.93116">
        <ele>2065.05</ele>
        <time>2018-09-02T14:38:17Z</time>
      </trkpt>
      <trkpt lat="45.0583" lon="5.93109">
        <ele>2064.09</ele>
        <time>2018-09-02T14:38:22Z</time>
      </trkpt>
      <trkpt lat="45.0584" lon="5.93093">
        <ele>2064.09</ele>
        <time>2018-09-02T14:38:36Z</time>
      </trkpt>
      <trkpt lat="45.05851" lon="5.93081">
        <ele>2063.13</ele>
        <time>2018-09-02T14:38:50Z</time>
      </trkpt>
      <trkpt lat="45.05861" lon="5.93068">
        <ele>2061.2</ele>
        <time>2018-09-02T14:39:04Z</time>
      </trkpt>
      <trkpt lat="45.05877" lon="5.93055">
        <ele>2060.24</ele>
        <time>2018-09-02T14:39:21Z</time>
      </trkpt>
      <trkpt lat="45.05885" lon="5.93029">
        <ele>2058.8</ele>
        <time>2018-09-02T14:39:38Z</time>
      </trkpt>
      <trkpt lat="45.05887" lon="5.93024">
        <ele>2058.32</ele>
        <time>2018-09-02T14:39:54Z</time>
      </trkpt>
      <trkpt lat="45.05891" lon="5.93013">
        <ele>2058.8</ele>
        <time>2018-09-02T14:40:04Z</time>
      </trkpt>
      <trkpt lat="45.05894" lon="5.93009">
        <ele>2057.84</ele>
        <time>2018-09-02T14:40:07Z</time>
      </trkpt>
      <trkpt lat="45.05895" lon="5.93001">
        <ele>2057.84</ele>
        <time>2018-09-02T14:40:12Z</time>
      </trkpt>
      <trkpt lat="45.05894" lon="5.92976">
        <ele>2055.92</ele>
        <time>2018-09-02T14:40:27Z</time>
      </trkpt>
      <trkpt lat="45.05895" lon="5.9297">
        <ele>2055.92</ele>
        <time>2018-09-02T14:40:31Z</time>
      </trkpt>
      <trkpt lat="45.05896" lon="5.9295">
        <ele>2055.92</ele>
        <time>2018-09-02T14:40:44Z</time>
      </trkpt>
      <trkpt lat="45.05895" lon="5.92944">
        <ele>2055.92</ele>
        <time>2018-09-02T14:40:48Z</time>
      </trkpt>
      <trkpt lat="45.05896" lon="5.92942">
        <ele>2055.44</ele>
        <time>2018-09-02T14:40:50Z</time>
      </trkpt>
      <trkpt lat="45.05898" lon="5.9294">
        <ele>2056.4</ele>
        <time>2018-09-02T14:40:52Z</time>
      </trkpt>
      <trkpt lat="45.05901" lon="5.92935">
        <ele>2055.92</ele>
        <time>2018-09-02T14:41:05Z</time>
      </trkpt>
      <trkpt lat="45.059" lon="5.9293">
        <ele>2055.44</ele>
        <time>2018-09-02T14:41:19Z</time>
      </trkpt>
      <trkpt lat="45.05901" lon="5.92933">
        <ele>2055.92</ele>
        <time>2018-09-02T14:41:41Z</time>
      </trkpt>
      <trkpt lat="45.05903" lon="5.92936">
        <ele>2055.92</ele>
        <time>2018-09-02T14:42:02Z</time>
      </trkpt>
      <trkpt lat="45.05903" lon="5.92934">
        <ele>2055.44</ele>
        <time>2018-09-02T14:42:28Z</time>
      </trkpt>
      <trkpt lat="45.05902" lon="5.92933">
        <ele>2055.44</ele>
        <time>2018-09-02T14:42:52Z</time>
      </trkpt>
      <trkpt lat="45.05902" lon="5.9293">
        <ele>2055.44</ele>
        <time>2018-09-02T14:42:55Z</time>
      </trkpt>
      <trkpt lat="45.05898" lon="5.92915">
        <ele>2055.92</ele>
        <time>2018-09-02T14:43:07Z</time>
      </trkpt>
      <trkpt lat="45.05895" lon="5.92908">
        <ele>2055.44</ele>
        <time>2018-09-02T14:43:12Z</time>
      </trkpt>
      <trkpt lat="45.05891" lon="5.92902">
        <ele>2055.44</ele>
        <time>2018-09-02T14:43:17Z</time>
      </trkpt>
      <trkpt lat="45.05889" lon="5.92897">
        <ele>2055.44</ele>
        <time>2018-09-02T14:43:21Z</time>
      </trkpt>
      <trkpt lat="45.05885" lon="5.92892">
        <ele>2055.92</ele>
        <time>2018-09-02T14:43:27Z</time>
      </trkpt>
      <trkpt lat="45.05878" lon="5.92891">
        <ele>2055.92</ele>
        <time>2018-09-02T14:43:33Z</time>
      </trkpt>
      <trkpt lat="45.05873" lon="5.92888">
        <ele>2055.44</ele>
        <time>2018-09-02T14:43:38Z</time>
      </trkpt>
      <trkpt lat="45.05862" lon="5.92882">
        <ele>2057.36</ele>
        <time>2018-09-02T14:43:51Z</time>
      </trkpt>
      <trkpt lat="45.0586" lon="5.92882">
        <ele>2057.36</ele>
        <time>2018-09-02T14:43:53Z</time>
      </trkpt>
      <trkpt lat="45.05845" lon="5.92883">
        <ele>2057.84</ele>
        <time>2018-09-02T14:44:08Z</time>
      </trkpt>
      <trkpt lat="45.05831" lon="5.92886">
        <ele>2057.84</ele>
        <time>2018-09-02T14:44:21Z</time>
      </trkpt>
      <trkpt lat="45.05819" lon="5.92889">
        <ele>2057.36</ele>
        <time>2018-09-02T14:44:31Z</time>
      </trkpt>
      <trkpt lat="45.05804" lon="5.92887">
        <ele>2057.84</ele>
        <time>2018-09-02T14:44:46Z</time>
      </trkpt>
      <trkpt lat="45.058" lon="5.92888">
        <ele>2058.32</ele>
        <time>2018-09-02T14:44:50Z</time>
      </trkpt>
      <trkpt lat="45.05788" lon="5.92888">
        <ele>2060.24</ele>
        <time>2018-09-02T14:45:04Z</time>
      </trkpt>
      <trkpt lat="45.05777" lon="5.92892">
        <ele>2061.68</ele>
        <time>2018-09-02T14:45:18Z</time>
      </trkpt>
      <trkpt lat="45.05763" lon="5.92895">
        <ele>2060.72</ele>
        <time>2018-09-02T14:45:34Z</time>
      </trkpt>
      <trkpt lat="45.0576" lon="5.92892">
        <ele>2059.28</ele>
        <time>2018-09-02T14:45:39Z</time>
      </trkpt>
      <trkpt lat="45.05752" lon="5.92898">
        <ele>2057.36</ele>
        <time>2018-09-02T14:45:51Z</time>
      </trkpt>
      <trkpt lat="45.0575" lon="5.92896">
        <ele>2056.4</ele>
        <time>2018-09-02T14:45:53Z</time>
      </trkpt>
      <trkpt lat="45.05744" lon="5.92904">
        <ele>2057.36</ele>
        <time>2018-09-02T14:46:04Z</time>
      </trkpt>
      <trkpt lat="45.0573" lon="5.92905">
        <ele>2057.84</ele>
        <time>2018-09-02T14:46:17Z</time>
      </trkpt>
      <trkpt lat="45.05722" lon="5.92894">
        <ele>2058.8</ele>
        <time>2018-09-02T14:46:32Z</time>
      </trkpt>
      <trkpt lat="45.05708" lon="5.9289">
        <ele>2058.8</ele>
        <time>2018-09-02T14:46:46Z</time>
      </trkpt>
      <trkpt lat="45.05693" lon="5.9289">
        <ele>2056.88</ele>
        <time>2018-09-02T14:47:02Z</time>
      </trkpt>
      <trkpt lat="45.0569" lon="5.9289">
        <ele>2057.36</ele>
        <time>2018-09-02T14:47:05Z</time>
      </trkpt>
      <trkpt lat="45.0568" lon="5.92885">
        <ele>2058.32</ele>
        <time>2018-09-02T14:47:16Z</time>
      </trkpt>
      <trkpt lat="45.05667" lon="5.92878">
        <ele>2058.32</ele>
        <time>2018-09-02T14:47:30Z</time>
      </trkpt>
      <trkpt lat="45.05659" lon="5.9287">
        <ele>2056.88</ele>
        <time>2018-09-02T14:47:40Z</time>
      </trkpt>
      <trkpt lat="45.05645" lon="5.92863">
        <ele>2057.36</ele>
        <time>2018-09-02T14:47:55Z</time>
      </trkpt>
      <trkpt lat="45.05642" lon="5.92861">
        <ele>2056.4</ele>
        <time>2018-09-02T14:47:59Z</time>
      </trkpt>
      <trkpt lat="45.05641" lon="5.92859">
        <ele>2055.92</ele>
        <time>2018-09-02T14:48:01Z</time>
      </trkpt>
      <trkpt lat="45.05627" lon="5.92856">
        <ele>2055.92</ele>
        <time>2018-09-02T14:48:16Z</time>
      </trkpt>
      <trkpt lat="45.05624" lon="5.92851">
        <ele>2055.92</ele>
        <time>2018-09-02T14:48:20Z</time>
      </trkpt>
      <trkpt lat="45.05613" lon="5.9286">
        <ele>2055.92</ele>
        <time>2018-09-02T14:48:33Z</time>
      </trkpt>
      <trkpt lat="45.05608" lon="5.92861">
        <ele>2056.88</ele>
        <time>2018-09-02T14:48:45Z</time>
      </trkpt>
      <trkpt lat="45.05605" lon="5.92858">
        <ele>2056.88</ele>
        <time>2018-09-02T14:48:56Z</time>
      </trkpt>
      <trkpt lat="45.05593" lon="5.92852">
        <ele>2056.4</ele>
        <time>2018-09-02T14:49:08Z</time>
      </trkpt>
      <trkpt lat="45.05587" lon="5.92851">
        <ele>2056.4</ele>
        <time>2018-09-02T14:49:21Z</time>
      </trkpt>
      <trkpt lat="45.05581" lon="5.92848">
        <ele>2057.36</ele>
        <time>2018-09-02T14:49:28Z</time>
      </trkpt>
      <trkpt lat="45.05577" lon="5.92848">
        <ele>2056.4</ele>
        <time>2018-09-02T14:49:31Z</time>
      </trkpt>
      <trkpt lat="45.05564" lon="5.92831">
        <ele>2056.4</ele>
        <time>2018-09-02T14:49:46Z</time>
      </trkpt>
      <trkpt lat="45.05551" lon="5.92819">
        <ele>2055.92</ele>
        <time>2018-09-02T14:50:01Z</time>
      </trkpt>
      <trkpt lat="45.05545" lon="5.92799">
        <ele>2055.44</ele>
        <time>2018-09-02T14:50:15Z</time>
      </trkpt>
      <trkpt lat="45.05543" lon="5.9278">
        <ele>2055.92</ele>
        <time>2018-09-02T14:50:28Z</time>
      </trkpt>
      <trkpt lat="45.05544" lon="5.92766">
        <ele>2055.44</ele>
        <time>2018-09-02T14:50:37Z</time>
      </trkpt>
      <trkpt lat="45.05534" lon="5.92758">
        <ele>2055.44</ele>
        <time>2018-09-02T14:50:50Z</time>
      </trkpt>
      <trkpt lat="45.05531" lon="5.92758">
        <ele>2054.96</ele>
        <time>2018-09-02T14:50:54Z</time>
      </trkpt>
      <trkpt lat="45.05515" lon="5.92759">
        <ele>2055.44</ele>
        <time>2018-09-02T14:51:10Z</time>
      </trkpt>
      <trkpt lat="45.05513" lon="5.92758">
        <ele>2054.96</ele>
        <time>2018-09-02T14:51:12Z</time>
      </trkpt>
      <trkpt lat="45.05501" lon="5.9276">
        <ele>2055.44</ele>
        <time>2018-09-02T14:51:26Z</time>
      </trkpt>
      <trkpt lat="45.05499" lon="5.92759">
        <ele>2054.96</ele>
        <time>2018-09-02T14:51:45Z</time>
      </trkpt>
      <trkpt lat="45.05487" lon="5.92758">
        <ele>2056.4</ele>
        <time>2018-09-02T14:51:59Z</time>
      </trkpt>
      <trkpt lat="45.05474" lon="5.92762">
        <ele>2056.4</ele>
        <time>2018-09-02T14:52:13Z</time>
      </trkpt>
      <trkpt lat="45.05469" lon="5.92758">
        <ele>2055.44</ele>
        <time>2018-09-02T14:52:19Z</time>
      </trkpt>
      <trkpt lat="45.05455" lon="5.92744">
        <ele>2054.96</ele>
        <time>2018-09-02T14:52:33Z</time>
      </trkpt>
      <trkpt lat="45.05439" lon="5.92741">
        <ele>2055.92</ele>
        <time>2018-09-02T14:52:48Z</time>
      </trkpt>
      <trkpt lat="45.05435" lon="5.9274">
        <ele>2055.92</ele>
        <time>2018-09-02T14:52:52Z</time>
      </trkpt>
      <trkpt lat="45.05419" lon="5.9273">
        <ele>2054.96</ele>
        <time>2018-09-02T14:53:07Z</time>
      </trkpt>
      <trkpt lat="45.05411" lon="5.92718">
        <ele>2055.44</ele>
        <time>2018-09-02T14:53:17Z</time>
      </trkpt>
      <trkpt lat="45.05398" lon="5.92703">
        <ele>2055.44</ele>
        <time>2018-09-02T14:53:33Z</time>
      </trkpt>
      <trkpt lat="45.05397" lon="5.92705">
        <ele>2054.96</ele>
        <time>2018-09-02T14:53:45Z</time>
      </trkpt>
      <trkpt lat="45.05395" lon="5.92697">
        <ele>2054.96</ele>
        <time>2018-09-02T14:54:03Z</time>
      </trkpt>
      <trkpt lat="45.05391" lon="5.92687">
        <ele>2054.96</ele>
        <time>2018-09-02T14:54:11Z</time>
      </trkpt>
      <trkpt lat="45.05391" lon="5.92684">
        <ele>2054.47</ele>
        <time>2018-09-02T14:54:13Z</time>
      </trkpt>
      <trkpt lat="45.05383" lon="5.92665">
        <ele>2054.47</ele>
        <time>2018-09-02T14:54:29Z</time>
      </trkpt>
      <trkpt lat="45.05379" lon="5.92661">
        <ele>2054.96</ele>
        <time>2018-09-02T14:54:47Z</time>
      </trkpt>
      <trkpt lat="45.05377" lon="5.92654">
        <ele>2054.47</ele>
        <time>2018-09-02T14:55:14Z</time>
      </trkpt>
      <trkpt lat="45.0537" lon="5.92646">
        <ele>2054.47</ele>
        <time>2018-09-02T14:55:27Z</time>
      </trkpt>
      <trkpt lat="45.05361" lon="5.92644">
        <ele>2055.92</ele>
        <time>2018-09-02T14:55:40Z</time>
      </trkpt>
      <trkpt lat="45.0536" lon="5.92644">
        <ele>2056.4</ele>
        <time>2018-09-02T14:55:41Z</time>
      </trkpt>
      <trkpt lat="45.05345" lon="5.92647">
        <ele>2056.4</ele>
        <time>2018-09-02T14:55:56Z</time>
      </trkpt>
      <trkpt lat="45.05343" lon="5.92645">
        <ele>2056.88</ele>
        <time>2018-09-02T14:56:12Z</time>
      </trkpt>
      <trkpt lat="45.05345" lon="5.92647">
        <ele>2055.92</ele>
        <time>2018-09-02T14:56:19Z</time>
      </trkpt>
      <trkpt lat="45.05345" lon="5.92643">
        <ele>2056.88</ele>
        <time>2018-09-02T14:56:23Z</time>
      </trkpt>
      <trkpt lat="45.05347" lon="5.92641">
        <ele>2056.88</ele>
        <time>2018-09-02T14:56:25Z</time>
      </trkpt>
      <trkpt lat="45.05348" lon="5.92638">
        <ele>2057.36</ele>
        <time>2018-09-02T14:56:27Z</time>
      </trkpt>
      <trkpt lat="45.05351" lon="5.92624">
        <ele>2058.32</ele>
        <time>2018-09-02T14:56:38Z</time>
      </trkpt>
      <trkpt lat="45.05353" lon="5.92619">
        <ele>2059.76</ele>
        <time>2018-09-02T14:56:42Z</time>
      </trkpt>
      <trkpt lat="45.05354" lon="5.92613">
        <ele>2059.28</ele>
        <time>2018-09-02T14:56:46Z</time>
      </trkpt>
      <trkpt lat="45.05352" lon="5.92603">
        <ele>2061.2</ele>
        <time>2018-09-02T14:56:52Z</time>
      </trkpt>
      <trkpt lat="45.05351" lon="5.92585">
        <ele>2060.24</ele>
        <time>2018-09-02T14:57:05Z</time>
      </trkpt>
      <trkpt lat="45.05349" lon="5.92582">
        <ele>2060.72</ele>
        <time>2018-09-02T14:57:07Z</time>
      </trkpt>
      <trkpt lat="45.05354" lon="5.92563">
        <ele>2060.72</ele>
        <time>2018-09-02T14:57:22Z</time>
      </trkpt>
      <trkpt lat="45.0536" lon="5.92541">
        <ele>2061.68</ele>
        <time>2018-09-02T14:57:37Z</time>
      </trkpt>
      <trkpt lat="45.05358" lon="5.92522">
        <ele>2060.24</ele>
        <time>2018-09-02T14:57:49Z</time>
      </trkpt>
      <trkpt lat="45.05357" lon="5.92518">
        <ele>2059.76</ele>
        <time>2018-09-02T14:57:52Z</time>
      </trkpt>
      <trkpt lat="45.05351" lon="5.92506">
        <ele>2060.24</ele>
        <time>2018-09-02T14:58:02Z</time>
      </trkpt>
      <trkpt lat="45.05351" lon="5.92503">
        <ele>2061.2</ele>
        <time>2018-09-02T14:58:04Z</time>
      </trkpt>
      <trkpt lat="45.05348" lon="5.92499">
        <ele>2062.65</ele>
        <time>2018-09-02T14:58:10Z</time>
      </trkpt>
      <trkpt lat="45.05337" lon="5.92483">
        <ele>2064.57</ele>
        <time>2018-09-02T14:58:26Z</time>
      </trkpt>
      <trkpt lat="45.05337" lon="5.92482">
        <ele>2064.09</ele>
        <time>2018-09-02T14:58:27Z</time>
      </trkpt>
      <trkpt lat="45.0533" lon="5.92465">
        <ele>2065.05</ele>
        <time>2018-09-02T14:58:42Z</time>
      </trkpt>
      <trkpt lat="45.05325" lon="5.92449">
        <ele>2064.57</ele>
        <time>2018-09-02T14:58:53Z</time>
      </trkpt>
      <trkpt lat="45.0532" lon="5.92446">
        <ele>2064.57</ele>
        <time>2018-09-02T14:58:59Z</time>
      </trkpt>
      <trkpt lat="45.05317" lon="5.92439">
        <ele>2063.61</ele>
        <time>2018-09-02T14:59:04Z</time>
      </trkpt>
      <trkpt lat="45.05306" lon="5.9242">
        <ele>2065.05</ele>
        <time>2018-09-02T14:59:19Z</time>
      </trkpt>
      <trkpt lat="45.05295" lon="5.92404">
        <ele>2065.53</ele>
        <time>2018-09-02T14:59:33Z</time>
      </trkpt>
      <trkpt lat="45.05283" lon="5.92393">
        <ele>2064.09</ele>
        <time>2018-09-02T14:59:50Z</time>
      </trkpt>
      <trkpt lat="45.05272" lon="5.92386">
        <ele>2062.65</ele>
        <time>2018-09-02T15:00:03Z</time>
      </trkpt>
      <trkpt lat="45.05267" lon="5.92378">
        <ele>2062.17</ele>
        <time>2018-09-02T15:00:10Z</time>
      </trkpt>
      <trkpt lat="45.05263" lon="5.92371">
        <ele>2062.17</ele>
        <time>2018-09-02T15:00:16Z</time>
      </trkpt>
      <trkpt lat="45.0526" lon="5.92353">
        <ele>2062.17</ele>
        <time>2018-09-02T15:00:32Z</time>
      </trkpt>
      <trkpt lat="45.05258" lon="5.92333">
        <ele>2063.13</ele>
        <time>2018-09-02T15:00:46Z</time>
      </trkpt>
      <trkpt lat="45.05258" lon="5.92324">
        <ele>2062.17</ele>
        <time>2018-09-02T15:00:54Z</time>
      </trkpt>
      <trkpt lat="45.05263" lon="5.9231">
        <ele>2061.68</ele>
        <time>2018-09-02T15:01:05Z</time>
      </trkpt>
      <trkpt lat="45.05265" lon="5.92309">
        <ele>2061.68</ele>
        <time>2018-09-02T15:01:07Z</time>
      </trkpt>
      <trkpt lat="45.05271" lon="5.92285">
        <ele>2060.24</ele>
        <time>2018-09-02T15:01:23Z</time>
      </trkpt>
      <trkpt lat="45.05272" lon="5.92281">
        <ele>2059.76</ele>
        <time>2018-09-02T15:01:39Z</time>
      </trkpt>
      <trkpt lat="45.05272" lon="5.92279">
        <ele>2059.28</ele>
        <time>2018-09-02T15:02:00Z</time>
      </trkpt>
      <trkpt lat="45.05272" lon="5.92278">
        <ele>2059.76</ele>
        <time>2018-09-02T15:02:16Z</time>
      </trkpt>
      <trkpt lat="45.05273" lon="5.92278">
        <ele>2059.76</ele>
        <time>2018-09-02T15:02:52Z</time>
      </trkpt>
      <trkpt lat="45.05273" lon="5.9228">
        <ele>2061.2</ele>
        <time>2018-09-02T15:03:16Z</time>
      </trkpt>
      <trkpt lat="45.05272" lon="5.92278">
        <ele>2061.2</ele>
        <time>2018-09-02T15:03:32Z</time>
      </trkpt>
      <trkpt lat="45.05271" lon="5.92276">
        <ele>2061.2</ele>
        <time>2018-09-02T15:03:58Z</time>
      </trkpt>
      <trkpt lat="45.05272" lon="5.92279">
        <ele>2061.2</ele>
        <time>2018-09-02T15:04:21Z</time>
      </trkpt>
      <trkpt lat="45.05272" lon="5.92271">
        <ele>2061.2</ele>
        <time>2018-09-02T15:04:43Z</time>
      </trkpt>
      <trkpt lat="45.05267" lon="5.92262">
        <ele>2059.28</ele>
        <time>2018-09-02T15:04:59Z</time>
      </trkpt>
      <trkpt lat="45.05259" lon="5.92252">
        <ele>2057.36</ele>
        <time>2018-09-02T15:05:14Z</time>
      </trkpt>
      <trkpt lat="45.05258" lon="5.92251">
        <ele>2056.88</ele>
        <time>2018-09-02T15:05:16Z</time>
      </trkpt>
      <trkpt lat="45.05256" lon="5.92239">
        <ele>2055.44</ele>
        <time>2018-09-02T15:05:31Z</time>
      </trkpt>
      <trkpt lat="45.05247" lon="5.92238">
        <ele>2052.07</ele>
        <time>2018-09-02T15:05:41Z</time>
      </trkpt>
      <trkpt lat="45.05238" lon="5.92231">
        <ele>2050.63</ele>
        <time>2018-09-02T15:05:55Z</time>
      </trkpt>
      <trkpt lat="45.05236" lon="5.92222">
        <ele>2047.26</ele>
        <time>2018-09-02T15:06:07Z</time>
      </trkpt>
      <trkpt lat="45.05235" lon="5.92213">
        <ele>2043.9</ele>
        <time>2018-09-02T15:06:18Z</time>
      </trkpt>
      <trkpt lat="45.05226" lon="5.92207">
        <ele>2042.46</ele>
        <time>2018-09-02T15:06:31Z</time>
      </trkpt>
      <trkpt lat="45.05236" lon="5.92203">
        <ele>2040.05</ele>
        <time>2018-09-02T15:06:43Z</time>
      </trkpt>
      <trkpt lat="45.05244" lon="5.92201">
        <ele>2036.69</ele>
        <time>2018-09-02T15:06:53Z</time>
      </trkpt>
      <trkpt lat="45.05246" lon="5.92199">
        <ele>2036.21</ele>
        <time>2018-09-02T15:06:56Z</time>
      </trkpt>
      <trkpt lat="45.05254" lon="5.922">
        <ele>2033.81</ele>
        <time>2018-09-02T15:07:10Z</time>
      </trkpt>
      <trkpt lat="45.05265" lon="5.92198">
        <ele>2031.88</ele>
        <time>2018-09-02T15:07:22Z</time>
      </trkpt>
      <trkpt lat="45.05273" lon="5.92193">
        <ele>2029</ele>
        <time>2018-09-02T15:07:33Z</time>
      </trkpt>
      <trkpt lat="45.05284" lon="5.92191">
        <ele>2025.64</ele>
        <time>2018-09-02T15:07:49Z</time>
      </trkpt>
      <trkpt lat="45.05285" lon="5.9219">
        <ele>2026.12</ele>
        <time>2018-09-02T15:07:50Z</time>
      </trkpt>
      <trkpt lat="45.05293" lon="5.92191">
        <ele>2023.23</ele>
        <time>2018-09-02T15:08:05Z</time>
      </trkpt>
      <trkpt lat="45.05294" lon="5.92191">
        <ele>2023.23</ele>
        <time>2018-09-02T15:08:06Z</time>
      </trkpt>
      <trkpt lat="45.053" lon="5.92189">
        <ele>2019.87</ele>
        <time>2018-09-02T15:08:12Z</time>
      </trkpt>
      <trkpt lat="45.05302" lon="5.92187">
        <ele>2018.43</ele>
        <time>2018-09-02T15:08:15Z</time>
      </trkpt>
      <trkpt lat="45.05312" lon="5.9219">
        <ele>2015.06</ele>
        <time>2018-09-02T15:08:27Z</time>
      </trkpt>
      <trkpt lat="45.05319" lon="5.92187">
        <ele>2013.14</ele>
        <time>2018-09-02T15:08:37Z</time>
      </trkpt>
      <trkpt lat="45.05321" lon="5.92186">
        <ele>2012.18</ele>
        <time>2018-09-02T15:08:39Z</time>
      </trkpt>
      <trkpt lat="45.05334" lon="5.92184">
        <ele>2008.33</ele>
        <time>2018-09-02T15:08:51Z</time>
      </trkpt>
      <trkpt lat="45.05343" lon="5.92182">
        <ele>2005.93</ele>
        <time>2018-09-02T15:08:59Z</time>
      </trkpt>
      <trkpt lat="45.05348" lon="5.92177">
        <ele>2003.52</ele>
        <time>2018-09-02T15:09:04Z</time>
      </trkpt>
      <trkpt lat="45.05357" lon="5.92173">
        <ele>2000.16</ele>
        <time>2018-09-02T15:09:20Z</time>
      </trkpt>
      <trkpt lat="45.05356" lon="5.92167">
        <ele>1998.24</ele>
        <time>2018-09-02T15:09:33Z</time>
      </trkpt>
      <trkpt lat="45.05351" lon="5.9216">
        <ele>1994.87</ele>
        <time>2018-09-02T15:09:42Z</time>
      </trkpt>
      <trkpt lat="45.05351" lon="5.92158">
        <ele>1993.91</ele>
        <time>2018-09-02T15:09:44Z</time>
      </trkpt>
      <trkpt lat="45.05344" lon="5.92147">
        <ele>1991.51</ele>
        <time>2018-09-02T15:09:59Z</time>
      </trkpt>
      <trkpt lat="45.05334" lon="5.92138">
        <ele>1989.1</ele>
        <time>2018-09-02T15:10:14Z</time>
      </trkpt>
      <trkpt lat="45.0533" lon="5.92128">
        <ele>1985.26</ele>
        <time>2018-09-02T15:10:27Z</time>
      </trkpt>
      <trkpt lat="45.05323" lon="5.92117">
        <ele>1981.9</ele>
        <time>2018-09-02T15:10:39Z</time>
      </trkpt>
      <trkpt lat="45.05313" lon="5.92104">
        <ele>1978.53</ele>
        <time>2018-09-02T15:10:52Z</time>
      </trkpt>
      <trkpt lat="45.05309" lon="5.92094">
        <ele>1975.17</ele>
        <time>2018-09-02T15:11:02Z</time>
      </trkpt>
      <trkpt lat="45.05302" lon="5.92082">
        <ele>1972.28</ele>
        <time>2018-09-02T15:11:13Z</time>
      </trkpt>
      <trkpt lat="45.05296" lon="5.92076">
        <ele>1969.88</ele>
        <time>2018-09-02T15:11:21Z</time>
      </trkpt>
      <trkpt lat="45.05292" lon="5.92071">
        <ele>1968.92</ele>
        <time>2018-09-02T15:11:34Z</time>
      </trkpt>
      <trkpt lat="45.05292" lon="5.9207">
        <ele>1968.44</ele>
        <time>2018-09-02T15:11:55Z</time>
      </trkpt>
      <trkpt lat="45.05284" lon="5.92072">
        <ele>1968.92</ele>
        <time>2018-09-02T15:12:09Z</time>
      </trkpt>
      <trkpt lat="45.05282" lon="5.92071">
        <ele>1968.44</ele>
        <time>2018-09-02T15:12:12Z</time>
      </trkpt>
      <trkpt lat="45.05279" lon="5.92065">
        <ele>1968.92</ele>
        <time>2018-09-02T15:12:21Z</time>
      </trkpt>
      <trkpt lat="45.05275" lon="5.92061">
        <ele>1965.55</ele>
        <time>2018-09-02T15:12:31Z</time>
      </trkpt>
      <trkpt lat="45.05268" lon="5.92052">
        <ele>1963.15</ele>
        <time>2018-09-02T15:12:44Z</time>
      </trkpt>
      <trkpt lat="45.05264" lon="5.92047">
        <ele>1961.71</ele>
        <time>2018-09-02T15:12:49Z</time>
      </trkpt>
      <trkpt lat="45.05256" lon="5.92041">
        <ele>1959.3</ele>
        <time>2018-09-02T15:13:01Z</time>
      </trkpt>
      <trkpt lat="45.0525" lon="5.92028">
        <ele>1956.42</ele>
        <time>2018-09-02T15:13:13Z</time>
      </trkpt>
      <trkpt lat="45.05248" lon="5.92021">
        <ele>1954.02</ele>
        <time>2018-09-02T15:13:26Z</time>
      </trkpt>
      <trkpt lat="45.05249" lon="5.92014">
        <ele>1951.13</ele>
        <time>2018-09-02T15:13:39Z</time>
      </trkpt>
      <trkpt lat="45.05246" lon="5.92001">
        <ele>1947.29</ele>
        <time>2018-09-02T15:13:51Z</time>
      </trkpt>
      <trkpt lat="45.05245" lon="5.91988">
        <ele>1944.4</ele>
        <time>2018-09-02T15:14:02Z</time>
      </trkpt>
      <trkpt lat="45.05244" lon="5.91977">
        <ele>1941.04</ele>
        <time>2018-09-02T15:14:12Z</time>
      </trkpt>
      <trkpt lat="45.05241" lon="5.91971">
        <ele>1939.12</ele>
        <time>2018-09-02T15:14:20Z</time>
      </trkpt>
      <trkpt lat="45.05236" lon="5.91965">
        <ele>1937.19</ele>
        <time>2018-09-02T15:14:28Z</time>
      </trkpt>
      <trkpt lat="45.05232" lon="5.91959">
        <ele>1935.27</ele>
        <time>2018-09-02T15:14:38Z</time>
      </trkpt>
      <trkpt lat="45.0523" lon="5.91957">
        <ele>1933.35</ele>
        <time>2018-09-02T15:14:47Z</time>
      </trkpt>
      <trkpt lat="45.0523" lon="5.91958">
        <ele>1932.87</ele>
        <time>2018-09-02T15:14:51Z</time>
      </trkpt>
      <trkpt lat="45.0523" lon="5.91959">
        <ele>1932.87</ele>
        <time>2018-09-02T15:14:59Z</time>
      </trkpt>
      <trkpt lat="45.05228" lon="5.91958">
        <ele>1932.39</ele>
        <time>2018-09-02T15:15:25Z</time>
      </trkpt>
      <trkpt lat="45.05229" lon="5.91956">
        <ele>1933.35</ele>
        <time>2018-09-02T15:15:40Z</time>
      </trkpt>
      <trkpt lat="45.05223" lon="5.91951">
        <ele>1929.98</ele>
        <time>2018-09-02T15:15:54Z</time>
      </trkpt>
      <trkpt lat="45.05221" lon="5.91953">
        <ele>1929.98</ele>
        <time>2018-09-02T15:16:12Z</time>
      </trkpt>
      <trkpt lat="45.05224" lon="5.91949">
        <ele>1929.5</ele>
        <time>2018-09-02T15:16:30Z</time>
      </trkpt>
      <trkpt lat="45.05225" lon="5.91944">
        <ele>1927.1</ele>
        <time>2018-09-02T15:16:49Z</time>
      </trkpt>
      <trkpt lat="45.05221" lon="5.91939">
        <ele>1924.7</ele>
        <time>2018-09-02T15:16:58Z</time>
      </trkpt>
      <trkpt lat="45.05219" lon="5.91935">
        <ele>1922.77</ele>
        <time>2018-09-02T15:17:03Z</time>
      </trkpt>
      <trkpt lat="45.05213" lon="5.91926">
        <ele>1919.89</ele>
        <time>2018-09-02T15:17:13Z</time>
      </trkpt>
      <trkpt lat="45.05208" lon="5.91919">
        <ele>1917.01</ele>
        <time>2018-09-02T15:17:21Z</time>
      </trkpt>
      <trkpt lat="45.0521" lon="5.91914">
        <ele>1914.12</ele>
        <time>2018-09-02T15:17:33Z</time>
      </trkpt>
      <trkpt lat="45.05205" lon="5.91909">
        <ele>1911.24</ele>
        <time>2018-09-02T15:17:48Z</time>
      </trkpt>
      <trkpt lat="45.05204" lon="5.91904">
        <ele>1909.32</ele>
        <time>2018-09-02T15:17:57Z</time>
      </trkpt>
      <trkpt lat="45.05202" lon="5.91883">
        <ele>1905.95</ele>
        <time>2018-09-02T15:18:09Z</time>
      </trkpt>
      <trkpt lat="45.05202" lon="5.91873">
        <ele>1903.55</ele>
        <time>2018-09-02T15:18:16Z</time>
      </trkpt>
      <trkpt lat="45.05199" lon="5.91864">
        <ele>1902.11</ele>
        <time>2018-09-02T15:18:22Z</time>
      </trkpt>
      <trkpt lat="45.05198" lon="5.91861">
        <ele>1901.14</ele>
        <time>2018-09-02T15:18:24Z</time>
      </trkpt>
      <trkpt lat="45.05197" lon="5.9186">
        <ele>1901.14</ele>
        <time>2018-09-02T15:18:25Z</time>
      </trkpt>
      <trkpt lat="45.05196" lon="5.91846">
        <ele>1898.74</ele>
        <time>2018-09-02T15:18:33Z</time>
      </trkpt>
      <trkpt lat="45.05197" lon="5.91834">
        <ele>1895.86</ele>
        <time>2018-09-02T15:18:44Z</time>
      </trkpt>
      <trkpt lat="45.05198" lon="5.91827">
        <ele>1893.93</ele>
        <time>2018-09-02T15:18:54Z</time>
      </trkpt>
      <trkpt lat="45.05196" lon="5.91814">
        <ele>1890.57</ele>
        <time>2018-09-02T15:19:05Z</time>
      </trkpt>
      <trkpt lat="45.05195" lon="5.91806">
        <ele>1888.17</ele>
        <time>2018-09-02T15:19:13Z</time>
      </trkpt>
      <trkpt lat="45.05196" lon="5.91796">
        <ele>1885.76</ele>
        <time>2018-09-02T15:19:26Z</time>
      </trkpt>
      <trkpt lat="45.05197" lon="5.91789">
        <ele>1883.36</ele>
        <time>2018-09-02T15:19:43Z</time>
      </trkpt>
      <trkpt lat="45.05196" lon="5.91789">
        <ele>1882.4</ele>
        <time>2018-09-02T15:19:54Z</time>
      </trkpt>
      <trkpt lat="45.05197" lon="5.91781">
        <ele>1880.48</ele>
        <time>2018-09-02T15:20:03Z</time>
      </trkpt>
      <trkpt lat="45.052" lon="5.91771">
        <ele>1877.59</ele>
        <time>2018-09-02T15:20:12Z</time>
      </trkpt>
      <trkpt lat="45.052" lon="5.91769">
        <ele>1877.11</ele>
        <time>2018-09-02T15:20:13Z</time>
      </trkpt>
      <trkpt lat="45.05193" lon="5.91758">
        <ele>1874.23</ele>
        <time>2018-09-02T15:20:25Z</time>
      </trkpt>
      <trkpt lat="45.05194" lon="5.91751">
        <ele>1871.82</ele>
        <time>2018-09-02T15:20:38Z</time>
      </trkpt>
      <trkpt lat="45.05193" lon="5.91747">
        <ele>1869.9</ele>
        <time>2018-09-02T15:20:51Z</time>
      </trkpt>
      <trkpt lat="45.05194" lon="5.9175">
        <ele>1869.42</ele>
        <time>2018-09-02T15:21:11Z</time>
      </trkpt>
      <trkpt lat="45.05202" lon="5.91748">
        <ele>1867.98</ele>
        <time>2018-09-02T15:21:29Z</time>
      </trkpt>
      <trkpt lat="45.05201" lon="5.91736">
        <ele>1865.09</ele>
        <time>2018-09-02T15:21:38Z</time>
      </trkpt>
      <trkpt lat="45.05195" lon="5.91727">
        <ele>1861.73</ele>
        <time>2018-09-02T15:21:47Z</time>
      </trkpt>
      <trkpt lat="45.05194" lon="5.91725">
        <ele>1860.29</ele>
        <time>2018-09-02T15:21:50Z</time>
      </trkpt>
      <trkpt lat="45.05192" lon="5.91722">
        <ele>1859.33</ele>
        <time>2018-09-02T15:21:53Z</time>
      </trkpt>
      <trkpt lat="45.05181" lon="5.91715">
        <ele>1856.92</ele>
        <time>2018-09-02T15:22:07Z</time>
      </trkpt>
      <trkpt lat="45.05181" lon="5.91713">
        <ele>1857.4</ele>
        <time>2018-09-02T15:22:10Z</time>
      </trkpt>
      <trkpt lat="45.05182" lon="5.91702">
        <ele>1854.04</ele>
        <time>2018-09-02T15:22:24Z</time>
      </trkpt>
      <trkpt lat="45.05186" lon="5.91691">
        <ele>1850.68</ele>
        <time>2018-09-02T15:22:36Z</time>
      </trkpt>
      <trkpt lat="45.05185" lon="5.91686">
        <ele>1850.68</ele>
        <time>2018-09-02T15:22:41Z</time>
      </trkpt>
      <trkpt lat="45.05184" lon="5.91674">
        <ele>1847.79</ele>
        <time>2018-09-02T15:22:51Z</time>
      </trkpt>
      <trkpt lat="45.05189" lon="5.9166">
        <ele>1844.91</ele>
        <time>2018-09-02T15:23:05Z</time>
      </trkpt>
      <trkpt lat="45.05187" lon="5.91646">
        <ele>1841.54</ele>
        <time>2018-09-02T15:23:17Z</time>
      </trkpt>
      <trkpt lat="45.05187" lon="5.91644">
        <ele>1841.54</ele>
        <time>2018-09-02T15:23:18Z</time>
      </trkpt>
      <trkpt lat="45.05184" lon="5.91633">
        <ele>1839.14</ele>
        <time>2018-09-02T15:23:30Z</time>
      </trkpt>
      <trkpt lat="45.05184" lon="5.91621">
        <ele>1837.22</ele>
        <time>2018-09-02T15:23:44Z</time>
      </trkpt>
      <trkpt lat="45.05184" lon="5.91611">
        <ele>1834.33</ele>
        <time>2018-09-02T15:23:56Z</time>
      </trkpt>
      <trkpt lat="45.05184" lon="5.91601">
        <ele>1832.41</ele>
        <time>2018-09-02T15:24:09Z</time>
      </trkpt>
      <trkpt lat="45.05181" lon="5.9159">
        <ele>1829.53</ele>
        <time>2018-09-02T15:24:23Z</time>
      </trkpt>
      <trkpt lat="45.05181" lon="5.91574">
        <ele>1826.16</ele>
        <time>2018-09-02T15:24:37Z</time>
      </trkpt>
      <trkpt lat="45.05178" lon="5.91564">
        <ele>1823.76</ele>
        <time>2018-09-02T15:24:48Z</time>
      </trkpt>
      <trkpt lat="45.05175" lon="5.91552">
        <ele>1820.87</ele>
        <time>2018-09-02T15:24:59Z</time>
      </trkpt>
      <trkpt lat="45.05174" lon="5.91543">
        <ele>1817.51</ele>
        <time>2018-09-02T15:25:12Z</time>
      </trkpt>
      <trkpt lat="45.05172" lon="5.91531">
        <ele>1815.11</ele>
        <time>2018-09-02T15:25:25Z</time>
      </trkpt>
      <trkpt lat="45.05171" lon="5.9152">
        <ele>1811.74</ele>
        <time>2018-09-02T15:25:37Z</time>
      </trkpt>
      <trkpt lat="45.0517" lon="5.91518">
        <ele>1811.74</ele>
        <time>2018-09-02T15:25:38Z</time>
      </trkpt>
      <trkpt lat="45.05167" lon="5.91511">
        <ele>1809.82</ele>
        <time>2018-09-02T15:25:42Z</time>
      </trkpt>
      <trkpt lat="45.05166" lon="5.9151">
        <ele>1809.34</ele>
        <time>2018-09-02T15:25:43Z</time>
      </trkpt>
      <trkpt lat="45.05158" lon="5.91496">
        <ele>1807.42</ele>
        <time>2018-09-02T15:25:52Z</time>
      </trkpt>
      <trkpt lat="45.05159" lon="5.91491">
        <ele>1805.97</ele>
        <time>2018-09-02T15:25:56Z</time>
      </trkpt>
      <trkpt lat="45.0516" lon="5.91488">
        <ele>1805.49</ele>
        <time>2018-09-02T15:25:58Z</time>
      </trkpt>
      <trkpt lat="45.0516" lon="5.91474">
        <ele>1803.57</ele>
        <time>2018-09-02T15:26:06Z</time>
      </trkpt>
      <trkpt lat="45.05161" lon="5.91472">
        <ele>1803.09</ele>
        <time>2018-09-02T15:26:08Z</time>
      </trkpt>
      <trkpt lat="45.05161" lon="5.91465">
        <ele>1801.65</ele>
        <time>2018-09-02T15:26:12Z</time>
      </trkpt>
      <trkpt lat="45.05156" lon="5.91448">
        <ele>1800.21</ele>
        <time>2018-09-02T15:26:22Z</time>
      </trkpt>
      <trkpt lat="45.05154" lon="5.91425">
        <ele>1800.21</ele>
        <time>2018-09-02T15:26:35Z</time>
      </trkpt>
      <trkpt lat="45.05154" lon="5.91422">
        <ele>1800.21</ele>
        <time>2018-09-02T15:26:37Z</time>
      </trkpt>
      <trkpt lat="45.0515" lon="5.91409">
        <ele>1799.24</ele>
        <time>2018-09-02T15:26:49Z</time>
      </trkpt>
      <trkpt lat="45.0515" lon="5.91405">
        <ele>1798.28</ele>
        <time>2018-09-02T15:26:52Z</time>
      </trkpt>
      <trkpt lat="45.05139" lon="5.91396">
        <ele>1796.36</ele>
        <time>2018-09-02T15:27:03Z</time>
      </trkpt>
      <trkpt lat="45.05139" lon="5.91392">
        <ele>1794.92</ele>
        <time>2018-09-02T15:27:06Z</time>
      </trkpt>
      <trkpt lat="45.05138" lon="5.91388">
        <ele>1793.96</ele>
        <time>2018-09-02T15:27:08Z</time>
      </trkpt>
      <trkpt lat="45.05131" lon="5.91377">
        <ele>1792.52</ele>
        <time>2018-09-02T15:27:18Z</time>
      </trkpt>
      <trkpt lat="45.05126" lon="5.91372">
        <ele>1791.55</ele>
        <time>2018-09-02T15:27:22Z</time>
      </trkpt>
      <trkpt lat="45.05117" lon="5.91362">
        <ele>1789.63</ele>
        <time>2018-09-02T15:27:36Z</time>
      </trkpt>
      <trkpt lat="45.05109" lon="5.91354">
        <ele>1786.75</ele>
        <time>2018-09-02T15:27:47Z</time>
      </trkpt>
      <trkpt lat="45.05097" lon="5.91349">
        <ele>1786.75</ele>
        <time>2018-09-02T15:27:58Z</time>
      </trkpt>
      <trkpt lat="45.0509" lon="5.91338">
        <ele>1788.19</ele>
        <time>2018-09-02T15:28:12Z</time>
      </trkpt>
      <trkpt lat="45.05088" lon="5.9133">
        <ele>1785.31</ele>
        <time>2018-09-02T15:28:23Z</time>
      </trkpt>
      <trkpt lat="45.05087" lon="5.91327">
        <ele>1784.34</ele>
        <time>2018-09-02T15:28:26Z</time>
      </trkpt>
      <trkpt lat="45.05079" lon="5.91317">
        <ele>1781.94</ele>
        <time>2018-09-02T15:28:39Z</time>
      </trkpt>
      <trkpt lat="45.05078" lon="5.91307">
        <ele>1780.02</ele>
        <time>2018-09-02T15:28:50Z</time>
      </trkpt>
      <trkpt lat="45.0507" lon="5.91293">
        <ele>1778.1</ele>
        <time>2018-09-02T15:29:04Z</time>
      </trkpt>
      <trkpt lat="45.0507" lon="5.9129">
        <ele>1777.61</ele>
        <time>2018-09-02T15:29:06Z</time>
      </trkpt>
      <trkpt lat="45.05067" lon="5.91277">
        <ele>1774.25</ele>
        <time>2018-09-02T15:29:18Z</time>
      </trkpt>
      <trkpt lat="45.05064" lon="5.91272">
        <ele>1774.25</ele>
        <time>2018-09-02T15:29:22Z</time>
      </trkpt>
      <trkpt lat="45.05065" lon="5.91262">
        <ele>1770.89</ele>
        <time>2018-09-02T15:29:31Z</time>
      </trkpt>
      <trkpt lat="45.05064" lon="5.91257">
        <ele>1769.44</ele>
        <time>2018-09-02T15:29:35Z</time>
      </trkpt>
      <trkpt lat="45.05064" lon="5.91255">
        <ele>1769.92</ele>
        <time>2018-09-02T15:29:36Z</time>
      </trkpt>
      <trkpt lat="45.05063" lon="5.91247">
        <ele>1767.52</ele>
        <time>2018-09-02T15:29:47Z</time>
      </trkpt>
      <trkpt lat="45.05057" lon="5.91232">
        <ele>1764.64</ele>
        <time>2018-09-02T15:29:59Z</time>
      </trkpt>
      <trkpt lat="45.05056" lon="5.9122">
        <ele>1761.75</ele>
        <time>2018-09-02T15:30:09Z</time>
      </trkpt>
      <trkpt lat="45.05056" lon="5.91208">
        <ele>1759.35</ele>
        <time>2018-09-02T15:30:22Z</time>
      </trkpt>
      <trkpt lat="45.05057" lon="5.91205">
        <ele>1758.39</ele>
        <time>2018-09-02T15:30:24Z</time>
      </trkpt>
      <trkpt lat="45.05056" lon="5.91199">
        <ele>1757.43</ele>
        <time>2018-09-02T15:30:28Z</time>
      </trkpt>
      <trkpt lat="45.05052" lon="5.91192">
        <ele>1755.99</ele>
        <time>2018-09-02T15:30:33Z</time>
      </trkpt>
      <trkpt lat="45.05052" lon="5.91184">
        <ele>1754.54</ele>
        <time>2018-09-02T15:30:37Z</time>
      </trkpt>
      <trkpt lat="45.0505" lon="5.91176">
        <ele>1751.66</ele>
        <time>2018-09-02T15:30:47Z</time>
      </trkpt>
      <trkpt lat="45.05047" lon="5.91172">
        <ele>1750.7</ele>
        <time>2018-09-02T15:30:50Z</time>
      </trkpt>
      <trkpt lat="45.05046" lon="5.91169">
        <ele>1749.74</ele>
        <time>2018-09-02T15:30:52Z</time>
      </trkpt>
      <trkpt lat="45.05045" lon="5.91166">
        <ele>1748.78</ele>
        <time>2018-09-02T15:30:54Z</time>
      </trkpt>
      <trkpt lat="45.05044" lon="5.91165">
        <ele>1748.78</ele>
        <time>2018-09-02T15:30:55Z</time>
      </trkpt>
      <trkpt lat="45.0504" lon="5.91161">
        <ele>1748.29</ele>
        <time>2018-09-02T15:31:01Z</time>
      </trkpt>
      <trkpt lat="45.0504" lon="5.91155">
        <ele>1747.33</ele>
        <time>2018-09-02T15:31:04Z</time>
      </trkpt>
      <trkpt lat="45.0504" lon="5.91151">
        <ele>1747.33</ele>
        <time>2018-09-02T15:31:06Z</time>
      </trkpt>
      <trkpt lat="45.05042" lon="5.91147">
        <ele>1746.85</ele>
        <time>2018-09-02T15:31:09Z</time>
      </trkpt>
      <trkpt lat="45.05042" lon="5.91142">
        <ele>1745.89</ele>
        <time>2018-09-02T15:31:12Z</time>
      </trkpt>
      <trkpt lat="45.05032" lon="5.9113">
        <ele>1747.81</ele>
        <time>2018-09-02T15:31:24Z</time>
      </trkpt>
      <trkpt lat="45.05033" lon="5.91129">
        <ele>1748.29</ele>
        <time>2018-09-02T15:31:26Z</time>
      </trkpt>
      <trkpt lat="45.05038" lon="5.91122">
        <ele>1744.93</ele>
        <time>2018-09-02T15:31:35Z</time>
      </trkpt>
      <trkpt lat="45.05039" lon="5.91118">
        <ele>1744.93</ele>
        <time>2018-09-02T15:31:47Z</time>
      </trkpt>
      <trkpt lat="45.05039" lon="5.91116">
        <ele>1743.97</ele>
        <time>2018-09-02T15:31:50Z</time>
      </trkpt>
      <trkpt lat="45.05041" lon="5.91103">
        <ele>1742.05</ele>
        <time>2018-09-02T15:32:00Z</time>
      </trkpt>
      <trkpt lat="45.05045" lon="5.91102">
        <ele>1740.12</ele>
        <time>2018-09-02T15:32:04Z</time>
      </trkpt>
      <trkpt lat="45.05048" lon="5.91097">
        <ele>1738.68</ele>
        <time>2018-09-02T15:32:08Z</time>
      </trkpt>
      <trkpt lat="45.05052" lon="5.91085">
        <ele>1736.76</ele>
        <time>2018-09-02T15:32:18Z</time>
      </trkpt>
      <trkpt lat="45.05055" lon="5.91079">
        <ele>1735.8</ele>
        <time>2018-09-02T15:32:22Z</time>
      </trkpt>
      <trkpt lat="45.05055" lon="5.91075">
        <ele>1735.8</ele>
        <time>2018-09-02T15:32:24Z</time>
      </trkpt>
      <trkpt lat="45.05058" lon="5.91065">
        <ele>1736.28</ele>
        <time>2018-09-02T15:32:29Z</time>
      </trkpt>
      <trkpt lat="45.05064" lon="5.91052">
        <ele>1735.32</ele>
        <time>2018-09-02T15:32:40Z</time>
      </trkpt>
      <trkpt lat="45.05066" lon="5.91036">
        <ele>1735.32</ele>
        <time>2018-09-02T15:32:54Z</time>
      </trkpt>
      <trkpt lat="45.05066" lon="5.91027">
        <ele>1733.88</ele>
        <time>2018-09-02T15:32:59Z</time>
      </trkpt>
      <trkpt lat="45.05067" lon="5.9101">
        <ele>1734.36</ele>
        <time>2018-09-02T15:33:09Z</time>
      </trkpt>
      <trkpt lat="45.05069" lon="5.90998">
        <ele>1733.39</ele>
        <time>2018-09-02T15:33:18Z</time>
      </trkpt>
      <trkpt lat="45.0507" lon="5.90977">
        <ele>1733.39</ele>
        <time>2018-09-02T15:33:30Z</time>
      </trkpt>
      <trkpt lat="45.0507" lon="5.90973">
        <ele>1732.91</ele>
        <time>2018-09-02T15:33:33Z</time>
      </trkpt>
      <trkpt lat="45.05075" lon="5.90966">
        <ele>1730.99</ele>
        <time>2018-09-02T15:33:39Z</time>
      </trkpt>
      <trkpt lat="45.05078" lon="5.90941">
        <ele>1729.07</ele>
        <time>2018-09-02T15:33:53Z</time>
      </trkpt>
      <trkpt lat="45.05082" lon="5.90928">
        <ele>1727.15</ele>
        <time>2018-09-02T15:34:03Z</time>
      </trkpt>
      <trkpt lat="45.05086" lon="5.90921">
        <ele>1725.22</ele>
        <time>2018-09-02T15:34:08Z</time>
      </trkpt>
      <trkpt lat="45.05091" lon="5.90917">
        <ele>1724.26</ele>
        <time>2018-09-02T15:34:13Z</time>
      </trkpt>
      <trkpt lat="45.05092" lon="5.90914">
        <ele>1723.78</ele>
        <time>2018-09-02T15:34:15Z</time>
      </trkpt>
      <trkpt lat="45.05093" lon="5.90902">
        <ele>1722.82</ele>
        <time>2018-09-02T15:34:21Z</time>
      </trkpt>
      <trkpt lat="45.05096" lon="5.90891">
        <ele>1721.86</ele>
        <time>2018-09-02T15:34:28Z</time>
      </trkpt>
      <trkpt lat="45.05099" lon="5.90867">
        <ele>1718.49</ele>
        <time>2018-09-02T15:34:43Z</time>
      </trkpt>
      <trkpt lat="45.051" lon="5.90849">
        <ele>1716.57</ele>
        <time>2018-09-02T15:34:56Z</time>
      </trkpt>
      <trkpt lat="45.05102" lon="5.90834">
        <ele>1715.13</ele>
        <time>2018-09-02T15:35:08Z</time>
      </trkpt>
      <trkpt lat="45.05105" lon="5.9081">
        <ele>1711.28</ele>
        <time>2018-09-02T15:35:23Z</time>
      </trkpt>
      <trkpt lat="45.05111" lon="5.90802">
        <ele>1709.84</ele>
        <time>2018-09-02T15:35:29Z</time>
      </trkpt>
      <trkpt lat="45.05114" lon="5.90799">
        <ele>1709.36</ele>
        <time>2018-09-02T15:35:32Z</time>
      </trkpt>
      <trkpt lat="45.05118" lon="5.90792">
        <ele>1708.88</ele>
        <time>2018-09-02T15:35:38Z</time>
      </trkpt>
      <trkpt lat="45.05117" lon="5.90781">
        <ele>1708.4</ele>
        <time>2018-09-02T15:35:45Z</time>
      </trkpt>
      <trkpt lat="45.0512" lon="5.90768">
        <ele>1706.48</ele>
        <time>2018-09-02T15:35:53Z</time>
      </trkpt>
      <trkpt lat="45.05123" lon="5.90745">
        <ele>1704.07</ele>
        <time>2018-09-02T15:36:06Z</time>
      </trkpt>
      <trkpt lat="45.05124" lon="5.90739">
        <ele>1704.07</ele>
        <time>2018-09-02T15:36:09Z</time>
      </trkpt>
      <trkpt lat="45.0513" lon="5.90715">
        <ele>1701.67</ele>
        <time>2018-09-02T15:36:23Z</time>
      </trkpt>
      <trkpt lat="45.05133" lon="5.90693">
        <ele>1697.83</ele>
        <time>2018-09-02T15:36:36Z</time>
      </trkpt>
      <trkpt lat="45.05132" lon="5.90691">
        <ele>1701.19</ele>
        <time>2018-09-02T15:36:37Z</time>
      </trkpt>
      <trkpt lat="45.05131" lon="5.90682">
        <ele>1700.23</ele>
        <time>2018-09-02T15:36:42Z</time>
      </trkpt>
      <trkpt lat="45.05131" lon="5.90679">
        <ele>1698.79</ele>
        <time>2018-09-02T15:36:44Z</time>
      </trkpt>
      <trkpt lat="45.05125" lon="5.90659">
        <ele>1697.34</ele>
        <time>2018-09-02T15:36:57Z</time>
      </trkpt>
      <trkpt lat="45.05125" lon="5.90656">
        <ele>1697.83</ele>
        <time>2018-09-02T15:36:59Z</time>
      </trkpt>
      <trkpt lat="45.05123" lon="5.90633">
        <ele>1694.94</ele>
        <time>2018-09-02T15:37:12Z</time>
      </trkpt>
      <trkpt lat="45.05123" lon="5.90625">
        <ele>1694.94</ele>
        <time>2018-09-02T15:37:17Z</time>
      </trkpt>
      <trkpt lat="45.05124" lon="5.90618">
        <ele>1693.98</ele>
        <time>2018-09-02T15:37:21Z</time>
      </trkpt>
      <trkpt lat="45.05126" lon="5.906">
        <ele>1693.02</ele>
        <time>2018-09-02T15:37:31Z</time>
      </trkpt>
      <trkpt lat="45.05127" lon="5.90593">
        <ele>1692.06</ele>
        <time>2018-09-02T15:37:35Z</time>
      </trkpt>
      <trkpt lat="45.05129" lon="5.90579">
        <ele>1691.1</ele>
        <time>2018-09-02T15:37:43Z</time>
      </trkpt>
      <trkpt lat="45.05134" lon="5.90561">
        <ele>1689.17</ele>
        <time>2018-09-02T15:37:54Z</time>
      </trkpt>
      <trkpt lat="45.05136" lon="5.90552">
        <ele>1688.21</ele>
        <time>2018-09-02T15:38:00Z</time>
      </trkpt>
      <trkpt lat="45.05138" lon="5.90544">
        <ele>1687.25</ele>
        <time>2018-09-02T15:38:05Z</time>
      </trkpt>
      <trkpt lat="45.05139" lon="5.90542">
        <ele>1687.73</ele>
        <time>2018-09-02T15:38:06Z</time>
      </trkpt>
      <trkpt lat="45.05141" lon="5.90531">
        <ele>1686.29</ele>
        <time>2018-09-02T15:38:13Z</time>
      </trkpt>
      <trkpt lat="45.0514" lon="5.90521">
        <ele>1685.81</ele>
        <time>2018-09-02T15:38:27Z</time>
      </trkpt>
      <trkpt lat="45.05143" lon="5.90508">
        <ele>1684.37</ele>
        <time>2018-09-02T15:38:39Z</time>
      </trkpt>
      <trkpt lat="45.05144" lon="5.9051">
        <ele>1684.85</ele>
        <time>2018-09-02T15:38:51Z</time>
      </trkpt>
      <trkpt lat="45.0515" lon="5.90488">
        <ele>1683.41</ele>
        <time>2018-09-02T15:39:03Z</time>
      </trkpt>
      <trkpt lat="45.05154" lon="5.90466">
        <ele>1681</ele>
        <time>2018-09-02T15:39:16Z</time>
      </trkpt>
      <trkpt lat="45.05156" lon="5.90461">
        <ele>1681</ele>
        <time>2018-09-02T15:39:19Z</time>
      </trkpt>
      <trkpt lat="45.05159" lon="5.90449">
        <ele>1680.52</ele>
        <time>2018-09-02T15:39:25Z</time>
      </trkpt>
      <trkpt lat="45.0516" lon="5.90441">
        <ele>1679.56</ele>
        <time>2018-09-02T15:39:30Z</time>
      </trkpt>
      <trkpt lat="45.0516" lon="5.90431">
        <ele>1677.64</ele>
        <time>2018-09-02T15:39:35Z</time>
      </trkpt>
      <trkpt lat="45.05163" lon="5.9041">
        <ele>1678.6</ele>
        <time>2018-09-02T15:39:48Z</time>
      </trkpt>
      <trkpt lat="45.05172" lon="5.90387">
        <ele>1676.68</ele>
        <time>2018-09-02T15:40:03Z</time>
      </trkpt>
      <trkpt lat="45.05176" lon="5.90378">
        <ele>1676.2</ele>
        <time>2018-09-02T15:40:09Z</time>
      </trkpt>
      <trkpt lat="45.05176" lon="5.90361">
        <ele>1675.23</ele>
        <time>2018-09-02T15:40:18Z</time>
      </trkpt>
      <trkpt lat="45.05176" lon="5.90353">
        <ele>1675.23</ele>
        <time>2018-09-02T15:40:23Z</time>
      </trkpt>
      <trkpt lat="45.05176" lon="5.90325">
        <ele>1674.75</ele>
        <time>2018-09-02T15:40:39Z</time>
      </trkpt>
      <trkpt lat="45.05169" lon="5.90298">
        <ele>1674.27</ele>
        <time>2018-09-02T15:40:55Z</time>
      </trkpt>
      <trkpt lat="45.05165" lon="5.9028">
        <ele>1674.27</ele>
        <time>2018-09-02T15:41:07Z</time>
      </trkpt>
      <trkpt lat="45.05164" lon="5.9027">
        <ele>1674.27</ele>
        <time>2018-09-02T15:41:14Z</time>
      </trkpt>
      <trkpt lat="45.05158" lon="5.90249">
        <ele>1672.35</ele>
        <time>2018-09-02T15:41:30Z</time>
      </trkpt>
      <trkpt lat="45.05159" lon="5.90251">
        <ele>1672.83</ele>
        <time>2018-09-02T15:41:44Z</time>
      </trkpt>
      <trkpt lat="45.05158" lon="5.9025">
        <ele>1672.83</ele>
        <time>2018-09-02T15:41:57Z</time>
      </trkpt>
      <trkpt lat="45.05159" lon="5.90249">
        <ele>1671.87</ele>
        <time>2018-09-02T15:42:00Z</time>
      </trkpt>
      <trkpt lat="45.05159" lon="5.9025">
        <ele>1672.83</ele>
        <time>2018-09-02T15:42:31Z</time>
      </trkpt>
      <trkpt lat="45.0516" lon="5.90248">
        <ele>1672.35</ele>
        <time>2018-09-02T15:42:52Z</time>
      </trkpt>
      <trkpt lat="45.05161" lon="5.9025">
        <ele>1672.83</ele>
        <time>2018-09-02T15:43:18Z</time>
      </trkpt>
      <trkpt lat="45.05159" lon="5.90252">
        <ele>1672.83</ele>
        <time>2018-09-02T15:43:43Z</time>
      </trkpt>
      <trkpt lat="45.05157" lon="5.90255">
        <ele>1672.83</ele>
        <time>2018-09-02T15:44:02Z</time>
      </trkpt>
      <trkpt lat="45.05157" lon="5.90246">
        <ele>1673.31</ele>
        <time>2018-09-02T15:44:17Z</time>
      </trkpt>
      <trkpt lat="45.05156" lon="5.90238">
        <ele>1671.87</ele>
        <time>2018-09-02T15:44:31Z</time>
      </trkpt>
      <trkpt lat="45.05158" lon="5.90214">
        <ele>1670.43</ele>
        <time>2018-09-02T15:44:46Z</time>
      </trkpt>
      <trkpt lat="45.05163" lon="5.90191">
        <ele>1669.47</ele>
        <time>2018-09-02T15:45:01Z</time>
      </trkpt>
      <trkpt lat="45.05165" lon="5.9019">
        <ele>1669.95</ele>
        <time>2018-09-02T15:45:04Z</time>
      </trkpt>
      <trkpt lat="45.05171" lon="5.90187">
        <ele>1670.91</ele>
        <time>2018-09-02T15:45:10Z</time>
      </trkpt>
      <trkpt lat="45.05173" lon="5.90188">
        <ele>1670.43</ele>
        <time>2018-09-02T15:45:11Z</time>
      </trkpt>
      <trkpt lat="45.05179" lon="5.90185">
        <ele>1669.47</ele>
        <time>2018-09-02T15:45:17Z</time>
      </trkpt>
      <trkpt lat="45.0518" lon="5.90184">
        <ele>1668.99</ele>
        <time>2018-09-02T15:45:18Z</time>
      </trkpt>
      <trkpt lat="45.05181" lon="5.90183">
        <ele>1669.47</ele>
        <time>2018-09-02T15:45:19Z</time>
      </trkpt>
      <trkpt lat="45.05181" lon="5.90181">
        <ele>1668.99</ele>
        <time>2018-09-02T15:45:20Z</time>
      </trkpt>
      <trkpt lat="45.05182" lon="5.9018">
        <ele>1668.99</ele>
        <time>2018-09-02T15:45:21Z</time>
      </trkpt>
      <trkpt lat="45.05187" lon="5.90159">
        <ele>1666.1</ele>
        <time>2018-09-02T15:45:37Z</time>
      </trkpt>
      <trkpt lat="45.05193" lon="5.90149">
        <ele>1663.22</ele>
        <time>2018-09-02T15:45:49Z</time>
      </trkpt>
      <trkpt lat="45.05193" lon="5.90148">
        <ele>1663.22</ele>
        <time>2018-09-02T15:45:50Z</time>
      </trkpt>
      <trkpt lat="45.05186" lon="5.90127">
        <ele>1661.3</ele>
        <time>2018-09-02T15:46:05Z</time>
      </trkpt>
      <trkpt lat="45.05184" lon="5.90113">
        <ele>1658.89</ele>
        <time>2018-09-02T15:46:18Z</time>
      </trkpt>
      <trkpt lat="45.05182" lon="5.90101">
        <ele>1658.41</ele>
        <time>2018-09-02T15:46:27Z</time>
      </trkpt>
      <trkpt lat="45.05191" lon="5.90091">
        <ele>1656.01</ele>
        <time>2018-09-02T15:46:39Z</time>
      </trkpt>
      <trkpt lat="45.05202" lon="5.90076">
        <ele>1655.53</ele>
        <time>2018-09-02T15:46:51Z</time>
      </trkpt>
      <trkpt lat="45.05216" lon="5.90066">
        <ele>1654.57</ele>
        <time>2018-09-02T15:47:07Z</time>
      </trkpt>
      <trkpt lat="45.05224" lon="5.90062">
        <ele>1654.57</ele>
        <time>2018-09-02T15:47:19Z</time>
      </trkpt>
      <trkpt lat="45.05238" lon="5.90055">
        <ele>1656.01</ele>
        <time>2018-09-02T15:47:35Z</time>
      </trkpt>
      <trkpt lat="45.05242" lon="5.90052">
        <ele>1656.49</ele>
        <time>2018-09-02T15:47:38Z</time>
      </trkpt>
      <trkpt lat="45.05243" lon="5.9005">
        <ele>1656.49</ele>
        <time>2018-09-02T15:47:40Z</time>
      </trkpt>
      <trkpt lat="45.05249" lon="5.90036">
        <ele>1656.49</ele>
        <time>2018-09-02T15:47:49Z</time>
      </trkpt>
      <trkpt lat="45.0525" lon="5.90034">
        <ele>1656.49</ele>
        <time>2018-09-02T15:47:51Z</time>
      </trkpt>
      <trkpt lat="45.05251" lon="5.90031">
        <ele>1656.49</ele>
        <time>2018-09-02T15:47:53Z</time>
      </trkpt>
      <trkpt lat="45.05256" lon="5.90014">
        <ele>1656.01</ele>
        <time>2018-09-02T15:48:06Z</time>
      </trkpt>
      <trkpt lat="45.05262" lon="5.90007">
        <ele>1657.45</ele>
        <time>2018-09-02T15:48:13Z</time>
      </trkpt>
      <trkpt lat="45.05273" lon="5.89995">
        <ele>1659.37</ele>
        <time>2018-09-02T15:48:28Z</time>
      </trkpt>
      <trkpt lat="45.0528" lon="5.89987">
        <ele>1660.81</ele>
        <time>2018-09-02T15:48:37Z</time>
      </trkpt>
      <trkpt lat="45.05281" lon="5.89985">
        <ele>1660.81</ele>
        <time>2018-09-02T15:48:38Z</time>
      </trkpt>
      <trkpt lat="45.05293" lon="5.89971">
        <ele>1662.74</ele>
        <time>2018-09-02T15:48:51Z</time>
      </trkpt>
      <trkpt lat="45.05303" lon="5.89952">
        <ele>1660.81</ele>
        <time>2018-09-02T15:49:05Z</time>
      </trkpt>
      <trkpt lat="45.05307" lon="5.89938">
        <ele>1660.81</ele>
        <time>2018-09-02T15:49:14Z</time>
      </trkpt>
      <trkpt lat="45.05311" lon="5.89919">
        <ele>1658.89</ele>
        <time>2018-09-02T15:49:28Z</time>
      </trkpt>
      <trkpt lat="45.05311" lon="5.8991">
        <ele>1658.41</ele>
        <time>2018-09-02T15:49:34Z</time>
      </trkpt>
      <trkpt lat="45.05311" lon="5.89908">
        <ele>1658.41</ele>
        <time>2018-09-02T15:49:35Z</time>
      </trkpt>
      <trkpt lat="45.05311" lon="5.89902">
        <ele>1658.41</ele>
        <time>2018-09-02T15:49:39Z</time>
      </trkpt>
      <trkpt lat="45.05311" lon="5.899">
        <ele>1657.93</ele>
        <time>2018-09-02T15:49:40Z</time>
      </trkpt>
      <trkpt lat="45.05311" lon="5.89883">
        <ele>1658.41</ele>
        <time>2018-09-02T15:49:54Z</time>
      </trkpt>
      <trkpt lat="45.05311" lon="5.89862">
        <ele>1658.41</ele>
        <time>2018-09-02T15:50:06Z</time>
      </trkpt>
      <trkpt lat="45.05305" lon="5.89837">
        <ele>1659.37</ele>
        <time>2018-09-02T15:50:22Z</time>
      </trkpt>
      <trkpt lat="45.053" lon="5.89814">
        <ele>1659.85</ele>
        <time>2018-09-02T15:50:37Z</time>
      </trkpt>
      <trkpt lat="45.05301" lon="5.89794">
        <ele>1660.33</ele>
        <time>2018-09-02T15:50:50Z</time>
      </trkpt>
      <trkpt lat="45.05303" lon="5.89786">
        <ele>1660.33</ele>
        <time>2018-09-02T15:50:55Z</time>
      </trkpt>
      <trkpt lat="45.05303" lon="5.89784">
        <ele>1660.81</ele>
        <time>2018-09-02T15:50:56Z</time>
      </trkpt>
      <trkpt lat="45.05305" lon="5.89782">
        <ele>1660.81</ele>
        <time>2018-09-02T15:50:58Z</time>
      </trkpt>
      <trkpt lat="45.05306" lon="5.89781">
        <ele>1660.33</ele>
        <time>2018-09-02T15:50:59Z</time>
      </trkpt>
      <trkpt lat="45.05312" lon="5.8977">
        <ele>1661.3</ele>
        <time>2018-09-02T15:51:09Z</time>
      </trkpt>
      <trkpt lat="45.05325" lon="5.89757">
        <ele>1662.26</ele>
        <time>2018-09-02T15:51:23Z</time>
      </trkpt>
      <trkpt lat="45.05328" lon="5.8975">
        <ele>1662.26</ele>
        <time>2018-09-02T15:51:28Z</time>
      </trkpt>
      <trkpt lat="45.05339" lon="5.89733">
        <ele>1662.74</ele>
        <time>2018-09-02T15:51:42Z</time>
      </trkpt>
      <trkpt lat="45.05351" lon="5.89717">
        <ele>1662.74</ele>
        <time>2018-09-02T15:51:56Z</time>
      </trkpt>
      <trkpt lat="45.05362" lon="5.89704">
        <ele>1664.18</ele>
        <time>2018-09-02T15:52:05Z</time>
      </trkpt>
      <trkpt lat="45.05371" lon="5.89686">
        <ele>1664.66</ele>
        <time>2018-09-02T15:52:18Z</time>
      </trkpt>
      <trkpt lat="45.05375" lon="5.89672">
        <ele>1664.66</ele>
        <time>2018-09-02T15:52:28Z</time>
      </trkpt>
      <trkpt lat="45.05377" lon="5.89667">
        <ele>1665.62</ele>
        <time>2018-09-02T15:52:31Z</time>
      </trkpt>
      <trkpt lat="45.05377" lon="5.89666">
        <ele>1666.1</ele>
        <time>2018-09-02T15:52:32Z</time>
      </trkpt>
      <trkpt lat="45.0538" lon="5.89657">
        <ele>1666.1</ele>
        <time>2018-09-02T15:52:37Z</time>
      </trkpt>
      <trkpt lat="45.05377" lon="5.8964">
        <ele>1667.06</ele>
        <time>2018-09-02T15:52:49Z</time>
      </trkpt>
      <trkpt lat="45.05375" lon="5.89635">
        <ele>1667.06</ele>
        <time>2018-09-02T15:53:03Z</time>
      </trkpt>
    </trkseg>
  </trk>
</gpx>